     2.11           OBSERVATION DATA    G (GPS)             RINEX VERSION / TYPE
teqc 2010Oct21 OPUS Account 20111025 17:58:28UTC            PGM / RUN BY / DATE
D 1521                                                      MARKER NAME
3007                                                        MARKER NUMBER
CSMIDDLETON NGS                                             OBSERVER / AGENCY
4624K01634 TRIMBLE NETR5 3.64                               REC # / TYPE / VERS
12611996 TRM41249.00 NONE                                   ANT # / TYPE
  -741108.9210 -5465367.3147  3192806.6065                  APPROX POSITION XYZ
        2.0000        0.0000        0.0000                  ANTENNA: DELTA H/E/N
     1     1                                                WAVELENGTH FACT L1/2
     5    L1    L2    C1    P1    P2                        # / TYPES OF OBSERV
    15                                                      LEAP SECONDS
  2011     7    25     0     0    0.0000000     GPS         TIME OF FIRST OBS
                                                            END OF HEADER
 11  7 25  0  0  0.0000000  0  8G28G17G10G20G09G04G02G27
 -17870181.17248 -13259074.21645  21602338.1484                   21602337.3164
 -17586110.878 7 -13678845.115 7  21227434.211
  -3752184.29846  -2103931.84443  24036848.2114                   24036851.6564
  -3423423.00246  -1974636.76843  24066238.6334                   24066240.6094
  -9502389.24247  -7236573.09544  22343173.0234                   22343174.1294
 -24555860.39148 -18406591.21046  20029111.6564                   20029112.2114
 -10956806.74647  -8491945.53045  22745450.9224                   22745450.9144
 -14289856.63747 -10130372.36845  22493593.7034                   22493594.5474
 11  7 25  0  0 30.0000000  0  8G28G17G10G20G09G04G02G27
 -17828544.41048 -13226630.01945  21610260.7194                   21610260.7894
 -17557429.559 7 -13656496.045 7  21232892.172
  -3846278.64646  -2177251.93643  24018942.3134                   24018945.6764
  -3402000.71546  -1957944.01543  24070316.0864                   24070317.6994
  -9545607.56747  -7270249.68545  22334948.5944                   22334950.1994
 -24585650.96748 -18429804.62546  20023443.1334                   20023443.5474
 -11043708.09247  -8559660.80245  22728914.2974                   22728913.6294
 -14312552.60747 -10148057.54645  22489274.5004                   22489275.4104
 11  7 25  0  1  0.0000000  0  8G28G17G10G20G09G04G02G27
 -17786542.24448 -13193901.07845  21618253.3364                   21618253.2664
 -17528640.088 7 -13634062.712 7  21238370.633
  -3940408.75946  -2250599.86943  24001028.7114                   24001033.1524
  -3380074.20946  -1940858.42543  24074487.7814                   24074489.8794
  -9588216.31547  -7303451.30245  22326840.3134                   22326841.7384
 -24614869.90348 -18452572.62146  20017882.7734                   20017883.1524
 -11130357.81847  -8627179.95145  22712425.1484                   22712424.9534
 -14334761.61547 -10165363.27645  22485048.3674                   22485049.6684
 11  7 25  0  1 30.0000000  0  8G28G17G10G20G09G04G02G27
 -17744173.87548 -13160886.80445  21626316.2274                   21626316.2034
 -17499742.733 7 -13611545.300 7  21243869.477
  -4034571.53846  -2323973.26143  23983110.5084                   23983114.2814
  -3357643.11446  -1923379.68043  24078756.7274                   24078758.0004
  -9630213.72247  -7336176.52044  22318849.1024                   22318850.5904
 -24643516.65548 -18474894.75746  20012431.7734                   20012432.0664
 -11216753.85647  -8694501.47345  22695984.2664                   22695984.4344
 -14356483.14947 -10182289.15245  22480915.1254                   22480916.1604
 11  7 25  0  2  0.0000000  0  8G28G17G10G20G09G04G02G27
 -17701439.44748 -13127587.27445  21634448.2734                   21634448.4104
 -17470738.629 8 -13588944.703 7  21249388.875
  -4128764.51146  -2397370.18743  23965186.2424                   23965189.9454
  -3334708.49046  -1905508.49143  24083120.0634                   24083122.1024
  -9671599.22647  -7368424.96444  22310973.8364                   22310974.1134
 -24671591.45448 -18496771.20446  20007089.2034                   20007089.3674
 -11302895.29647  -8761624.60645  22679591.9694                   22679592.2974
 -14377717.22247 -10198835.16545  22476873.5634                   22476875.2304
 11  7 25  0  2 30.0000000  0  8G28G17G10G20G09G04G02G27
 -17658338.38048 -13094002.05745  21642650.2584                   21642650.1914
 -17441628.121 8 -13566261.195 7  21254928.484
  -4222984.34546  -2470788.04643  23947256.3444                   23947260.3914
  -3311269.75846  -1887244.55843  24087581.1254                   24087582.9614
  -9712370.89847  -7400195.07645  22303214.9924                   22303215.9264
 -24699093.59048 -18518201.43146  20001855.4454                   20001856.1684
 -11388780.12147  -8828547.76945  22663249.0164                   22663248.7114
 -14398463.02747 -10215000.71745  22472926.3754                   22472927.3404
 11  7 25  0  3  0.0000000  0  8G28G17G10G20G09G04G02G27
 -17614869.97748 -13060130.60545  21650921.7424                   21650921.8634
 -17412411.813 8 -13543495.232 7  21260488.000
  -4317228.22746  -2544224.66643  23929322.1414                   23929326.1024
  -3287326.88846  -1868587.72743  24092137.2584                   24092138.4734
  -9752527.49047  -7431485.90044  22295573.6954                   22295574.2504
 -24726022.72648 -18539185.15246  19996731.1094                   19996731.4144
 -11474406.90647  -8895269.86745  22646954.5234                   22646954.2304
 -14418720.17747 -10230785.49845  22469071.4304                   22469072.5634
 11  7 25  0  3 30.0000000  0  8G28G17G10G20G09G04G02G27
 -17571032.94348 -13025971.88645  21659263.7194                   21659263.3714
 -17383088.472 8 -13520645.872 7  21266068.305
  -4411491.47546  -2617676.35343  23911384.2424                   23911388.2894
  -3262878.79346  -1849537.24143  24096789.4844                   24096791.6094
  -9792066.38247  -7462295.38345  22288049.2504                   22288050.4534
 -24752376.96648 -18559720.89846  19991715.9844                   19991716.3634
 -11559772.42247  -8961788.36445  22630709.7344                   22630709.8834
 -14438486.68347 -10246187.94245  22465309.7034                   22465311.1914
 11  7 25  0  4  0.0000000  0  8G28G17G10G20G09G04G02G27
 -17526830.46248 -12991528.42845  21667675.2114                   21667675.1414
 -17353662.363 8 -13497716.444 7  21271667.953
  -4505774.97546  -2691143.84843  23893443.0634                   23893445.8054
  -3237929.20846  -1830096.02943  24101537.1254                   24101538.7114
  -9830990.16547  -7492625.54845  22280642.2344                   22280643.5824
 -24778160.15148 -18579811.67546  19986809.7814                   19986810.4184
 -11644878.93847  -9028105.06645  22614515.0084                   22614513.7154
 -14457765.76947 -10261210.57645  22461641.2584                   22461642.5704
 11  7 25  0  4 30.0000000  0  8G28G17G10G20G09G04G02G27
 -17482259.17648 -12956797.58545  21676157.1564                   21676156.9304
 -17324130.902 8 -13474704.900 7  21277287.719
  -4600072.49647  -2764622.23343  23875498.2424                   23875502.0164
  -3212475.24246  -1810261.78043  24106381.9224                   24106382.1214
  -9869294.55447  -7522473.07344  22273353.0704                   22273354.2504
 -24803368.87348 -18599454.81446  19982012.5554                   19982013.0234
 -11729721.68747  -9094216.21445  22598369.5944                   22598369.8444
 -14476553.98147 -10275850.71445  22458066.2734                   22458067.0744
 11  7 25  0  5  0.0000000  0  8G28G17G10G20G09G04G02G27
 -17437318.57848 -12921778.94145  21684708.7034                   21684708.9264
 -17294494.538 8 -13451611.644 7  21282927.078
  -4694380.95946  -2838109.22543  23857552.3444                   23857554.9144
  -3186517.13546  -1790034.66143  24111320.8594                   24111322.3484
  -9906978.15147  -7551836.88944  22266182.5634                   22266182.9344
 -24828002.69948 -18618649.98046  19977324.8834                   19977325.6764
 -11814299.26347  -9160120.74445  22582274.6414                   22582274.6134
 -14494851.19947 -10290108.26245  22454584.3444                   22454584.9694
 11  7 25  0  5 30.0000000  0  8G28G17G10G20G09G04G02G27
 -17392009.68247 -12886473.33845  21693331.0704                   21693331.3364
 -17264754.789 8 -13428437.814 7  21288586.359
  -4788698.53247  -2911603.27043  23839603.6484                   23839606.9264
  -3160056.04746  -1769415.60543  24116356.5314                   24116357.9494
  -9944040.88747  -7580716.90244  22259129.4774                   22259130.3914
 -24852062.66848 -18637397.97446  19972746.5704                   19972746.7814
 -11898611.04747  -9225818.18145  22566230.9144                   22566230.3794
 -14512657.99247 -10303983.66345  22451195.7814                   22451196.8244
 11  7 25  0  6  0.0000000  0  8G28G17G10G20G09G04G02G27
 -17346331.79048 -12850880.19845  21702023.7274                   21702023.0594
 -17234911.976 8 -13405183.682 7  21294265.508
  -4883022.26747  -2985102.13043  23821654.8204                   23821657.4344
  -3133092.38646  -1748404.95943  24121486.8914                   24121488.8284
  -9980481.50347  -7609112.13944  22252195.2974                   22252196.1334
 -24875548.32448 -18655698.46246  19968277.2584                   19968277.5634
 -11982655.34747  -9291307.16445  22550237.9614                   22550237.5164
 -14529974.12547 -10317476.72745  22447900.6724                   22447902.0434
 11  7 25  0  6 30.0000000  0  8G28G17G10G20G09G04G02G27
 -17300285.03148 -12814999.62045  21710785.5164                   21710785.5124
 -17204966.804 8 -13381849.790 7  21299963.469
  -4977349.12346  -3058603.42643  23803704.9454                   23803707.6334
  -3105626.37846  -1727002.87943  24126714.4144                   24126715.4574
 -10016299.22647  -7637022.02945  22245378.6884                   22245379.7384
 -24898459.87048 -18673551.58646  19963917.5084                   19963917.5594
 -12066431.04947  -9356586.86445  22534295.7034                   22534295.2934
 -14546799.40347 -10330587.31045  22444698.7274                   22444699.0984
 11  7 25  0  7  0.0000000  0  8G28G17G10G20G09G04G02G27
 -17253867.77347 -12778830.35945  21719618.4224                   21719618.3204
 -17174918.611 8 -13358435.628 7  21305681.594
  -5071674.77947  -3132103.77343  23785754.9924                   23785758.1294
  -3077657.11746  -1705208.70643  24132036.5864                   24132037.9384
 -10051491.96447  -7664444.92545  22238681.5784                   22238682.8834
 -24920796.13848 -18690956.44546  19959666.9534                   19959667.0514
 -12149935.26247  -9421654.99845  22518405.2814                   22518405.1564
 -14563132.36047 -10343314.27145  22441590.5634                   22441591.3324
 11  7 25  0  7 30.0000000  0  8G28G17G10G20G09G04G02G27
 -17207081.23148 -12742373.35145  21728522.2274                   21728521.5554
 -17144769.217 8 -13334942.597 7  21311418.820
  -5165997.63446  -3205601.96043  23767805.8674                   23767808.5554
  -3049186.32546  -1683023.66943  24137454.0084                   24137455.4064
 -10086059.75547  -7691380.84445  22232104.0784                   22232104.9224
 -24942558.15648 -18707913.84146  19955525.6334                   19955525.9574
 -12233167.85447  -9486511.48145  22502567.0634                   22502566.1374
 -14578974.04647 -10355658.43445  22438576.0704                   22438577.6134
 11  7 25  0  8  0.0000000  0  8G28G17G10G20G09G04G02G27
 -17159924.87847 -12705628.16045  21737495.2274                   21737495.5354
 -17114518.715 8 -13311370.795 7  21317175.281
  -5260314.18946  -3279095.19643  23749857.7504                   23749860.5744
  -3020214.01346  -1660447.84743  24142967.0944                   24142969.1884
 -10120001.41747  -7717828.88745  22225644.9924                   22225645.7504
 -24963745.88548 -18724423.73846  19951493.8444                   19951494.0944
 -12316127.15847  -9551155.03245  22486780.3834                   22486779.3794
 -14594323.99447 -10367619.43045  22435655.4924                   22435656.1684
 11  7 25  0  8 30.0000000  0  8G28G17G10G20G09G04G02G27
 -17112398.90847 -12668594.95945  21746538.6804                   21746539.1484
 -17084167.868 8 -13287720.799 7  21322951.281
  -5354621.87746  -3352581.52443  23731911.4614                   23731914.8634
  -2990740.70046  -1637481.61443  24148576.3834                   24148576.4964
 -10153316.34547  -7743788.56145  22219305.5704                   22219306.8134
 -24984359.39548 -18740486.20046  19947571.0314                   19947571.2424
 -12398812.09447  -9615584.77745  22471045.4064                   22471045.1454
 -14609182.35647 -10379197.37345  22432827.4454                   22432828.7194
 11  7 25  0  9  0.0000000  0  8G28G17G10G20G09G04G02G27
 -17064501.94848 -12631272.70345  21755654.1564                   21755654.0314
 -17053716.179 8 -13263992.226 7  21328745.477
  -5448916.60146  -3426057.79843  23713968.1484                   23713970.8164
  -2960766.06646  -1614124.72343  24154280.3284                   24154281.1844
 -10186002.39447  -7769258.21045  22213085.5554                   22213086.7424
 -25004397.61848 -18756100.38146  19943757.9384                   19943757.8754
 -12481219.86747  -9679798.54645  22455363.6884                   22455362.9304
 -14623547.82347 -10390391.23045  22430093.4844                   22430095.2384
 11  7 25  0  9 30.0000000  0  8G28G17G10G20G09G04G02G27
 -17016235.22648 -12593662.29845  21764838.5784                   21764838.5124
 -17023165.035 8 -13240186.152 7  21334559.242
  -5543196.88946  -3499522.79843  23696025.7424                   23696029.3954
  -2930291.53646  -1590378.34543  24160079.3284                   24160080.4024
 -10218059.97547  -7794238.13845  22206984.9844                   22206986.5004
 -25023861.91648 -18771267.35346  19940054.3444                   19940054.4924
 -12563350.39147  -9743796.28845  22439734.8674                   22439733.9964
 -14637421.45047 -10401201.87645  22427453.5004                   22427454.4844
 11  7 25  0 10  0.0000000  0  8G28G17G10G20G09G04G02G27
 -16967597.24448 -12555762.60645  21774094.2894                   21774094.5044
 -16992513.323 8 -13216301.709 7  21340391.930
  -5637457.58646  -3572972.51343  23678088.5554                   23678092.0394
  -2899316.24446  -1566241.74143  24165973.2584                   24165974.4224
 -10249486.26247  -7818726.16945  22201004.9384                   22201006.0944
 -25042750.85248 -18785985.98446  19936459.6564                   19936459.9144
 -12645200.55447  -9807575.56745  22424158.8754                   22424158.8914
 -14650801.49847 -10411627.89645  22424907.7734                   22424908.5554
 11  7 25  0 10 30.0000000  0  8G28G17G10G20G09G04G02G27
 -16918588.67747 -12517574.15545  21783420.0314                   21783419.9104
 -16961763.187 8 -13192340.566 7  21346243.711
  -5731696.60846  -3646405.35843  23660155.4614                   23660159.0164
  -2867841.50546  -1541716.02043  24171963.1174                   24171963.9064
 -10280282.11347  -7842722.91445  22195144.5314                   22195145.7894
 -25061065.65448 -18800257.24946  19932974.3834                   19932974.3674
 -12726770.36047  -9871136.36645  22408637.0394                   22408636.1294
 -14663689.26647 -10421670.32145  22422455.2274                   22422456.4654
 11  7 25  0 11  0.0000000  0  8G28G17G10G20G09G04G02G27
 -16869209.81047 -12479097.14345  21792816.7584                   21792816.5784
 -16930914.750 8 -13168302.815 7  21352114.086
  -5825911.42746  -3719819.34243  23642227.9534                   23642229.7384
  -2835868.10646  -1516801.69343  24178047.3594                   24178048.4064
 -10310446.71347  -7866227.81545  22189404.8524                   22189405.5274
 -25078806.60548 -18814081.35946  19929598.5394                   19929598.7114
 -12808058.43947  -9934477.65545  22393168.3594                   22393167.5044
 -14676084.82647 -10431329.21745  22420096.6484                   22420097.7034
 11  7 25  0 11 30.0000000  0  8G28G17G10G20G09G04G02G27
 -16819460.15847 -12440331.23045  21802283.9304                   21802284.0394
 -16899968.024 8 -13144188.487 7  21358002.805
  -5920098.39146  -3793211.66344  23624305.0704                   23624306.9574
  -2803396.21446  -1491498.92743  24184226.5164                   24184228.0634
 -10339979.17047  -7889240.11545  22183784.5084                   22183785.6684
 -25095973.37148 -18827458.04946  19926331.6644                   19926331.7584
 -12889063.02947  -9997598.02445  22377753.4694                   22377752.6334
 -14687987.66747 -10440604.18145  22417831.3594                   22417832.1764
 11  7 25  0 12  0.0000000  0  8G28G17G10G20G09G04G02G27
 -16769339.36547 -12401276.09345  21811821.7974                   21811821.1914
 -16868923.240 8 -13119997.747 7  21363910.750
  -6014254.37646  -3866579.85044  23606386.4064                   23606389.3914
  -2770426.06346  -1465807.89343  24190501.0634                   24190501.7894
 -10368878.13947  -7911758.76845  22178285.8524                   22178286.3714
 -25112566.01848 -18840387.37146  19923174.1804                   19923174.3164
 -12969782.61847 -10060496.33945  22362392.9534                   22362392.0944
 -14699397.53147 -10449494.99245  22415660.2344                   22415661.3484
 11  7 25  0 12 30.0000000  0  8G28G17G10G20G09G04G02G27
 -16718847.40647 -12361931.74445  21821429.8594                   21821429.8954
 -16837780.994 8 -13095731.041 7  21369836.859
  -6108376.64847  -3939921.73943  23588476.5554                   23588478.8204
  -2736958.64846  -1439729.41743  24196868.9224                   24196870.5004
 -10397143.13947  -7933783.41445  22172906.4384                   22172907.5354
 -25128585.00648 -18852869.68846  19920125.8364                   19920126.0554
 -13050215.85348 -10123171.48945  22347087.0004                   22347086.2584
 -14710314.53547 -10458001.76945  22413583.3984                   22413583.7234
 11  7 25  0 13  0.0000000  0  8G28G17G10G20G09G04G02G27
 -16667984.17147 -12322298.07745  21831108.8284                   21831109.0554
 -16806541.728 8 -13071388.755 7  21375781.508
  -6202461.56447  -4013234.55843  23570572.0944                   23570574.1214
  -2702993.97446  -1413263.50443  24203332.5704                   24203334.1604
 -10424773.65147  -7955313.66945  22167649.0234                   22167649.4694
 -25144030.23048 -18864904.92546  19917186.4144                   19917186.8134
 -13130361.38347 -10185622.48345  22331835.6644                   22331835.3364
 -14720738.72647 -10466124.54245  22411599.2034                   22411599.8794
 11  7 25  0 13 30.0000000  0  8G28G17G10G20G09G04G02G27
 -16616750.18247 -12282375.52445  21840858.5634                   21840858.3594
 -16775206.194 7 -13046971.450 7  21381743.984
  -6296506.66347  -4086516.31844  23552676.0394                   23552678.3404
  -2668533.34346  -1386411.08343  24209889.8674                   24209891.6134
 -10451769.31047  -7976349.22145  22162511.7974                   22162513.1094
 -25158902.56948 -18876493.75246  19914356.4924                   19914356.8324
 -13210218.14748 -10247848.44445  22316639.1724                   22316638.9384
 -14730670.51247 -10473863.61045  22409709.1724                   22409710.3954
 11  7 25  0 14  0.0000000  0  8G28G17G10G20G09G04G02G27
 -16565144.33947 -12242163.19745  21850678.9534                   21850679.1254
 -16743773.381 8 -13022478.350 7  21387725.930
  -6390507.50447  -4159763.63443  23534788.2344                   23534790.0784
  -2633576.23446  -1359171.78843  24216542.4144                   24216543.0704
 -10478128.21547  -7996888.59845  22157495.6484                   22157496.1884
 -25173201.00448 -18887635.37946  19911635.6564                   19911635.5554
 -13289783.69748 -10309847.50645  22301498.5314                   22301497.5234
 -14740108.86647 -10481218.19045  22407913.1884                   22407914.1804
 11  7 25  0 14 30.0000000  0  8G28G17G10G20G09G04G02G27
 -16513167.41247 -12201661.72745  21860569.6254                   21860569.2504
 -16712244.887 8 -12997910.694 7  21393725.336
  -6484462.10546  -4232974.90643  23516908.9694                   23516911.5744
  -2598124.46946  -1331547.02343  24223288.4844                   24223289.8674
 -10503850.60347  -8016932.00545  22152601.4694                   22152601.7624
 -25186926.90848 -18898330.88546  19909023.8594                   19909023.8594
 -13369057.66148 -10371619.34945  22286413.1254                   22286412.5784
 -14749054.90447 -10488189.14945  22406210.9924                   22406211.6174
 11  7 25  0 15  0.0000000  0  8G28G17G10G20G09G04G02G27
 -16460818.88147 -12160870.67945  21870531.2504                   21870531.0234
 -16680620.331 8 -12973268.195 7  21399743.547
  -6578366.70446  -4306147.19443  23499038.6094                   23499041.8634
  -2562177.75546  -1303536.59043  24230128.8594                   24230129.6484
 -10528935.35647  -8036478.53345  22147827.3754                   22147828.5274
 -25200080.01248 -18908580.04646  19906520.7034                   19906521.0314
 -13448038.00848 -10433162.41445  22271383.6954                   22271383.0594
 -14757508.14847 -10494776.11745  22404602.0314                   22404603.5354
 11  7 25  0 15 30.0000000  0  8G28G17G10G20G09G04G02G27
 -16408100.00647 -12119791.05545  21880562.8984                   21880562.5474
 -16648901.357 8 -12948552.117 7  21405779.508
  -6672219.45246  -4379279.07843  23481179.6724                   23481182.3594
  -2525738.22146  -1275142.20243  24237062.9694                   24237063.9734
 -10553383.32647  -8055528.88645  22143175.0554                   22143176.2704
 -25212661.81448 -18918384.03546  19904126.5234                   19904126.4734
 -13526724.90648 -10494476.82145  22256409.9454                   22256409.2304
 -14765469.77047 -10500980.00045  22403087.3834                   22403088.2774
 11  7 25  0 16  0.0000000  0  8G28G17G10G20G09G04G02G27
 -16355009.04447 -12078421.49145  21890666.1094                   21890666.2584
 -16617086.679 8 -12923761.469 7  21411833.313
  -6766015.11246  -4452366.51943  23463330.2194                   23463333.2464
  -2488804.55346  -1246362.72643  24244091.7504                   24244092.5904
 -10577192.08947  -8074081.16245  22138645.1174                   22138645.2894
 -25224670.73148 -18927741.62846  19901841.4534                   19901841.4414
 -13605114.90848 -10555559.86245  22241492.6414                   22241492.0634
 -14772937.83847 -10506799.28745  22401666.0784                   22401667.3674
 11  7 25  0 16 30.0000000  0  8G28G17G10G20G09G04G02G27
 -16301547.65947 -12036763.30945  21900839.8054                   21900839.3634
 -16585177.875 8 -12898897.466 7  21417905.258
  -6859752.53346  -4525408.55643  23445492.9534                   23445495.9224
  -2451379.24046  -1217200.24243  24251213.2344                   24251214.7774
 -10600362.99847  -8092136.38545  22134235.6334                   22134236.6174
 -25236108.91848 -18936654.49046  19899664.5394                   19899664.8914
 -13683208.45248 -10616411.91145  22226632.0634                   22226631.6844
 -14779914.30547 -10512235.51945  22400338.6564                   22400339.5204
 11  7 25  0 17  0.0000000  0  8G28G17G10G20G09G04G02G27
 -16247714.90647 -11994815.72045  21911083.2114                   21911083.5354
 -16553174.359 8 -12873959.683 7  21423995.695
  -6953427.74546  -4598402.11644  23427666.6644                   23427669.8754
  -2413462.14646  -1187654.41943  24258428.0314                   24258429.4884
 -10622894.56547  -8109693.45245  22129947.7114                   22129948.5434
 -25246975.94748 -18945122.29846  19897596.6094                   19897596.8484
 -13761003.27848 -10677031.19045  22211828.0394                   22211827.3404
 -14786398.66847 -10517288.28345  22399104.4614                   22399105.5704
 11  7 25  0 17 30.0000000  0  8G28G17G10G20G09G04G02G27
 -16193510.82647 -11952578.81845  21921398.5704                   21921398.5434
 -16521076.891 8 -12848948.696 7  21430103.781
  -7047037.13946  -4671344.40343  23409853.2274                   23409856.3164
  -2375054.03546  -1157726.07243  24265737.5634                   24265738.2384
 -10644786.14547  -8126751.82845  22125781.7584                   22125782.5234
 -25257272.05248 -18953145.22946  19895637.5084                   19895637.4614
 -13838498.04848 -10737416.65945  22197081.7034                   22197080.9184
 -14792390.89747 -10521957.56745  22397964.6334                   22397965.2704
 11  7 25  0 18  0.0000000  0  8G28G17G10G20G09G04G02G27
 -16138935.60247 -11910052.69545  21931783.6724                   21931783.4304
 -16488885.423 8 -12823864.458 7  21436229.336
  -7140577.38646  -4744232.78944  23392053.4304                   23392056.5784
  -2336155.44546  -1127415.42342  24273139.7424                   24273140.7774
 -10666037.43747  -8143311.26045  22121737.8754                   22121738.6214
 -25266997.75448 -18960723.69946  19893786.5944                   19893786.5004
 -13915691.68148 -10797567.46945  22182391.4694                   22182390.9534
 -14797891.18147 -10526243.52245  22396918.0394                   22396918.9964
 11  7 25  0 18 30.0000000  0  8G28G17G10G20G09G04G02G27
 -16083990.09447 -11867238.04645  21942239.6884                   21942239.5274
 -16456600.700 8 -12798707.552 7  21442373.102
  -7234046.06046  -4817065.40444  23374266.8834                   23374269.9264
  -2296767.96646  -1096723.88443  24280635.0084                   24280636.0124
 -10686648.85347  -8159372.11645  22117816.0394                   22117816.3444
 -25276154.05148 -18967858.46346  19892044.2424                   19892044.3484
 -13992583.29548 -10857482.93345  22167759.3524                   22167758.7034
 -14802900.44947 -10530146.84245  22395965.0084                   22395965.4574
 11  7 25  0 19  0.0000000  0  8G28G17G10G20G09G04G02G27
 -16028673.72147 -11824134.41345  21952765.8134                   21952766.2624
 -16424222.965 7 -12773478.158 7  21448534.109
  -7327439.82146  -4889839.62944  23356494.7194                   23356497.2114
  -2256892.05546  -1065651.76042  24288221.9844                   24288224.0434
 -10706619.50347  -8174933.67045  22114015.7114                   22114016.3984
 -25284741.29648 -18974549.82146  19890409.7194                   19890410.3914
 -14069171.43948 -10917161.93845  22153185.6174                   22153184.4884
 -14807418.74847 -10533667.62045  22395104.5394                   22395106.0944
 11  7 25  0 19 30.0000000  0  8G28G17G10G20G09G04G02G27
 -15972986.92047 -11780742.13645  21963362.7344                   21963362.7274
 -16391752.221 8 -12748176.307 7  21454713.633
  -7420755.41346  -4962552.98744  23338737.7734                   23338739.6724
  -2216528.82046  -1034199.93142  24295904.2664                   24295904.8404
 -10725949.10547  -8189995.69845  22110336.8594                   22110338.2464
 -25292759.87148 -18980798.06046  19888884.2504                   19888884.4064
 -14145455.18848 -10976603.74245  22138669.1094                   22138667.8874
 -14811446.26647 -10536805.95245  22394338.1564                   22394339.6254
 11  7 25  0 20  0.0000000  0  8G28G17G10G20G09G04G02G27
 -15916929.13047 -11737060.77445  21974029.8984                   21974030.0984
 -16359188.338 8 -12722801.870 7  21460909.977
  -7513988.94446  -5035202.40544  23320995.3364                   23320997.7114
  -2175678.30446  -1002368.34042  24303677.5704                   24303678.7464
 -10744636.85847  -8204557.59345  22106780.9694                   22106781.6644
 -25300209.66148 -18986603.08446  19887466.6334                   19887466.7544
 -14221432.17348 -11035806.50445  22124211.0554                   22124210.5784
 -14814982.76847 -10539561.67845  22393665.6644                   22393666.2304
 11  7 25  0 20 30.0000000  0  8G28G17G10G20G09G04G02G27
 -15860501.00347 -11693090.83845  21984768.4454                   21984768.3714
 -16326532.244 8 -12697355.580 7  21467124.406
  -7607137.83946  -5107785.84544  23303269.7974                   23303272.1764
  -2134341.91246   -970158.18342  24311543.1174                   24311544.5204
 -10762683.01847  -8218619.54745  22103346.7504                   22103348.0864
 -25307091.82348 -18991965.80846  19886157.0474                   19886157.3874
 -14297101.51147 -11094769.56245  22109812.1724                   22109810.5864
 -14818029.27647 -10541935.58845  22393085.6024                   22393086.8364
 11  7 25  0 21  0.0000000  0  8G28G17G10G20G09G04G02G27
 -15803702.83647 -11648832.55745  21995576.3594                   21995576.4224
 -16293783.868 7 -12671837.390 7  21473355.773
  -7700198.56346  -5180300.57644  23285561.1724                   23285562.5594
  -2092520.38546   -937570.00342  24319501.6884                   24319502.2304
 -10780087.37747  -8232181.39045  22100034.6414                   22100035.7194
 -25313406.95848 -18996886.68746  19884955.4454                   19884955.6214
 -14372462.25048 -11153492.12645  22095470.4064                   22095469.9614
 -14820585.75747 -10543927.67245  22392599.3524                   22392600.9144
 11  7 25  0 21 30.0000000  0  8G28G17G10G20G09G04G02G27
 -15746535.66047 -11604286.74845  22006455.2034                   22006454.5944
 -16260944.854 7 -12646248.545 7  21479605.242
  -7793168.98846  -5252744.97444  23267869.0704                   23267871.0984
  -2050215.63346   -904605.24243  24327552.6804                   24327553.1804
 -10796850.53347  -8245243.60045  22096844.7584                   22096845.5904
 -25319156.63348 -19001366.94746  19883861.3054                   19883861.6174
 -14447514.57448 -11211974.39545  22081188.8444                   22081187.8054
 -14822653.63047 -10545539.01545  22392206.0944                   22392206.9344
 11  7 25  0 22  0.0000000  0  8G28G17G10G20G09G04G02G27
 -15688997.57647 -11559451.90945  22017404.1804                   22017404.1844
 -16228013.092 7 -12620587.449 7  21485871.922
  -7886044.02046  -5325115.01444  23250194.8444                   23250197.5784
  -2007426.47846   -871263.07242  24335693.7734                   24335695.7584
 -10812970.48747  -8257804.64145  22093776.9924                   22093778.2504
 -25324339.41748 -19005405.47946  19882875.0394                   19882875.3204
 -14522254.77248 -11270213.44245  22066966.3284                   22066965.3554
 -14824231.20447 -10546768.31945  22391905.4844                   22391906.8594
 11  7 25  0 22 30.0000000  0  8G28G17G10G20G09G04G02G27
 -15631090.39647 -11514329.47045  22028423.5394                   22028423.5004
 -16194990.224 7 -12594855.348 7  21492156.297
  -7978821.86046  -5397409.35744  23232540.8134                   23232541.9104
  -1964155.73246   -837545.52442  24343928.8134                   24343931.1764
 -10828448.53647  -8269865.45845  22090831.7664                   22090833.4344
 -25328957.51648 -19009003.98346  19881996.2664                   19881996.3404
 -14596683.20847 -11328209.56345  22052802.8204                   22052802.3134
 -14825320.41447 -10547617.07845  22391698.1254                   22391698.9884
 11  7 25  0 23  0.0000000  0  8G28G17G10G20G09G04G02G27
 -15572814.20647 -11468919.48345  22039513.1884                   22039513.4304
 -16161876.049 7 -12569052.100 7  21498457.484
  -8071499.04146  -5469625.24544  23214904.2894                   23214906.7384
  -1920404.22746   -803453.49143  24352253.6414                   24352256.2624
 -10843284.33747  -8281425.83345  22088008.3674                   22088009.8524
 -25333011.23047 -19012162.71746  19881224.5474                   19881224.9184
 -14670798.41448 -11385961.61945  22038699.2344                   22038698.2704
 -14825921.64347 -10548085.58745  22391583.5864                   22391584.7504
 11  7 25  0 23 30.0000000  0  8G28G17G10G20G09G04G02G27
 -15514168.76747 -11423221.78845  22050673.2584                   22050673.1214
 -16128670.562 7 -12543177.689 7  21504776.023
  -8164071.77846  -5541759.74244  23197288.3984                   23197290.0944
  -1876172.14746   -768986.93643  24360671.4144                   24360672.6804
 -10857477.37547  -8292485.37145  22085308.1334                   22085308.8164
 -25336500.97848 -19014881.98546  19880560.4144                   19880560.5904
 -14744599.05948 -11443468.53946  22024655.4224                   22024654.7424
 -14826034.79947 -10548173.79245  22391562.3984                   22391563.4104
 11  7 25  0 24  0.0000000  0  9G28G17G10G20G09G04G02G27G12
 -15455154.80547 -11377236.89845  22061902.8834                   22061903.3984
 -16095374.747 8 -12517232.899 7  21511112.117
  -8256537.41246  -5613810.76344  23179692.3204                   23179694.6804
  -1831460.81146   -734146.94642  24369180.0634                   24369181.2114
 -10871028.05447  -8303044.35645  22082729.4774                   22082729.8874
 -25339427.81148 -19017162.62946  19880003.6884                   19880004.0234
 -14818084.10048 -11500729.56445  22010671.8054                   22010670.6884
 -14825660.76547 -10547882.37345  22391633.2504                   22391635.1254
   -111958.46016    -71622.90815  24672694.930
 11  7 25  0 24 30.0000000  0  9G28G17G10G20G09G04G02G27G12
 -15395771.60147 -11330964.30645  22073203.4064                   22073203.4064
 -16061987.769 7 -12491217.090 7  21517465.375
  -8348891.79046  -5685775.14544  23162118.1484                   23162119.6054
  -1786270.90846   -698934.08642  24377779.0004                   24377780.5434
 -10883935.70247  -8313102.27545  22080273.4144                   22080274.4534
 -25341791.77347 -19019004.66546  19879553.5394                   19879554.1954
 -14891251.69848 -11557743.21845  21996748.0944                   21996747.0354
 -14824799.16147 -10547211.03745  22391797.6024                   22391798.1994
   -208787.118 6   -147073.762 5  24654269.227
 11  7 25  0 25  0.0000000  0  9G28G17G10G20G09G04G02G27G12
 -15336017.54447 -11284402.72745  22084574.4384                   22084574.0124
 -16028507.925 7 -12465128.895 7  21523836.383
  -8441129.93346  -5757648.92344  23144565.0864                   23144567.4104
  -1740601.67846   -663347.64343  24386470.0864                   24386471.5474
 -10896198.29747  -8322657.56045  22077939.1954                   22077940.7544
 -25343591.66448 -19020407.17246  19879211.2504                   19879211.4104
 -14964098.93848 -11614507.24046  21982885.9304                   21982884.7074
 -14823448.70047 -10546158.75645  22392054.7344                   22392055.3444
   -305636.663 6   -222540.957 5  24635839.125
 11  7 25  0 25 30.0000000  0  9G28G17G10G20G09G04G02G27G12
 -15275898.47747 -11237556.75345  22096014.2274                   22096014.7544
 -15994940.521 7 -12438972.478 7  21530224.234
  -8533253.75446  -5829433.60644  23127035.1644                   23127037.2774
  -1694459.09946   -627392.41943  24395250.2034                   24395251.7814
 -10907821.11547  -8331714.32045  22075727.9064                   22075728.1764
 -25344833.38948 -19021374.74146  19878975.1094                   19878975.0234
 -15036629.84648 -11671024.78946  21969083.8984                   21969082.4924
 -14821615.06247 -10544729.98745  22392403.6954                   22392405.1334
   -402510.910 6   -298027.459 6  24617404.578
 11  7 25  0 26  0.0000000  0  9G28G17G10G20G09G04G02G27G12
 -15215411.85547 -11190424.36345  22107525.3284                   22107524.6484
 -15961283.157 7 -12412745.973 7  21536628.703
  -8625257.07446  -5901124.41944  23109527.2584                   23109529.4494
  -1647841.41046   -591066.95943  24404121.8054                   24404122.2854
 -10918801.41847  -8340270.44145  22073638.5164                   22073639.6294
 -25345515.36348 -19021906.13646  19878845.1564                   19878845.5944
 -15108840.80748 -11727293.02545  21955342.5234                   21955341.3674
 -14819295.98347 -10542922.95345  22392845.1954                   22392846.3134
   -499405.246 6   -373529.566 6  24598965.539
 11  7 25  0 26 30.0000000  0  9G28G17G10G20G09G04G02G27G12
 -15154558.38447 -11143006.11045  22119105.3444                   22119104.8364
 -15927536.460 7 -12386449.850 7  21543050.898
  -8717137.23346  -5972719.25244  23092043.2664                   23092045.5164
  -1600750.44946   -554372.69243  24413082.6254                   24413083.9144
 -10929139.85447  -8348326.40145  22071671.3134                   22071672.6054
 -25345638.76248 -19022002.28646  19878821.5704                   19878822.0904
 -15180730.83948 -11783311.18045  21941662.2734                   21941661.1024
 -14816492.52247 -10540738.47045  22393377.7974                   22393379.3954
   -596318.896 6   -449046.707 6  24580523.352
 11  7 25  0 27  0.0000000  0  9G28G17G10G20G09G04G02G27G12
 -15093337.46347 -11095301.54445  22130754.8914                   22130754.8324
 -15893698.797 7 -12360082.848 7  21549489.883
  -8808889.69746  -6044214.58044  23074583.1954                   23074585.2034
  -1553186.09446   -517309.56443  24422133.6954                   24422135.2504
 -10938835.48547  -8355881.42845  22069826.0234                   22069827.2344
 -25345203.21548 -19021662.88846  19878904.4694                   19878905.1804
 -15252297.63648 -11839077.45546  21928042.9844                   21928042.0434
 -14813204.24047 -10538176.21045  22394004.3524                   22394005.1914
   -693249.014 6   -524576.684 6  24562077.570
 11  7 25  0 27 30.0000000  0  9G28G17G10G20G09G04G02G27G12
 -15031750.33147 -11047311.60945  22142474.7034                   22142474.5904
 -15859772.001 7 -12333646.380 7  21555945.750
  -8900511.82347  -6115608.37244  23057147.6484                   23057149.9774
  -1505150.58446   -479879.30643  24431275.0474                   24431276.2934
 -10947889.54847  -8362936.58845  22068102.9774                   22068103.9964
 -25344210.48447 -19020889.32446  19879093.3054                   19879093.7854
 -15323541.07248 -11894591.77446  21914486.2734                   21914485.2114
 -14809432.63847 -10535237.33145  22394722.1094                   22394723.1414
   -790194.565 6   -600118.623 6  24543629.336
 11  7 25  0 28  0.0000000  0  9G28G17G10G20G09G04G02G27G12
 -14969797.57947 -10999036.78245  22154263.5634                   22154264.1764
 -15825756.492 7 -12307140.807 7  21562419.031
  -8992001.06647  -6186898.60344  23039738.1564                   23039740.2974
  -1456645.42646   -442083.15943  24440504.7274                   24440506.3794
 -10956302.36747  -8369492.06045  22066502.4384                   22066503.0474
 -25342661.99148 -19019682.69346  19879388.2664                   19879388.8134
 -15394460.78148 -11949853.84046  21900990.4694                   21900989.3954
 -14805178.64247 -10531922.54945  22395531.4694                   22395531.9414
   -887154.086 6   -675671.493 6  24525178.633
 11  7 25  0 28 30.0000000  0  9G28G17G10G20G09G04G02G27G12
 -14907479.26647 -10950477.10245  22166122.6884                   22166122.6564
 -15791651.873 7 -12280565.783 7  21568908.648
  -9083353.76647  -6258082.45044  23022354.3284                   23022355.9304
  -1407671.19447   -403921.40443  24449824.8594                   24449826.3134
 -10964073.79947  -8375547.74345  22065023.6564                   22065024.4144
 -25340558.01547 -19018043.22246  19879788.4224                   19879788.8484
 -15465055.01648 -12004862.27646  21887556.6334                   21887556.0354
 -14800442.67847 -10528232.22545  22396432.9064                   22396433.8714
   -984125.667 6   -751233.702 6  24506725.594
 11  7 25  0 29  0.0000000  0  9G28G17G10G20G09G04G02G27G12
 -14844795.71347 -10901632.81645  22178051.1804                   22178050.8134
 -15757458.106 7 -12253921.308 7  21575415.344
  -9174566.38347  -6329157.12344  23004996.6484                   23004999.0434
  -1358229.12546   -365395.16843  24459233.2194                   24459233.9804
 -10971203.96947  -8381103.75545  22063666.4844                   22063667.7934
 -25337899.52248 -19015971.65746  19880294.2034                   19880294.6604
 -15535322.71448 -12059616.27746  21874185.3364                   21874184.0864
 -14795225.15847 -10524166.63345  22397425.5704                   22397426.4144
  -1081107.423 7   -826803.849 6  24488271.609
 11  7 25  0 29 30.0000000  0  9G28G17G10G20G09G04G02G27G12
 -14781747.33847 -10852504.25145  22190048.7114                   22190048.7234
 -15723175.582 7 -12227207.664 7  21581939.633
  -9265635.91447  -6400120.32944  22987667.1644                   22987668.9414
  -1308320.38346   -326505.24743  24468730.5234                   24468731.7304
 -10977693.44847  -8386160.49845  22062432.0314                   22062433.1254
 -25334687.47748 -19013468.75546  19880905.4844                   19880905.7234
 -15605263.14248 -12114115.26046  21860875.9614                   21860874.9264
 -14789526.86847 -10519726.41645  22398509.8984                   22398510.6094
  -1178097.849 6   -902380.680 6  24469814.633
 11  7 25  0 30  0.0000000  0  9G28G17G10G20G09G04G02G27G12
 -14718334.24347 -10803091.48745  22202115.9064                   22202116.0314
 -15688803.459 7 -12200424.207 7  21588480.133
  -9356558.24447  -6470968.81544  22970364.8594                   22970366.8954
  -1257946.11446   -287252.57843  24478315.9384                   24478318.0354
 -10983542.06147  -8390717.87145  22061318.9534                   22061319.6764
 -25330922.48747 -19010534.98046  19881622.2504                   19881622.2504
 -15674874.16648 -12168357.56446  21847629.2504                   21847628.2854
 -14783348.08447 -10514911.77345  22399685.7344                   22399686.8444
  -1275095.038 7   -977962.762 6  24451356.266
 11  7 25  0 30 30.0000000  0  9G28G17G10G20G09G04G02G27G12
 -14654556.89847 -10753394.89045  22214252.2894                   22214252.1994
 -15654342.685 7 -12173571.659 7  21595038.055
  -9447330.46947  -6541700.34944  22953091.1414                   22953093.6644
  -1207107.71246   -247638.19843  24487990.1334                   24487991.9574
 -10988750.28947  -8394776.22345  22060327.3834                   22060328.5784
 -25326605.85748 -19007171.35446  19882443.3364                   19882443.3554
 -15744155.44248 -12222342.92146  21834446.0234                   21834444.4064
 -14776689.79847 -10509723.50345  22400952.3754                   22400953.9384
  -1372097.293 7  -1053548.809 6  24432897.070
 11  7 25  0 31  0.0000000  0  9G28G17G10G20G09G04G02G27G12
 -14590416.09047 -10703415.07545  22226457.7974                   22226458.3954
 -15619793.037 7 -12146649.878 7  21601612.719
  -9537949.24547  -6612312.31344  22935846.9774                   22935848.7464
  -1155806.11246   -207662.96143  24497753.0704                   24497754.0124
 -10993318.51647  -8398335.88045  22059458.7734                   22059459.8444
 -25321738.54548 -19003378.63446  19883369.5474                   19883369.7544
 -15813106.03848 -12276070.59046  21821324.7194                   21821323.5354
 -14769552.66147 -10504162.09345  22402310.6484                   22402312.2234
  -1469102.770 7  -1129137.335 6  24414437.305
 11  7 25  0 31 30.0000000  0  9G28G17G10G20G09G04G02G27G12
 -14525912.76247 -10653152.79145  22238732.5004                   22238732.7814
 -15585155.274 7 -12119659.433 7  21608203.820
  -9628411.86747  -6682802.59844  22918632.9224                   22918634.5664
  -1104043.58646   -167328.52443  24507602.9454                   24507604.5234
 -10997247.92247  -8401397.76745  22058710.6884                   22058711.9734
 -25316322.19447 -18999158.09246  19884400.6094                   19884400.3634
 -15881725.83548 -12329540.51846  21808266.9064                   21808265.2584
 -14761938.21147 -10498228.73745  22403759.5784                   22403761.0164
  -1566110.547 7  -1204727.669 6  24395977.414
 11  7 25  0 32  0.0000000  0  9G28G17G10G20G09G04G02G27G12
 -14461046.36647 -10602607.57245  22251076.3444                   22251076.2504
 -15550428.459 7 -12092599.589 7  21614812.383
  -9718714.09947  -6753167.89444  22901448.3364                   22901450.3364
  -1051820.39146   -126635.12043  24517540.6024                   24517542.2584
 -11000537.98847  -8403961.44545  22058084.3054                   22058085.4064
 -25310356.80248 -18994509.71746  19885535.6254                   19885535.7234
 -15950012.39748 -12382750.76646  21795272.3674                   21795271.4064
 -14753846.32247 -10491923.35045  22405299.5474                   22405300.7074
  -1663117.938 7  -1280317.734 6  24377517.297
 11  7 25  0 32 30.0000000  0  9G28G17G10G20G09G04G02G27G12
 -14395818.51147 -10551780.69345  22263488.5084                   22263488.7934
 -15515613.516 7 -12065471.072 7  21621437.438
  -9808853.55147  -6823406.35044  22884295.3674                   22884297.1024
   -999138.49946    -85584.32143  24527565.8524                   24527567.0664
 -11003189.84147  -8406027.81845  22057580.4304                   22057581.2234
 -25303844.46847 -18989435.16346  19886774.7424                   19886775.0474
 -16017965.43048 -12435701.13146  21782341.0634                   21782339.9614
 -14745278.60647 -10485247.19945  22406930.0084                   22406931.2424
  -1760123.998 6  -1355906.753 6  24359057.609
 11  7 25  0 33  0.0000000  0  9G28G17G10G20G09G04G02G27G12
 -14330227.54547 -10500670.88845  22275969.9694                   22275970.4494
 -15480708.359 7 -12038272.264 7  21628079.336
  -9898824.73847  -6893513.70944  22867174.5234                   22867175.9224
   -945997.40446    -44175.62742  24537677.7974                   24537679.3834
 -11005201.70047  -8407595.50045  22057196.9304                   22057197.9614
 -25296784.22847 -18983933.66446  19888118.3524                   19888118.2734
 -16085582.21748 -12488389.48146  21769474.4144                   21769472.9844
 -14736233.68447 -10478199.19145  22408651.0164                   22408652.4064
  -1857124.570 5  -1431491.484 6  24340597.367
 11  7 25  0 33 30.0000000  0  9G28G17G10G20G09G04G02G27G12
 -14264276.63447 -10449280.59745  22288520.6484                   22288520.6884
 -15445716.046 7 -12011005.529 7  21634738.430
  -9988627.11946  -6963489.49844  22850084.8054                   22850087.2664
   -892401.18346     -2412.39143  24547876.7584                   24547878.7194
 -11006577.23847  -8408667.33545  22056935.8914                   22056936.7304
 -25289179.88548 -18978008.19546  19889565.3284                   19889565.6254
 -16152864.73548 -12540817.36146  21756670.5634                   21756669.9694
 -14726715.25947 -10470782.21645  22410462.8054                   22410463.6454
  -1954120.958 6  -1507073.006 6  24322140.852
 11  7 25  0 34  0.0000000  0  9G28G17G10G20G09G04G02G27G12
 -14197966.42047 -10397610.32045  22301138.8204                   22301138.8554
 -15410636.688 7 -11983670.988 7  21641413.313
 -10078257.40147  -7033331.19644  22833029.2584                   22833031.0664
   -838351.30946     39704.36943  24558162.8524                   24558163.8404
 -11007316.97247  -8409243.76545  22056794.5234                   22056795.6134
 -25281032.64847 -18971659.68446  19891115.5004                   19891115.8674
 -16219811.71648 -12592983.79246  21743930.8984                   21743929.5124
 -14716724.16847 -10462996.95045  22412363.7274                   22412365.3524
  -2051111.030 6  -1582649.644 6  24303683.992
 11  7 25  0 34 30.0000000  0  9G28G17G10G20G09G04G02G27G12
 -14131296.39147 -10345659.68145  22313825.7344                   22313825.8554
 -15375469.103 8 -11956267.710 7  21648106.063
 -10167711.18147  -7103035.36744  22816007.3984                   22816008.1644
   -783848.14546     82174.37543  24568534.3134                   24568535.1804
 -11007420.44147  -8409324.39445  22056775.1884                   22056775.6884
 -25272342.62648 -18964888.22946  19892769.3284                   19892769.4534
 -16286421.40548 -12644887.38446  21731255.3754                   21731254.4774
 -14706260.43547 -10454843.38645  22414354.6644                   22414355.9494
  -2148092.518 6  -1658219.623 5  24285229.523
 11  7 25  0 35  0.0000000  0  9G28G17G10G20G09G04G02G27G12
 -14064260.46247 -10293423.92245  22326582.1804                   22326582.3284
 -15340206.204 8 -11928790.132 7  21654816.227
 -10256978.20747  -7172594.01644  22799020.2664                   22799021.4884
   -728886.29146    125001.81043  24578991.9614                   24578994.8484
 -11006881.62547  -8408904.53545  22056877.3204                   22056879.0474
 -25263104.23447 -18957689.47846  19894527.4694                   19894527.3594
 -16352686.09548 -12696522.16446  21718645.8984                   21718644.7734
 -14695318.03147 -10446316.85045  22416437.2974                   22416438.1294
  -2245056.598 6  -1733776.009 6  24266777.102
 11  7 25  0 35 30.0000000  0  8G28G17G10G09G04G02G27G12
 -13996872.12047 -10240913.56245  22339405.7194                   22339406.2664
 -15304861.283 7 -11901248.651 7  21661542.039
 -10346068.07847  -7242014.63544  22782066.8134                   22782068.1764
 -11005714.00347  -8407994.69145  22057099.5864                   22057100.7544
 -25253331.54648 -18950074.38946  19896387.0084                   19896387.0744
 -16418617.71748 -12747897.39746  21706099.5554                   21706097.4884
 -14683910.96347 -10437428.21545  22418608.0004                   22418608.7074
  -2342014.274 6  -1809327.369 6  24248327.328
 11  7 25  0 36  0.0000000  0  8G28G17G10G09G04G02G27G12
 -13929125.88647 -10188124.32645  22352297.5164                   22352298.0354
 -15269428.399 7 -11873638.634 7  21668284.641
 -10434971.46047  -7311289.93444  22765148.8834                   22765150.6134
 -11003912.00047  -8406590.55445  22057442.4304                   22057443.3674
 -25243019.64248 -18942039.13346  19898349.3524                   19898349.4844
 -16484209.22048 -12799007.59446  21693617.5164                   21693616.8554
 -14672033.81747 -10428173.31345  22420867.9844                   22420869.3054
  -2438957.450 6  -1884867.480 6  24229879.211
 11  7 25  0 36 30.0000000  0  8G28G17G10G09G04G02G27G12
 -13861022.72947 -10135056.96945  22365257.5634                   22365257.7934
 -15233907.757 7 -11845960.223 7  21675044.430
 -10523685.37147  -7380417.60944  22748267.5234                   22748268.7664
 -11001477.02647  -8404693.17445  22057906.1094                   22057907.2704
 -25232170.11847 -18933584.95646  19900414.1024                   19900414.0164
 -16549460.36048 -12849852.58646  21681200.7664                   21681199.0554
 -14659688.14547 -10418553.31845  22423217.6334                   22423218.5784
  -2535884.628 6  -1960395.116 6  24211434.656
 11  7 25  0 37  0.0000000  0  8G28G17G10G09G04G02G27G12
 -13792563.64347 -10081712.26344  22378283.9694                   22378284.6954
 -15198299.992 8 -11818213.921 7  21681820.383
 -10612207.00747  -7449395.43044  22731422.0784                   22731424.3134
 -10998409.86147  -8402303.19045  22058489.5554                   22058490.5394
 -25220784.93748 -18924713.39146  19902580.4924                   19902580.5234
 -16614370.62448 -12900431.95346  21668848.2504                   21668847.1134
 -14646875.34947 -10408569.33145  22425655.4694                   22425656.5434
  -2632794.750 7  -2035909.439 6  24192993.875
 11  7 25  0 37 30.0000000  0  8G28G17G10G09G04G02G27G12
 -13723748.29847 -10028089.98345  22391379.6334                   22391380.0784
 -15162603.780 7 -11790398.695 7  21688612.898
 -10700531.77447  -7518219.86744  22714614.6334                   22714615.8204
 -10994710.77247  -8399420.78645  22059193.1484                   22059194.0514
 -25208864.05548 -18915424.38946  19904849.0394                   19904849.3634
 -16678937.98148 -12950744.11846  21656561.9144                   21656560.3284
 -14633595.65347 -10398221.54245  22428182.8594                   22428183.5864
  -2729684.571 7  -2111407.975 6  24174556.328
 11  7 25  0 38  0.0000000  0  8G28G17G10G09G04G02G27G12
 -13654577.11247  -9974190.40545  22404542.6254                   22404542.9614
 -15126818.828 7 -11762514.322 7  21695422.289
 -10788656.31347  -7586888.29444  22697844.8834                   22697846.1724
 -10990379.85747  -8396046.05445  22060017.8284                   22060018.5984
 -25196408.56848 -18905718.81246  19907219.0944                   19907219.4964
 -16743161.23048 -13000788.14846  21644340.5634                   21644339.3634
 -14619849.63447 -10387510.37445  22430798.6174                   22430799.6994
  -2826551.922 7  -2186888.994 6  24156123.406
 11  7 25  0 38 30.0000000  0  8G28G17G10G09G04G02G27G12
 -13585051.78547  -9920014.86845  22417772.6414                   22417773.1054
 -15090946.113 7 -11734561.583 7  21702248.789
 -10876578.37647  -7655398.94144  22681114.1884                   22681115.2504
 -10985419.25947  -8392180.65245  22060961.5704                   22060962.9774
 -25183421.00848 -18895598.63546  19909690.4694                   19909690.5044
 -16807040.79748 -13050564.38146  21632184.6954                   21632182.9184
 -14605639.47647 -10376437.54645  22433501.9844                   22433503.5944
  -2923396.267 7  -2262352.029 6  24137693.227
 11  7 25  0 39  0.0000000  0  8G28G17G10G09G04G02G27G12
 -13515172.04347  -9865563.16745  22431070.7344                   22431070.7154
 -15054984.600 8 -11706539.639 7  21709092.227
 -10964293.27747  -7723748.16044  22664421.8674                   22664423.8954
 -10979828.51547  -8387824.23445  22062025.8054                   22062026.6334
 -25169901.60548 -18885064.03646  19912263.1954                   19912263.3834
 -16870574.73848 -13100071.28946  21620094.7814                   21620092.9414
 -14590965.08247 -10365002.97845  22436294.9144                   22436295.6954
  -3020214.408 7  -2337794.647 6  24119269.641
 11  7 25  0 39 30.0000000  0  8G28G17G10G09G04G02G27G12
 -13444939.74447  -9810836.74745  22444435.1334                   22444435.5124
 -15018935.779 7 -11678449.660 7  21715951.953
 -11051798.82347  -7791934.26344  22647770.1644                   22647771.5554
 -10973609.81847  -8382978.48745  22063208.8054                   22063210.6454
 -25155852.75948 -18874116.88346  19914936.7344                   19914936.6054
 -16933763.70248 -13149309.38146  21608070.1954                   21608068.6644
 -14575828.83147 -10353208.51745  22439175.1884                   22439175.9144
  -3117005.716 7  -2413216.316 6  24100850.875
 11  7 25  0 40  0.0000000  0  8G28G17G10G09G04G02G27G12
 -13374354.53847  -9755835.34944  22457867.6414                   22457867.7704
 -14982798.154 7 -11650290.480 7  21722828.742
 -11139090.65547  -7859953.80744  22631158.9144                   22631160.6414
 -10966762.87947  -8377643.19545  22064512.1094                   22064513.2424
 -25141274.60948 -18862757.28246  19917710.8204                   19917710.4534
 -16996605.21348 -13198276.75046  21596111.1254                   21596110.2854
 -14560230.48947 -10341053.99545  22442143.5314                   22442145.1844
  -3213766.943 7  -2488614.603 6  24082437.820
 11  7 25  0 40 30.0000000  0  8G28G17G10G09G04G02G27G12
 -13303418.23547  -9700560.33944  22471366.0394                   22471366.2074
 -14946573.086 7 -11622063.158 7  21729722.258
 -11226166.58747  -7927805.13644  22614588.9304                   22614590.5554
 -10959290.25447  -8371820.35345  22065933.6094                   22065934.7624
 -25126170.02848 -18850987.47746  19920585.1094                   19920585.2624
 -17059100.24348 -13246974.11846  21584219.1724                   21584217.8914
 -14544172.78747 -10328541.51345  22445199.3524                   22445200.0704
  -3310497.778 6  -2563989.191 6  24064030.648
 11  7 25  0 41  0.0000000  0  8G28G17G10G09G04G02G27G12
 -13232131.08647  -9645011.95144  22484931.7504                   22484932.2854
 -14910259.847 8 -11593767.133 7  21736632.172
 -11313022.52047  -7995485.02444  22598061.2034                   22598062.8674
 -10951192.16247  -8365510.14545  22067474.9384                   22067475.9144
 -25110539.66248 -18838807.96546  19923559.3834                   19923559.5704
 -17121247.17848 -13295400.26346  21572392.7734                   21572391.3714
 -14527656.03647 -10315671.35345  22448342.3284                   22448343.3404
  -3407195.245 6  -2639337.714 6  24045629.859
 11  7 25  0 41 30.0000000  0  8G28G17G10G09G04G02G27G12
 -13160494.11147  -9589190.97144  22498563.5634                   22498563.9344
 -14873858.402 7 -11565402.393 7  21743559.078
 -11399655.47347  -8062991.15044  22581575.1414                   22581576.5594
 -10942469.36547  -8358713.14345  22069135.1094                   22069135.7704
 -25094385.03648 -18826219.94446  19926633.3914                   19926633.4344
 -17183045.21848 -13343554.53046  21560632.9384                   21560631.2894
 -14510681.44147 -10302444.41645  22451572.3914                   22451573.5744
  -3503857.720 6  -2714659.025 6  24027235.195
 11  7 25  0 42  0.0000000  0  8G28G17G10G09G04G02G27G12
 -13088506.79847  -9533097.03144  22512262.2894                   22512263.0784
 -14837367.541 8 -11536967.945 7  21750503.406
 -11486060.89347  -8130319.98545  22565132.4924                   22565134.6804
 -10933121.89247  -8351429.39445  22070913.4304                   22070914.0944
 -25077706.80248 -18813223.91946  19929807.2814                   19929807.3404
 -17244492.51548 -13391435.50746  21548940.0784                   21548938.2464
 -14493249.10347 -10288860.80945  22454889.2194                   22454890.7384
  -3600482.190 7  -2789950.778 6  24008848.164
 11  7 25  0 42 30.0000000  0  8G28G17G10G09G04G02G27G12
 -13016172.44147  -9476732.63945  22526027.1884                   22526027.8444
 -14800789.485 8 -11508465.585 7  21757463.789
 -11572237.73547  -8197470.70645  22548733.6254                   22548735.0664
 -10923153.46447  -8343661.78145  22072810.9304                   22072811.3594
 -25060508.43848 -18799822.58946  19933079.9924                   19933080.2704
 -17305591.07748 -13439044.73546  21537313.2814                   21537311.6174
 -14475362.83847 -10274923.49645  22458293.0314                   22458294.2504
  -3697069.066 7  -2865213.164 6  23990468.266
 11  7 25  0 43  0.0000000  0  8G28G17G10G09G04G02G27G12
 -12943490.02047  -9420097.01344  22539858.0554                   22539858.4264
 -14764122.658 8 -11479894.039 7  21764441.383
 -11658181.35047  -8264439.68745  22532379.1804                   22532381.1374
 -10912563.64047  -8335409.95145  22074825.6414                   22074826.4224
 -25042790.20648 -18786016.16946  19936451.8134                   19936451.4964
 -17366338.20448 -13486380.13646  21525753.7034                   21525751.9534
 -14457022.21247 -10260632.12245  22461782.8134                   22461784.1954
  -3793614.810 7  -2940443.573 6  23972096.391
 11  7 25  0 43 30.0000000  0  8G28G17G10G09G04G02G27G12
 -12870461.07347  -9363191.39044  22553755.1414                   22553755.6414
 -14727367.327 8 -11451253.533 7  21771435.656
 -11743888.66547  -8331224.54444  22516069.7664                   22516071.3754
 -10901353.68447  -8326674.92545  22076958.8204                   22076959.3484
 -25024553.55648 -18771805.78946  19939921.9614                   19939922.0904
 -17426733.71548 -13533441.53646  21514260.4064                   21514258.8874
 -14438228.70447 -10245987.88745  22465359.9534                   22465361.0704
  -3890117.756 7  -3015640.563 6  23953731.828
 11  7 25  0 44  0.0000000  0  8G28G17G10G09G04G02G27G12
 -12797085.00547  -9306015.28344  22567718.0004                   22567718.3554
 -14690522.493 8 -11422543.278 7  21778446.859
 -11829354.98947  -8397821.60445  22499805.9144                   22499807.6884
 -10889523.70447  -8317456.76245  22079210.1094                   22079211.5204
 -25005799.09448 -18757191.92746  19943491.1484                   19943491.0084
 -17486776.02748 -13580227.72346  21502834.6804                   21502833.3484
 -14418982.52547 -10230990.89545  22469022.6024                   22469023.8714
  -3986574.657 7  -3090801.713 6  23935376.984
 11  7 25  0 44 30.0000000  0  8G28G17G10G09G04G02G27G12
 -12723365.36547  -9248571.47044  22581746.3674                   22581746.8594
 -14653590.266 8 -11393764.943 7  21785475.133
 -11914579.50547  -8464230.24445  22483588.2194                   22483589.5824
 -10877077.39047  -8307758.32845  22081578.2194                   22081579.4884
 -24986530.77048 -18742177.65046  19947157.8054                   19947157.6254
 -17546466.63948 -13626739.85746  21491475.9694                   21491474.3284
 -14399287.51047 -10215644.18145  22472769.9774                   22472771.2774
  -4082985.740 7  -3165927.242 6  23917030.680
 11  7 25  0 45  0.0000000  0  8G28G17G10G09G04G02G27G12
 -12649301.08147  -9190859.10044  22595840.2424                   22595841.7154
 -14616569.004 8 -11364917.218 7  21792520.188
 -11999557.16747  -8530446.54545  22467417.3054                   22467419.0864
 -10864014.20847  -8297579.23145  22084064.6334                   22084065.2544
 -24966748.31348 -18726762.74246  19950922.1414                   19950921.9844
 -17605803.08048 -13672976.02046  21480184.6254                   21480183.2074
 -14379142.98847 -10199947.19545  22476603.2734                   22476604.8594
  -4179347.752 7  -3241014.427 6  23898693.781
 11  7 25  0 45 30.0000000  0  8G28G17G10G09G04G02G27G12
 -12574893.82547  -9132879.47744  22609999.3984                   22610000.2974
 -14579458.943 8 -11336000.303 7  21799581.461
 -12084284.99847  -8596468.16845  22451294.3834                   22451295.0314
 -10850336.28947  -8286921.12245  22086667.4304                   22086668.3204
 -24946454.03848 -18710949.02146  19954783.9384                   19954784.1294
 -17664785.50448 -13718936.32246  21468960.6174                   21468958.8754
 -14358551.13747 -10183901.65445  22480522.2344                   22480523.2544
  -4275659.037 6  -3316062.125 6  23880365.969
 11  7 25  0 46  0.0000000  0  8G28G17G10G09G04G02G27G12
 -12500143.84647  -9074632.79644  22624224.6724                   22624225.0744
 -14542259.427 8 -11307013.658 7  21806660.547
 -12168759.47247  -8662292.37145  22435219.1644                   22435220.4304
 -10836044.16847  -8275784.39445  22089386.2424                   22089388.0904
 -24925648.90348 -18694737.21546  19958743.0084                   19958742.9884
 -17723412.55448 -13764619.70346  21457804.1334                   21457802.7584
 -14337512.67247 -10167508.10845  22484526.1254                   22484527.3524
  -4371917.379 6  -3391068.547 6  23862048.344
 11  7 25  0 46 30.0000000  0  8G28G17G10G09G04G02G27G12
 -12425051.92247  -9016119.69944  22638513.6254                   22638514.8014
 -14504970.388 8 -11277957.275 7  21813756.492
 -12252976.66847  -8727916.09045  22419193.2974                   22419194.4924
 -10821138.73947  -8264169.79145  22092223.2114                   22092224.1414
 -24904334.38948 -18678128.50446  19962798.6954                   19962799.0824
 -17781683.42448 -13810025.55646  21446716.1564                   21446714.2464
 -14316028.83047 -10150767.51245  22488614.0554                   22488615.2344
  -4468120.250 6  -3466031.774 6  23843741.250
 11  7 25  0 47  0.0000000  0  8G28G17G10G09G04G02G27G12
 -12349620.47047  -8957342.01345  22652868.2814                   22652869.2854
 -14467593.117 8 -11248832.126 7  21820869.055
 -12336934.98747  -8793338.09445  22403216.4224                   22403217.4804
 -10805622.89047  -8252079.52045  22095175.6024                   22095176.9614
 -24882513.67748 -18661125.34746  19966951.4224                   19966951.2664
 -17839599.10048 -13855154.62546  21435694.7664                   21435693.2664
 -14294102.44547 -10133682.09045  22492786.4384                   22492787.8714
  -4564267.046 6  -3540951.292 6  23825445.672
 11  7 25  0 47 30.0000000  0  8G28G17G10G09G04G02G27G12
 -12273849.33747  -8898299.64744  22667287.1484                   22667286.9734
 -14430126.107 8 -11219637.079 7  21827998.867
 -12420630.02247  -8858554.94644  22387289.3914                   22387291.0864
 -10789497.11247  -8239513.98845  22098244.8524                   22098245.7974
 -24860186.91448 -18643727.87446  19971200.3134                   19971199.6334
 -17897157.60348 -13900005.38346  21424741.8134                   21424739.7074
 -14271733.54747 -10116251.82945  22497042.9534                   22497044.2814
  -4660354.399 6  -3615824.474 6  23807160.742
 11  7 25  0 48  0.0000000  0  8G28G17G10G09G04G02G27G12
 -12197739.08147  -8838993.02144  22681770.4384                   22681770.7074
 -14392568.849 7 -11190371.692 7  21835146.273
 -12504057.77147  -8923563.51444  22371413.7974                   22371415.2664
 -10772762.06647  -8226473.69945  22101429.1804                   22101429.9224
 -24837355.54248 -18625937.17946  19975544.8754                   19975544.6644
 -17954358.13348 -13944577.18946  21413856.5634                   21413854.9384
 -14248923.11047 -10098477.54345  22501384.1484                   22501385.1174
  -4756380.020 6  -3690649.555 6  23788887.125
 11  7 25  0 48 30.0000000  0  8G28G17G10G09G04G02G27G12
 -12121292.03747  -8779423.96844  22696318.0634                   22696318.2034
 -14354922.726 7 -11161037.064 7  21842309.617
 -12587216.49647  -8988362.45745  22355589.3674                   22355590.7424
 -10755420.90447  -8212961.12945  22104729.2034                   22104729.9414
 -24814022.77648 -18607755.79746  19979984.9144                   19979985.1994
 -18011201.71848 -13988870.87146  21403039.7814                   21403038.4654
 -14225674.31947 -10080361.66945  22505807.8594                   22505809.5864
  -4852343.278 6  -3765426.028 6  23770624.969
 11  7 25  0 49  0.0000000  0  8G28G17G10G09G04G02G27G12
 -12044507.99947  -8719592.30544  22710929.2504                   22710929.7424
 -14317186.334 8 -11131632.085 7  21849490.313
 -12670101.61847  -9052948.19145  22339816.4144                   22339817.8134
 -10737473.44047  -8198976.10245  22108144.5234                   22108145.5204
 -24790188.93548 -18589183.96846  19984520.3284                   19984520.2464
 -18067686.26348 -14032884.77446  21392291.2114                   21392289.0204
 -14201987.16147 -10061904.19445  22510315.4304                   22510316.7814
  -4948240.702 7  -3840151.267 6  23752377.641
 11  7 25  0 49 30.0000000  0  8G28G17G10G09G04G02G27G12
 -11967389.44947  -8659500.00044  22725604.8134                   22725605.7544
 -14279360.970 7 -11102157.787 7  21856688.672
 -12752711.24747  -9117319.26845  22324096.3364                   22324097.4734
 -10718923.04447  -8184521.26045  22111674.3444                   22111674.8834
 -24765857.44348 -18570224.35946  19989150.2814                   19989150.3134
 -18123812.93248 -14076619.81246  21381610.4304                   21381609.5944
 -14177865.09347 -10043107.85545  22514905.8674                   22514906.7034
  -5044072.263 7  -3914825.167 6  23734141.516
 11  7 25  0 50  0.0000000  0  8G28G17G10G09G04G02G27G12
 -11889936.00847  -8599146.74844  22740343.5864                   22740344.2504
 -14241445.137 7 -11072612.977 7  21863903.836
 -12835040.59247  -9181471.96845  22308429.4304                   22308430.6524
 -10699769.39547  -8169596.35545  22115319.2894                   22115320.4694
 -24741028.33948 -18550877.00046  19993875.2814                   19993875.4264
 -18179579.44248 -14120074.20046  21370998.6094                   21370996.6994
 -14153307.60447 -10023972.21945  22519578.9224                   22519579.9304
  -5139833.816 7  -3989444.499 6  23715918.641
 11  7 25  0 50 30.0000000  0  8G28G17G10G09G04G02G27G12
 -11812148.70047  -8538533.30144  22755146.1094                   22755146.8794
 -14203438.685 7 -11042997.581 7  21871136.344
 -12917086.76047  -9245403.97345  22292816.7274                   22292818.3284
 -10680014.58147  -8154203.02345  22119078.2034                   22119079.3164
 -24715703.40948 -18531143.28746  19998694.3594                   19998694.2424
 -18234985.42648 -14163247.66946  21360454.9384                   21360453.6214
 -14128316.65647 -10004498.78645  22524335.2034                   22524336.4024
  -5235523.697 7  -4064008.008 6  23697709.242
 11  7 25  0 51  0.0000000  0  8G28G17G10G09G04G02G27G12
 -11734028.72647  -8477660.63844  22770011.8524                   22770012.6334
 -14165341.681 7 -11013311.614 7  21878385.063
 -12998846.48947  -9309112.79845  22277258.4534                   22277260.1054
 -10659660.11047  -8138342.42345  22122951.5634                   22122952.7504
 -24689884.76848 -18511024.85746  20003607.2664                   20003607.9144
 -18290030.84348 -14206140.16946  21349979.8444                   21349978.2624
 -14102893.86347  -9984688.86745  22529172.6884                   22529174.5234
  -5331139.864 6  -4138514.066 6  23679514.383
 11  7 25  0 51 30.0000000  0  8G28G17G10G09G04G02G27G12
 -11655578.01747  -8416530.28044  22784940.5394                   22784940.9654
 -14127154.310 7 -10983555.236 7  21885652.742
 -13080317.19547  -9372596.40845  22261755.0864                   22261756.2664
 -10638708.16247  -8122016.26645  22126938.7664                   22126939.8284
 -24663574.90248 -18490523.66046  20008613.8204                   20008613.9384
 -18344715.75148 -14248751.75346  21339574.0784                   21339572.7384
 -14077041.43347  -9964544.16545  22534092.1564                   22534093.4614
  -5426680.832 6  -4212961.553 6  23661332.984
 11  7 25  0 52  0.0000000  0  8G28G17G10G09G04G02G27G12
 -11576797.53147  -8355142.95444  22799931.5784                   22799932.3524
 -14088876.686 8 -10953728.532 7  21892936.352
 -13161495.19047  -9435851.95345  22246306.9304                   22246308.0004
 -10617160.66047  -8105226.02845  22131038.9694                   22131040.4384
 -24636775.36948 -18469640.90346  20013713.6484                   20013713.8054
 -18399039.68048 -14291082.04946  21329236.3364                   21329234.5434
 -14050761.16247  -9944066.06045  22539093.2894                   22539094.2544
  -5522144.258 6  -4287348.662 6  23643167.508
 11  7 25  0 52 30.0000000  0  8G28G17G10G09G04G02G27G12
 -11497687.29447  -8293498.66744  22814986.0554                   22814986.2074
 -14050507.346 7 -10923830.349 7  21900238.203
 -13242376.21547  -9498876.07945  22230915.7894                   22230917.3054
 -10595017.87447  -8087971.96145  22135253.2814                   22135253.9024
 -24609486.93648 -18448377.18646  20018906.4224                   20018906.6994
 -18453000.70348 -14333129.56146  21318967.8284                   21318966.4844
 -14024053.13447  -9923254.63645  22544176.0864                   22544177.4494
  -5617527.024 6  -4361672.883 6  23625016.367
 11  7 25  0 53  0.0000000  0  8G28G17G10G09G04G02G27G12
 -11418249.26047  -8231598.90944  22830102.8364                   22830103.1564
 -14012047.211 7 -10893861.414 7  21907556.953
 -13322958.32047  -9561667.26945  22215582.1094                   22215582.9964
 -10572282.69047  -8070256.28645  22139579.2114                   22139580.3594
 -24581712.37848 -18426734.67446  20024191.6644                   20024191.9024
 -18506600.00348 -14374895.21346  21308768.2504                   21308766.2584
 -13996920.33447  -9902112.20645  22549338.8674                   22549340.3484
  -5712828.492 6  -4435933.764 6  23606880.805
 11  7 25  0 53 30.0000000  0  8G28G17G10G09G04G02G27G12
 -11338484.49847  -8169444.60944  22845281.4844                   22845281.3444
 -13973495.825 7 -10863821.401 7  21914893.305
 -13403237.65447  -9624222.53845  22200305.0864                   22200306.2114
 -10548956.20447  -8052079.82745  22144018.0084                   22144019.2544
 -24553453.36848 -18404714.66646  20029569.2424                   20029569.2894
 -18559836.55448 -14416378.20146  21298637.8444                   21298636.0514
 -13969363.92847  -9880639.69545  22554582.5084                   22554584.3404
  -5808045.614 7  -4510128.937 6  23588762.344
 11  7 25  0 54  0.0000000  0  8G28G17G10G09G04G02G27G12
 -11258392.99747  -8107035.67444  22860522.2114                   22860522.8984
 -13934851.544 7 -10833708.976 7  21922246.625
 -13483209.76847  -9686538.42845  22185086.7034                   22185087.9454
 -10525039.15647  -8033443.22345  22148569.1954                   22148570.2194
 -24524710.47648 -18382317.61346  20035039.0864                   20035038.8164
 -18612708.53848 -14457577.10646  21288576.7344                   21288574.9494
 -13941384.45647  -9858837.52145  22559906.3914                   22559908.7424
  -5903175.342 7  -4584255.981 6  23570659.461
 11  7 25  0 54 30.0000000  0  8G28G17G10G09G04G02G27G12
 -11177977.79247  -8044374.54344  22875824.7274                   22875826.0084
 -13896116.595 7 -10803525.919 7  21929617.258
 -13562873.50647  -9748614.02545  22169927.6414                   22169928.5634
 -10500535.55947  -8014349.55745  22153231.9694                   22153232.8244
 -24495487.72048 -18359546.64546  20040599.6804                   20040599.8484
 -18665217.75248 -14498493.32846  21278584.2114                   21278582.6094
 -13912985.70347  -9836708.63245  22565311.0704                   22565312.4654
  -5998217.421 7  -4658314.773 6  23552573.492
 11  7 25  0 55  0.0000000  0  8G28G17G10G09G04G02G27G12
 -11097238.32747  -7981460.70244  22891189.2274                   22891189.7504
 -13857289.135 7 -10773270.774 7  21937006.523
 -13642223.87947  -9810445.42545  22154828.0634                   22154828.5864
 -10475445.43547  -7994798.87445  22158006.8134                   22158007.9734
 -24465785.24848 -18336401.86546  20046251.8914                   20046251.7814
 -18717362.31448 -14539125.41846  21268661.4614                   21268659.5204
 -13884167.72247  -9814253.06745  22570795.2274                   22570796.2424
  -6093167.892 6  -4732302.165 6  23534504.617
 11  7 25  0 55 30.0000000  0  8G28G17G10G09G04G02G27G12
 -11016177.17647  -7918296.19744  22906615.1804                   22906615.3404
 -13818369.711 7 -10742943.965 7  21944412.570
 -13721259.04047  -9872031.22645  22139787.0864                   22139788.4534
 -10449771.79447  -7974793.49345  22162892.3364                   22162893.6414
 -24435606.29848 -18312885.80446  20051994.6094                   20051994.9064
 -18769142.96048 -14579473.92046  21258808.1804                   21258805.8794
 -13854933.37247  -9791473.04145  22576358.4924                   22576359.9184
  -6188026.295 7  -4806217.800 6  23516453.813
 11  7 25  0 56  0.0000000  0  8G28G17G10G09G04G02G27G12
 -10934794.73747  -7854881.36044  22922100.6804                   22922102.3404
 -13779357.591 7 -10712544.926 7  21951835.813
 -13799974.81647  -9933368.15245  22124808.3914                   22124809.0434
 -10423515.40047  -7954334.01845  22167889.4614                   22167889.9184
 -24404951.68648 -18288999.10046  20057828.2034                   20057828.3914
 -18820558.31748 -14619537.79046  21249024.0704                   21249022.2854
 -13825283.73347  -9768369.44645  22582000.1954                   22582001.8874
  -6282789.363 7  -4880059.200 6  23498421.906
 11  7 25  0 56 30.0000000  0  8G28G17G10G09G04G02G27G12
 -10853092.16347  -7791217.06544  22937648.8834                   22937649.5824
 -13740252.589 7 -10682073.518 7  21959277.992
 -13878367.87047  -9994453.59445  22109890.6644                   22109891.4844
 -10396678.31647  -7933422.04445  22172995.8834                   22172996.8484
 -24373823.41048 -18264743.30846  20063751.7894                   20063751.7274
 -18871608.35748 -14659316.99446  21239309.4224                   21239307.6564
 -13795220.48647  -9744943.53945  22587720.9384                   22587722.3244
  -6377454.759 7  -4953824.420 6  23480407.242
 11  7 25  0 57  0.0000000  0  8G28G17G10G09G04G02G27G12
 -10771071.72547  -7727305.07344  22953256.8594                   22953257.5744
 -13701055.274 7 -10651530.178 7  21966736.742
 -13956435.79347 -10055285.69245  22095034.2974                   22095035.6684
 -10369263.35747  -7912059.80245  22178212.5234                   22178213.9024
 -24342224.61848 -18240120.88246  20069764.8204                   20069764.9064
 -18922293.59748 -14698811.93946  21229664.4694                   21229662.3984
 -13764746.14646  -9721197.31045  22593520.0474                   22593521.9654
  -6472021.338 7  -5027512.671 6  23462411.273
 11  7 25  0 57 30.0000000  0  8G28G17G10G09G04G02G27G12
 -10688733.23647  -7663145.23144  22968925.4534                   22968925.8364
 -13661764.146 8 -10620913.730 7  21974213.563
 -14034174.17847 -10115861.01945  22080241.8834                   22080242.4414
 -10341271.39447  -7890247.92845  22183539.5864                   22183540.9144
 -24310155.74448 -18215132.16046  20075867.6174                   20075867.4454
 -18972612.40748 -14738021.35446  21220089.0944                   21220087.0514
 -13733861.27147  -9697131.17945  22599397.4064                   22599399.0314
  -6566485.924 7  -5101121.402 6  23444435.836
 11  7 25  0 58  0.0000000  0  8G28G17G10G09G04G02G27G12
 -10606078.66947  -7598739.13944  22984654.2344                   22984655.3364
 -13622379.439 8 -10590224.368 7  21981707.859
 -14111580.34947 -10176177.46745  22065511.7114                   22065512.5984
 -10312704.76247  -7867988.26145  22188975.7584                   22188976.2114
 -24277619.22648 -18189779.03346  20082058.9844                   20082059.0744
 -19022564.80048 -14776945.25346  21210583.0944                   21210581.4774
 -13702568.14547  -9672746.94245  22605352.1174                   22605353.8134
  -6660846.391 7  -5174649.020 6  23426479.430
 11  7 25  0 58 30.0000000  0  8G28G17G10G09G04G02G27G12
 -10523109.16447  -7534087.63544  23000442.7974                   23000443.6294
 -13582901.138 7 -10559462.084 7  21989220.633
 -14188651.15647 -10236232.60045  22050845.6804                   22050846.6094
 -10283565.48147  -7845282.38145  22194520.2974                   22194521.6684
 -24244617.28748 -18164063.24546  20088338.7974                   20088339.3984
 -19072150.84248 -14815583.68346  21201147.3204                   21201145.7424
 -13670868.69247  -9648046.09545  22611384.1954                   22611386.3054
  -6755100.452 7  -5248093.671 6  23408543.453
 11  7 25  0 59  0.0000000  0  8G28G17G10G09G04G02G27G12
 -10439826.31947  -7469191.95244  23016290.8754                   23016291.9964
 -13543328.832 7 -10528626.554 7  21996751.023
 -14265383.84447 -10296024.25145  22036243.7344                   22036245.0864
 -10253855.52747  -7822131.81645  22200174.2424                   22200175.4884
 -24211151.84548 -18137986.27246  20094707.4694                   20094707.6604
 -19121370.39448 -14853936.54646  21191781.2114                   21191779.5124
 -13638764.95946  -9623030.20845  22617493.6024                   22617495.1564
  -6849246.025 7  -5321453.800 6  23390627.539
 11  7 25  0 59 30.0000000  0  8G28G17G10G09G04G02G27G12
 -10356230.78547  -7404052.60744  23032197.6724                   23032199.4184
 -13503662.302 7 -10497717.587 7  22004299.156
 -14341774.36747 -10355549.30045  22021706.7894                   22021708.4494
 -10223576.79947  -7798538.05645  22205936.3284                   22205937.6254
 -24177224.53348 -18111549.41446  20101163.0944                   20101163.4694
 -19170222.61248 -14892003.15946  21182484.3674                   21182483.0904
 -13606258.33247  -9597700.39445  22623679.2584                   22623681.1954
  -6943280.949 7  -5394727.706 6  23372733.711
 11  7 25  1  0  0.0000000  0  8G28G17G10G09G04G02G27G12
 -10272324.17647  -7338670.91244  23048165.4454                   23048166.7424
 -13463901.040 7 -10466734.806 7  22011865.633
 -14417819.53147 -10414805.21045  22007235.8594                   22007236.9574
 -10192731.47147  -7774502.76645  22211805.6024                   22211806.9534
 -24142837.41948 -18084754.27146  20107707.1884                   20107707.3594
 -19218707.47348 -14929783.54046  21173258.6804                   21173256.9534
 -13573350.96847  -9572058.32845  22629941.5474                   22629943.2504
  -7037202.866 7  -5467913.504 6  23354861.016
 11  7 25  1  0 30.0000000  0  9G28G17G10G09G04G02G27G12G05
 -10188108.11647  -7273048.08144  23064191.3594                   23064192.2384
 -13424045.275 7 -10435678.401 7  22019449.891
 -14493516.85947 -10473790.09145  21992831.5864                   21992832.3244
 -10161321.84347  -7750027.77545  22217783.2194                   22217783.9414
 -24107993.10648 -18057602.85746  20114337.5394                   20114337.8794
 -19266824.87948 -14967277.59246  21164101.9774                   21164100.1954
 -13540044.85046  -9546105.54845  22636279.1804                   22636281.2854
  -7131009.545 7  -5541009.561 6  23337010.133
    427017.69317    347346.40516  24693401.664
 11  7 25  1  1  0.0000000  0  9G28G17G10G09G04G02G27G12G05
 -10103587.00647  -7207187.52443  23080275.0634                   23080276.1254
 -13384097.961 7 -10404550.652 7  22027051.875
 -14568866.01347 -10532503.67145  21978492.6804                   21978493.5664
 -10129353.19047  -7725117.16245  22223866.7584                   22223867.5234
 -24072696.82248 -18030099.25546  20121054.2894                   20121054.4844
 -19314577.97248 -15004487.75846  21155014.7814                   21155013.3094
 -13506345.19747  -9519846.11245  22642692.5634                   22642693.7344
  -7224702.585 7  -5614017.013 6  23319181.102
    322148.437 7    265630.319 6  24673445.797
 11  7 25  1  1 30.0000000  0  9G28G17G10G09G04G02G27G12G05
 -10018754.87147  -7141084.62844  23096418.5164                   23096419.6524
 -13344051.370 7 -10373345.544 7  22034672.547
 -14643856.56047 -10590937.82145  21964222.5084                   21964223.6484
 -10096820.25847  -7699766.84445  22230057.1254                   22230058.2974
 -24036942.92948 -18002239.08346  20127857.8364                   20127858.2114
 -19361959.15848 -15041408.12846  21145998.5164                   21145996.7114
 -13472246.33847  -9493275.61745  22649181.0634                   22649182.8404
  -7318272.038 7  -5686928.155 6  23301375.086
    217196.120 7    183849.495 6  24653473.383
 11  7 25  1  2  0.0000000  0  9G28G17G10G09G04G02G27G12G05
  -9933616.53347  -7074743.13244  23112620.2114                   23112620.7704
 -13303908.675 7 -10342065.553 7  22042311.523
 -14718488.80647 -10649092.75745  21950020.5084                   21950021.7894
 -10063728.67047  -7673981.22045  22236354.8134                   22236355.6254
 -24000736.89948 -17974026.59046  20134747.6804                   20134748.2274
 -19408971.41448 -15078041.02146  21137052.4064                   21137050.9224
 -13437753.83046  -9466398.36445  22655745.1024                   22655746.6174
  -7411719.112 7  -5759743.966 6  23283592.273
    112159.479 7    102003.001 6  24633485.359
 11  7 25  1  2 30.0000000  0  9G28G17G10G09G04G02G27G12G05
  -9848174.18747  -7008164.75044  23128878.9454                   23128879.8404
 -13263670.282 7 -10310710.980 7  22049968.828
 -14792760.65647 -10706966.87145  21935887.2664                   21935888.3874
 -10030081.24947  -7647762.46045  22242757.0394                   22242758.4104
 -23964081.87948 -17945464.23346  20141723.2194                   20141723.1954
 -19455615.48048 -15114387.01546  21128176.1024                   21128174.4964
 -13402870.30647  -9439216.45045  22662383.3524                   22662384.5164
  -7505042.180 7  -5832463.152 6  23265833.828
      7040.188 7     20092.070 5  24613481.969
 11  7 25  1  3  0.0000000  0  9G28G17G10G09G04G02G27G12G05
  -9762429.07147  -6941350.40644  23145195.9144                   23145196.8834
 -13223335.780 7 -10279281.516 7  22057643.797
 -14866668.44047 -10764557.30945  21921822.6564                   21921823.9454
  -9995880.05047  -7621112.20845  22249265.6724                   22249267.0004
 -23926979.72548 -17916553.46746  20148783.4844                   20148783.6094
 -19501891.21348 -15150445.98646  21119370.4304                   21119368.6564
 -13367597.59747  -9411731.24945  22669094.6804                   22669096.5474
  -7598239.032 7  -5905083.993 6  23248098.867
    -98159.166 6    -61881.229 4  24593462.836
 11  7 25  1  3 30.0000000  0  9G28G17G10G09G04G02G27G12G05
  -9676381.51947  -6874300.42244  23161570.0394                   23161570.9304
 -13182903.721 7 -10247776.034 7  22065337.813
 -14940207.92447 -10821860.76445  21907828.2664                   21907829.3164
  -9961126.20247  -7594031.29445  22255878.9614                   22255880.6484
 -23889431.21648 -17887294.88446  20155928.6564                   20155928.8164
 -19547797.30548 -15186216.92946  21110634.1334                   21110632.8484
 -13331936.56047  -9383943.47745  22675881.5234                   22675882.7814
  -7691306.122 7  -5977603.701 6  23230388.961
   -203434.476 6   -143913.746 5  24573429.125
 11  7 25  1  4  0.0000000  0  9G28G17G10G09G04G02G27G12G05
  -9590033.86247  -6807016.59444  23178001.1484                   23178002.8554
 -13142375.208 7 -10216195.375 7  22073050.500
 -15013377.15347 -10878875.69845  21893904.5704                   21893906.2344
  -9925823.26147  -7566522.53645  22262597.5554                   22262598.0434
 -23851439.60948 -17857691.04046  20163158.1414                   20163158.3204
 -19593334.53648 -15221700.45746  21101968.8284                   21101967.0664
 -13295890.21547  -9355855.45645  22682740.8204                   22682742.4184
  -7784242.082 7  -6050021.258 6  23212703.438
   -308784.532 6   -226004.457 5  24553381.148
 11  7 25  1  4 30.0000000  0  8G28G17G10G09G04G02G27G12
  -9503385.02347  -6739498.08744  23194490.3364                   23194492.1684
 -13101747.216 7 -10184537.212 7  22080781.359
 -15086170.93047 -10935598.06145  21880052.6804                   21880053.8444
  -9889971.20747  -7538585.90445  22269419.8134                   22269420.7034
 -23813004.82148 -17827741.86246  20170472.2974                   20170472.4144
 -19638500.46748 -15256894.65346  21093374.3204                   21093372.1994
 -13259458.51347  -9327467.15045  22689673.5004                   22689674.8094
  -7877042.368 7  -6122333.094 6  23195043.508
 11  7 25  1  5  0.0000000  0  9G28G17G10G09G04G02G27G12G05
  -9416443.13547  -6671751.17244  23211034.5474                   23211036.2304
 -13061025.943 7 -10152806.350 7  22088530.641
 -15158592.05647 -10992030.05745  21866271.1644                   21866272.6644
  -9853578.24447  -7510227.76145  22276345.8674                   22276345.9224
 -23774135.16448 -17797453.81646  20177869.0784                   20177868.9964
 -19683301.42448 -15291804.45546  21084848.7664                   21084847.3984
 -13222649.46747  -9298784.80845  22696678.0864                   22696679.6914
  -7969710.901 7  -6194542.268 6  23177409.852
   -140713.21616    -81462.09216  24513246.109
 11  7 25  1  5 30.0000000  0  9G28G17G10G09G04G02G27G12G05
  -9329203.56547  -6603772.34044  23227635.7814                   23227637.0664
 -13020205.094 7 -10120997.904 7  22096298.344
 -15230631.19747 -11048164.40145  21852562.4844                   21852563.3324
  -9816640.88347  -7481445.42045  22283373.8054                   22283374.2664
 -23734826.83948 -17766823.94746  20185349.2114                   20185349.2274
 -19727730.96248 -15326424.84846  21076393.9694                   21076392.5004
 -13185459.20047  -9269805.40144  22703755.0784                   22703756.3794
  -8062239.376 7  -6266642.328 6  23159802.219
   -246271.668 7   -163715.152 6  24493158.641
 11  7 25  1  6  0.0000000  0  9G28G17G10G09G04G02G27G12G05
  -9241668.74647  -6535563.41844  23244292.5944                   23244294.4924
 -12979285.461 7 -10089112.482 7  22104085.523
 -15302286.70047 -11103999.81245  21838927.4694                   21838928.0044
  -9779162.60847  -7452241.59645  22290505.9774                   22290507.4184
 -23695082.80648 -17735854.57546  20192911.6954                   20192911.8674
 -19771790.36948 -15360756.82546  21068010.0164                   21068008.1254
 -13147890.91347  -9240531.43144  22710903.3054                   22710905.4694
  -8154626.902 7  -6338632.559 6  23142221.531
   -351893.865 7   -246017.897 6  24473058.945
 11  7 25  1  6 30.0000000  0  9G28G17G10G09G04G02G27G12G05
  -9153840.60646  -6467125.96944  23261006.3754                   23261008.0394
 -12938266.818 7 -10057149.887 7  22111891.055
 -15373555.68547 -11159534.04445  21825364.8834                   21825366.1094
  -9741146.02846  -7422618.31045  22297740.4774                   22297740.9184
 -23654905.75848 -17704547.78046  20200557.4304                   20200557.5664
 -19815479.78748 -15394800.50146  21059696.1254                   21059694.1174
 -13109946.94647  -9210964.73244  22718124.7504                   22718126.2704
  -8246871.376 7  -6410511.321 6  23124668.172
   -457577.326 7   -328368.380 6  24452947.953
 11  7 25  1  7  0.0000000  0  9G28G17G10G09G04G02G27G12G05
  -9065721.47446  -6398461.72043  23277774.9774                   23277775.8364
 -12897149.832 7 -10025110.676 7  22119715.195
 -15444436.12947 -11214765.51445  21811877.1174                   21811878.0234
  -9702594.33947  -7392578.07145  22305076.1174                   22305076.8094
 -23614298.68948 -17672905.91446  20208284.8134                   20208284.9494
 -19858800.17548 -15428556.62946  21051452.5474                   21051450.5704
 -13071630.33047  -9181107.63645  22725416.0864                   22725417.8984
  -8338971.293 7  -6482277.427 6  23107141.688
   -563319.836 7   -410764.894 6  24432825.906
 11  7 25  1  7 30.0000000  0  9G28G17G10G09G04G02G27G12G05
  -8977311.63146  -6329570.96243  23294599.1024                   23294599.7194
 -12855933.039 7  -9992993.684 7  22127558.398
 -15514923.55747 -11269690.73145  21798463.3594                   21798464.6484
  -9663508.98647  -7362121.97245  22312514.3284                   22312515.2154
 -23573262.74548 -17640929.85846  20216093.5704                   20216093.4144
 -19901750.12848 -15462024.10046  21043279.2814                   21043277.7584
 -13032941.93447  -9150960.85845  22732778.3444                   22732779.7234
  -8430922.974 7  -6553928.067 6  23089643.992
   -669117.952 6   -493204.771 7  24412693.414
 11  7 25  1  8  0.0000000  0  9G28G17G10G09G04G02G27G12G05
  -8888613.27747  -6260455.41843  23311477.4614                   23311479.0084
 -12814616.935 7  -9960799.317 7  22135420.273
 -15585015.96647 -11324308.14145  21785125.4144                   21785126.3794
  -9623892.99547  -7331252.38745  22320052.4534                   22320054.0634
 -23531800.63048 -17608621.72446  20223983.8204                   20223983.7234
 -19944330.46348 -15495203.56346  21035176.6414                   21035174.5784
 -12993884.54847  -9120526.55045  22740210.6024                   22740212.5784
  -8522724.765 7  -6625461.898 6  23072174.508
   -774970.386 6   -575686.969 7  24392549.945
 11  7 25  1  8 30.0000000  0  9G28G17G10G09G04G02G27G12G05
  -8799627.76947  -6191116.07343  23328411.1414                   23328411.9844
 -12773200.957 7  -9928527.133 7  22143301.641
 -15654710.30447 -11378615.37845  21771863.0004                   21771863.6564
  -9583748.65847  -7299971.10245  22327691.5554                   22327693.1644
 -23489914.39948 -17575983.11046  20231954.0554                   20231954.1604
 -19986540.96148 -15528094.84846  21027144.3754                   21027142.6134
 -12954460.14147  -9089806.24645  22747712.2814                   22747714.2194
  -8614374.395 7  -6696877.161 6  23054734.453
   -880873.912 6   -658208.986 6  24372396.391
 11  7 25  1  9  0.0000000  0  9G28G17G10G09G04G02G27G12G05
  -8710355.92346  -6121553.62743  23345399.3284                   23345399.8674
 -12731683.948 7  -9896176.207 7  22151201.977
 -15724002.31547 -11432609.10145  21758676.8284                   21758677.8794
  -9543077.59947  -7268279.39445  22335431.3754                   22335432.5984
 -23447605.67748 -17543015.28146  20240005.3674                   20240005.8134
 -20028380.97148 -15560697.43446  21019182.2344                   21019180.6054
 -12914670.14947  -9058801.09045  22755284.9924                   22755286.5044
  -8705868.873 7  -6768171.517 6  23037323.180
   -986825.121 5   -740768.138 6  24352234.359
 11  7 25  1  9 30.0000000  0  9G28G17G10G09G04G02G27G12G05
  -8620799.72746  -6051769.59443  23362441.2664                   23362441.8364
 -12690066.251 7  -9863746.840 7  22159121.414
 -15792889.37647 -11486287.28245  21745568.3444                   21745569.1214
  -9501883.04247  -7236179.76345  22343270.3754                   22343272.0594
 -23404877.03048 -17509720.23546  20248136.2274                   20248136.0394
 -20069850.78848 -15593011.56146  21011290.7504                   21011288.7074
 -12874517.28747  -9027513.14944  22762925.1804                   22762927.2934
  -8797206.023 7  -6839343.289 6  23019942.391
  -1092822.091 5   -823362.932 6  24332063.227
 11  7 25  1 10  0.0000000  0  9G28G17G10G09G04G02G27G12G05
  -8530960.49147  -5981765.02943  23379537.0474                   23379537.3284
 -12648346.677 7  -9831238.095 7  22167060.500
 -15861368.18347 -11539647.35945  21732537.3444                   21732538.1294
  -9460166.76947  -7203673.60145  22351208.1644                   22351210.7304
 -23361729.97048 -17476099.15546  20256346.9924                   20256347.3364
 -20110949.74148 -15625036.69846  21003469.5704                   21003467.8554
 -12834003.02747  -8995943.60544  22770634.9844                   22770636.5514
  -8888382.984 7  -6910390.242 6  23002591.703
  -1198861.107 6   -905990.532 6  24311884.688
 11  7 25  1 10 30.0000000  0  9G28G17G10G09G04G02G27G12G05
  -8440841.05347  -5911542.06643  23396686.2274                   23396686.1564
 -12606526.586 7  -9798651.016 7  22175019.063
 -15929437.20947 -11592688.10945  21719583.9844                   21719584.9964
  -9417932.72847  -7170763.95945  22359245.8054                   22359246.8364
 -23318168.32248 -17442155.02046  20264636.6884                   20264636.6024
 -20151679.53848 -15656774.18346  20995719.3914                   20995717.5234
 -12793131.18746  -8964095.44644  22778412.7584                   22778414.5554
  -8979398.597 7  -6981311.475 6  22985272.414
  -1304941.103 6   -988650.121 6  24291698.945
 11  7 25  1 11  0.0000000  0  9G28G17G10G09G04G02G27G12G05
  -8350442.69747  -5841101.80643  23413887.7894                   23413888.3794
 -12564605.469 7  -9765985.232 7  22182996.180
 -15997093.23247 -11645407.04845  21706709.4224                   21706710.1524
  -9375183.29347  -7137452.73945  22367380.3984                   22367381.9804
 -23274194.30248 -17407889.55046  20273004.3204                   20273004.4104
 -20192039.98248 -15688223.86146  20988039.0474                   20988036.9734
 -12751903.84546  -8931970.26844  22786258.2274                   22786259.2854
  -9070250.577 7  -7052105.175 6  22967983.719
  -1411059.283 6  -1071339.478 6  24271505.117
 11  7 25  1 11 30.0000000  0  9G28G17G10G09G04G02G27G12G05
  -8259765.51147  -5770444.28844  23431143.9454                   23431144.5904
 -12522581.135 7  -9733239.014 7  22190993.117
 -16064331.48747 -11697800.44145  21693914.7344                   21693915.4224
  -9331919.52747  -7103740.72545  22375613.7114                   22375614.8714
 -23229808.13748 -17373302.94246  20281450.9844                   20281451.2034
 -20232029.62048 -15719384.59646  20980429.0474                   20980427.2854
 -12710321.52847  -8899568.48244  22794170.5004                   22794172.5704
  -9160935.086 7  -7122768.384 6  22950726.891
  -1517211.677 6  -1154055.434 6  24251304.555
 11  7 25  1 12  0.0000000  0  9G28G17G10G09G04G02G27G12G05
  -8168811.86047  -5699571.31944  23448451.3984                   23448452.6684
 -12480454.106 7  -9700412.788 7  22199009.336
 -16131150.15647 -11749866.89045  21681199.2734                   21681199.9384
  -9288144.77947  -7069630.52345  22383943.4614                   22383945.0514
 -23185013.12448 -17338397.74946  20289975.0704                   20289975.3874
 -20271649.22848 -15750256.99746  20972889.4694                   20972887.8444
 -12668387.12746  -8866892.32644  22802150.8284                   22802152.2544
  -9251450.185 7  -7193299.593 6  22933502.453
  -1623396.499 6  -1236796.655 6  24231098.406
 11  7 25  1 12 30.0000000  0  9G28G17G10G09G04G02G27G12G05
  -8077582.91647  -5628483.85944  23465812.4614                   23465813.1054
 -12438223.807 7  -9667506.086 7  22207046.203
 -16197545.48447 -11801603.46045  21668564.9144                   21668565.1604
  -9243861.31647  -7035123.95045  22392370.4454                   22392371.8594
 -23139811.13348 -17303175.42846  20298576.5164                   20298576.5354
 -20310898.42648 -15780840.77046  20965420.9144                   20965418.8874
 -12626102.50246  -8833943.29945  22810196.8284                   22810199.5004
  -9341793.524 7  -7263696.928 6  22916310.813
  -1729609.828 6  -1319560.087 6  24210885.352
 11  7 25  1 13  0.0000000  0  9G28G17G10G09G04G02G27G12G05
  -7986081.03346  -5557183.74244  23483223.1484                   23483225.1414
 -12395890.282 7  -9634518.955 7  22215101.359
 -16263515.57847 -11853008.68645  21656011.3984                   21656011.3324
  -9199072.55547  -7000223.62044  22400893.5394                   22400894.5944
 -23094205.07448 -17267638.25746  20307255.3594                   20307255.3834
 -20349777.98648 -15811136.51546  20958022.3134                   20958020.5824
 -12583470.57146  -8800723.64044  22818310.1094                   22818311.1454
  -9431963.022 7  -7333958.840 7  22899151.828
  -1835850.469 6  -1402344.762 6  24190668.828
 11  7 25  1 13 30.0000000  0  9G28G17G10G09G04G02G27G12G05
  -7894307.97046  -5485672.29143  23500687.7034                   23500689.4844
 -12353453.048 7  -9601451.023 7  22223177.492
 -16329057.28347 -11904080.09245  21643539.0474                   21643539.7114
  -9153780.56747  -6964931.16244  22409512.0314                   22409513.3834
 -23048196.93148 -17231787.75946  20316010.0704                   20316010.4534
 -20388288.01048 -15841144.31746  20950694.0554                   20950691.9964
 -12540493.37547  -8767234.94945  22826488.2194                   22826489.5864
  -9521955.875 7  -7404083.115 7  22882026.891
  -1942115.564 6  -1485148.585 6  24170447.563
 11  7 25  1 14  0.0000000  0  9G28G17G10G09G04G02G27G12G05
  -7802264.29646  -5413949.95643  23518202.4454                   23518204.4224
 -12310910.841 7  -9568301.269 7  22231272.742
 -16394166.63147 -11954814.59045  21631148.5164                   21631149.6644
  -9107987.30247  -6929248.10944  22418225.9774                   22418227.3754
 -23001788.05248 -17195625.00846  20324841.5164                   20324841.6254
 -20426427.65348 -15870863.49046  20943436.1884                   20943434.2114
 -12497172.42746  -8733478.39444  22834731.8984                   22834733.8054
  -9611769.313 7  -7474067.554 7  22864936.461
  -2048401.404 6  -1567968.536 6  24150221.656
 11  7 25  1 14 30.0000000  0  9G28G17G10G09G04G02G27G12G05
  -7709952.97846  -5342019.09543  23535768.6254                   23535770.6294
 -12268265.004 7  -9535070.788 7  22239388.391
 -16458842.68247 -12005211.46545  21618840.9924                   21618842.0784
  -9061697.22947  -6893177.91645  22427035.4844                   22427037.0434
 -22954982.56548 -17159153.20846  20333748.2584                   20333748.3054
 -20464198.71648 -15900295.47346  20936248.8914                   20936247.3284
 -12453511.53347  -8699456.96744  22843039.8444                   22843042.0394
  -9701402.411 7  -7543911.467 7  22847879.383
  -2154706.773 6  -1650803.759 6  24129992.219
 11  7 25  1 15  0.0000000  0  9G28G17G10G09G04G02G27G12G05
  -7617374.85746  -5269880.32243  23553386.2974                   23553388.1484
 -12225514.169 7  -9501758.474 7  22247523.203
 -16523081.52047 -12055267.64545  21606617.0394                   21606617.4304
  -9014911.94747  -6856721.84044  22435937.7424                   22435939.8914
 -22907781.64648 -17122373.28646  20342730.4774                   20342730.6564
 -20501600.30448 -15929439.54946  20929131.5004                   20929129.6134
 -12409512.09647  -8665171.70744  22851412.9064                   22851414.9654
  -9790851.613 7  -7613612.093 7  22830857.719
  -2261028.051 6  -1733651.346 6  24109760.008
 11  7 25  1 15 30.0000000  0  9G28G17G10G09G04G02G27G12G05
  -7524530.68246  -5197534.26243  23571053.9694                   23571056.3524
 -12182656.824 7  -9468363.165 7  22255678.391
 -16586878.91947 -12104979.85445  21594476.5634                   21594477.3794
  -8967633.14447  -6819881.22045  22444934.7974                   22444935.4774
 -22860186.30448 -17085286.00846  20351787.4144                   20351787.9964
 -20538631.18948 -15958294.76646  20922084.8594                   20922082.7234
 -12365175.29247  -8630623.61844  22859850.6564                   22859852.0904
  -9880113.498 7  -7683166.731 7  22813871.852
  -2367361.338 6  -1816508.289 6  24089525.758
 11  7 25  1 16  0.0000000  0  9G28G17G10G09G04G02G27G12G05
  -7431423.81146  -5124983.47343  23588771.7504                   23588773.2704
 -12139694.287 7  -9434885.890 7  22263854.078
 -16650233.63648 -12154347.10545  21582420.2504                   21582421.3954
  -8919865.14047  -6782659.41445  22454024.8984                   22454026.1094
 -22812200.63548 -17047894.59246  20360918.7974                   20360918.8914
 -20575293.42348 -15986862.71246  20915107.9844                   20915105.9024
 -12320505.15046  -8595815.75644  22868351.2344                   22868352.6174
  -9969187.143 7  -7752574.734 7  22796921.383
  -2473705.660 6  -1899373.799 6  24069288.781
 11  7 25  1 16 30.0000000  0  9G28G17G10G09G04G02G27G12G05
  -7338055.17246  -5052228.67643  23606539.5164                   23606540.7704
 -12096625.447 7  -9401325.793 7  22272049.672
 -16713142.01847 -12203366.57945  21570449.2344                   21570450.2664
  -8871610.31647  -6745058.22745  22463207.6884                   22463209.3364
 -22763826.31448 -17010200.32146  20370124.1804                   20370124.4774
 -20611586.67848 -16015143.15246  20908201.5784                   20908199.7154
 -12275503.29347  -8560749.41144  22876914.3984                   22876916.2344
 -10058069.659 7  -7821833.783 7  22780007.500
  -2580057.606 7  -1982245.264 6  24049050.227
 11  7 25  1 17  0.0000000  0  9G28G17G10G09G04G02G27G12G05
  -7244426.47246  -4979271.23843  23624356.0314                   23624356.7704
 -12053449.762 7  -9367682.412 7  22280266.117
 -16775601.57747 -12252036.30545  21558564.0634                   21558564.8524
  -8822871.33847  -6707079.82045  22472481.2274                   22472482.9184
 -22715065.61648 -16972204.97646  20379403.3834                   20379403.8054
 -20647510.91648 -16043136.03246  20901365.6414                   20901363.3524
 -12230171.82847  -8525426.25744  22885541.0164                   22885542.9184
 -10146758.311 7  -7890941.786 7  22763130.523
  -2686414.393 6  -2065120.486 6  24028810.664
 11  7 25  1 17 30.0000000  0  9G28G17G10G09G04G02G27G12G05
  -7150539.51446  -4906112.55343  23642222.1954                   23642223.0434
 -12010166.621 8  -9333955.309 7  22288502.813
 -16837609.08247 -12300353.78945  21546764.0084                   21546764.8054
  -8773650.91747  -6668726.24944  22481847.7034                   22481849.8204
 -22665920.79048 -16933910.30546  20388755.1254                   20388755.3714
 -20683066.25548 -16070841.46246  20894599.5234                   20894597.3204
 -12184513.22946  -8489848.16444  22894229.5004                   22894231.2274
 -10235250.753 7  -7959896.901 7  22746291.102
  -2792772.854 7  -2147997.057 6  24008571.461
 11  7 25  1 18  0.0000000  0  9G28G17G10G09G04G02G27G12G05
  -7056395.35846  -4832753.46643  23660138.0084                   23660138.5084
 -11966775.675 7  -9300144.185 7  22296759.750
 -16899161.77447 -12348316.88645  21535050.6884                   21535051.8634
  -8723951.34647  -6629999.29945  22491305.9144                   22491307.6764
 -22616393.70348 -16895317.78146  20398179.9304                   20398180.1724
 -20718252.49148 -16098259.28446  20887904.0634                   20887901.8954
 -12138529.59346  -8454016.81244  22902979.5164                   22902981.7584
 -10323544.160 7  -8028696.911 7  22729489.008
  -2899130.405 7  -2230872.890 6  23988332.227
 11  7 25  1 18 30.0000000  0  9G28G17G10G09G04G02G27G12G05
  -6961996.25746  -4759195.76043  23678100.7194                   23678101.3954
 -11923276.272 7  -9266248.566 7  22305037.148
 -16960256.70447 -12395923.28345  21523425.0474                   21523425.2584
  -8673775.60947  -6590901.34145  22500853.8984                   22500855.8054
 -22566486.68548 -16856429.19046  20407676.5084                   20407677.1174
 -20753070.15748 -16125389.91246  20881278.1644                   20881276.1174
 -12092223.43547  -8417934.14044  22911791.7664                   22911793.3524
 -10411636.357 7  -8097340.144 7  22712726.031
  -3005484.460 6  -2313746.017 6  23968093.906
 11  7 25  1 19  0.0000000  0  9G28G17G10G09G04G02G27G12G05
  -6867342.81346  -4685439.78543  23696113.2424                   23696113.6884
 -11879667.664 7  -9232267.859 7  22313335.680
 -17020890.26147 -12443170.17245  21511886.8204                   21511886.9414
  -8623125.80547  -6551433.96445  22510491.9614                   22510493.5864
 -22516201.39248 -16817245.83846  20417245.8204                   20417245.9804
 -20787518.71048 -16152232.90646  20874722.8284                   20874721.0314
 -12045596.30546  -8381601.37844  22920664.8674                   22920666.4884
 -10499523.981 7  -8165823.973 6  22696001.445
  -3111831.528 6  -2396613.701 6  23947856.227
 11  7 25  1 19 30.0000000  0  9G28G17G10G09G04G02G27G12G05
  -6772439.42246  -4611489.11343  23714171.9844                   23714173.3444
 -11835951.921 8  -9198203.635 7  22321654.422
 -17081062.70947 -12490057.74945  21500435.8594                   21500436.7894
  -8572007.39647  -6511601.46845  22520219.4534                   22520221.3714
 -22465543.04948 -16777771.80346  20426885.6254                   20426886.1524
 -20821601.11148 -16178790.60546  20868237.2664                   20868235.3834
 -11998653.30146  -8345022.47244  22929597.3594                   22929599.7154
 -10587207.392 7  -8234148.668 7  22679315.742
  -3218171.240 6  -2479475.645 6  23927620.102
 11  7 25  1 20  0.0000000  0  9G28G17G10G09G04G02G27G12G05
  -6677285.16946  -4537342.98443  23732279.5164                   23732280.9924
 -11792125.568 7  -9164053.249 7  22329994.453
 -17140767.90047 -12536581.23245  21489075.1564                   21489075.5944
  -8520420.07047  -6471403.55745  22530036.5394                   22530038.1564
 -22414510.54148 -16738006.20846  20436596.3594                   20436596.9104
 -20855314.34748 -16205060.62646  20861821.6644                   20861819.9144
 -11951393.64747  -8308196.83044  22938590.4144                   22938592.3444
 -10674680.591 7  -8302309.606 6  22662670.305
  -3324497.786 7  -2562327.344 6  23907387.109
 11  7 25  1 20 30.0000000  0  9G28G17G10G09G04G02G27G12G05
  -6581884.09846  -4463004.52843  23750434.1954                   23750434.7974
 -11748190.328 7  -9129818.022 7  22338354.781
 -17200005.58047 -12582740.41745  21477802.5164                   21477802.8874
  -8468369.21147  -6430844.48145  22539941.8054                   22539943.0784
 -22363108.65748 -16697952.80046  20446378.3054                   20446378.7274
 -20888661.22448 -16231045.17246  20855476.1724                   20855474.1914
 -11903822.13746  -8271128.18544  22947643.4614                   22947644.8834
 -10761943.645 7  -8370306.767 7  22646064.906
  -3430810.514 7  -2645168.287 6  23887156.516
 11  7 25  1 21  0.0000000  0  9G28G17G10G09G04G02G27G12G05
  -6486237.18846  -4388474.49943  23768634.7424                   23768636.1254
 -11704144.891 7  -9095496.907 7  22346736.664
 -17258772.02547 -12628532.41345  21466619.4924                   21466620.2344
  -8415856.96747  -6389925.86245  22549934.6024                   22549936.0434
 -22311339.01648 -16657612.81746  20456229.6954                   20456230.0234
 -20921641.17248 -16256743.81446  20849200.0554                   20849197.9654
 -11855940.19847  -8233817.65744  22956755.5634                   22956757.3524
 -10848993.441 7  -8438137.740 7  22629499.391
  -3537106.387 7  -2727996.106 6  23866928.773
 11  7 25  1 21 30.0000000  0  9G28G17G10G09G04G02G27G12G05
  -6390344.20446  -4313752.76443  23786882.8134                   23786883.3984
 -11659987.596 7  -9061088.627 7  22355139.367
 -17317062.86847 -12673953.80345  21455527.1094                   21455527.4924
  -8362884.49047  -6348648.62644  22560014.8134                   22560015.6994
 -22259202.37248 -16616986.85446  20466150.8134                   20466151.0234
 -20954252.66048 -16282155.33346  20842994.4614                   20842992.0664
 -11807748.70646  -8196265.89244  22965925.1644                   22965927.5204
 -10935825.670 7  -8505799.227 7  22612975.945
  -3643380.582 7  -2810807.009 6  23846705.672
 11  7 25  1 22  0.0000000  0  9G28G17G10G09G04G02G27G12G05
  -6294209.28246  -4238842.53443  23805177.0704                   23805177.7034
 -11615719.691 7  -9026594.163 7  22363562.984
 -17374877.64547 -12719004.24645  21444525.0004                   21444525.2114
  -8309457.11747  -6307016.95045  22570181.5314                   22570183.0784
 -22206702.91648 -16576078.18046  20476141.0944                   20476141.6254
 -20986497.88748 -16307281.46046  20836858.0314                   20836856.1454
 -11759252.28147  -8158476.54544  22975153.9694                   22975156.6254
 -11022439.779 7  -8573290.702 7  22596493.727
  -3749632.281 7  -2893600.456 6  23826486.297
 11  7 25  1 22 30.0000000  0  9G28G17G10G09G04G02G27G12G05
  -6197832.37046  -4163743.72843  23823517.0004                   23823518.0514
 -11571339.440 7  -8992012.131 7  22372008.406
 -17432212.33947 -12763680.57545  21433614.5164                   21433615.0944
  -8255576.14247  -6265031.79744  22580434.8984                   22580436.0664
 -22153841.49948 -16534887.46046  20486200.8364                   20486200.8404
 -21018375.95248 -16332121.48146  20830792.0554                   20830790.1414
 -11710451.83446  -8120450.26644  22984440.9144                   22984442.8984
 -11108832.082 7  -8640609.365 7  22580054.039
  -3855857.310 7  -2976373.064 6  23806272.148
 11  7 25  1 23  0.0000000  0  9G28G17G10G09G04G02G27G12G05
  -6101217.55846  -4088459.53443  23841901.7584                   23841903.0944
 -11526848.102 7  -8957343.533 7  22380474.813
 -17489065.39647 -12807981.61345  21422795.5634                   21422796.3014
  -8201246.06047  -6222696.71145  22590773.5234                   22590775.2814
 -22100622.35748 -16493418.00246  20496327.6024                   20496328.3324
 -21049889.12348 -16356677.17346  20824794.9064                   20824793.1604
 -11661351.54947  -8082190.37144  22993783.9064                   22993786.6334
 -11195001.720 7  -8707754.517 7  22563656.430
  -3962054.728 7  -3059124.182 6  23786063.836
 11  7 25  1 23 30.0000000  0  9G28G17G10G09G04G02G27G12G05
  -6004365.09646  -4012990.13143  23860333.4694                   23860333.4574
 -11482243.766 8  -8922586.905 7  22388963.328
 -17545433.15547 -12851904.50145  21412069.1644                   21412069.7734
  -8146468.36547  -6180012.83645  22601197.5704                   22601198.7464
 -22047046.08448 -16451670.25646  20506522.9224                   20506523.4494
 -21081036.05848 -16380947.49246  20818868.2974                   20818865.8834
 -11611952.50347  -8043697.66244  23003184.7734                   23003186.2934
 -11280944.619 7  -8774722.998 7  22547302.000
  -4068220.035 7  -3141850.266 6  23765861.094
 11  7 25  1 24  0.0000000  0  9G28G17G10G09G04G02G27G12G05
  -5907277.30946  -3937337.38043  23878808.0944                   23878809.6644
 -11437526.426 7  -8887742.252 7  22397472.359
 -17601313.53047 -12895447.60345  21401435.3914                   21401436.3484
  -8091246.38447  -6136982.76045  22611706.2424                   22611707.9224
 -21993115.67048 -16409646.56146  20516785.6094                   20516785.9964
 -21111817.51248 -16404933.01746  20813010.6954                   20813008.7854
 -11562257.66047  -8004974.48144  23012641.1804                   23012643.2814
 -11366658.691 7  -8841513.169 7  22530991.203
  -4174351.072 7  -3224549.604 6  23745664.086
 11  7 25  1 24 30.0000000  0  9G28G17G10G09G04G02G27G12G05
  -5809955.68346  -3861502.41043  23897327.7894                   23897329.2624
 -11392695.388 7  -8852808.985 7  22406003.695
 -17656703.58347 -12938608.63645  21390895.4304                   21390895.6174
  -8035583.13647  -6093608.84445  22622298.1334                   22622299.6914
 -21938833.30948 -16367348.62246  20527115.0004                   20527115.5944
 -21142233.56248 -16428633.81746  20807222.7424                   20807220.5274
 -11512269.23547  -7966022.52744  23022153.1804                   23022155.8204
 -11452141.321 7  -8908122.972 7  22514724.086
  -4280444.683 7  -3307219.823 6  23725475.961
 11  7 25  1 25  0.0000000  0  9G28G17G10G09G04G02G27G12G05
  -5712401.66546  -3785486.36343  23915891.5784                   23915892.8874
 -11347749.822 7  -8817786.472 7  22414556.398
 -17711600.74047 -12981385.59745  21380448.5164                   21380449.1804
  -7979481.52447  -6049893.33945  22632974.3524                   22632975.9964
 -21884201.02848 -16324778.01246  20537511.1724                   20537511.7274
 -21172284.32248 -16452049.97046  20801504.2344                   20801501.9534
 -11461989.42747  -7926843.52944  23031721.4454                   23031723.7194
 -11537389.625 7  -8974550.214 7  22498501.883
  -4386497.843 7  -3389858.495 6  23705294.813
 11  7 25  1 25 30.0000000  0  9G28G17G10G09G04G02G27G12G05
  -5614617.54446  -3709290.97643  23934499.3754                   23934500.8554
 -11302689.725 7  -8782674.734 7  22423130.992
 -17766002.57848 -13023776.58745  21370096.1414                   21370097.0944
  -7922944.67247  -6005838.68944  22643732.5944                   22643733.9694
 -21829221.47148 -16281936.80546  20547973.6174                   20547973.8714
 -21201970.60048 -16475182.11446  20795855.3054                   20795853.2154
 -11411421.11247  -7887439.71244  23041344.9774                   23041347.1454
 -11622401.687 7  -9040793.336 7  22482324.930
  -4492508.069 7  -3472463.743 6  23685121.750
 11  7 25  1 26  0.0000000  0  9G28G17G10G09G04G02G27G12G05
  -5516605.46746  -3632917.97343  23953150.4774                   23953151.6094
 -11257515.138 7  -8747473.761 7  22431727.719
 -17819906.87048 -13065779.89046  21359838.5164                   21359838.8634
  -7865975.84347  -5961447.43744  22654573.1414                   22654574.8754
 -21773897.20448 -16238826.98746  20558501.2504                   20558501.7034
 -21231293.10348 -16498030.79946  20790274.8914                   20790272.8794
 -11360566.97947  -7847813.17344  23051021.1884                   23051024.1564
 -11707175.187 7  -9106850.573 7  22466192.953
  -4598472.705 7  -3555033.464 6  23664956.516
 11  7 25  1 26 30.0000000  0  9G28G17G10G09G04G02G27G12G05
  -5418367.28846  -3556368.78343  23971844.1954                   23971845.6884
 -11212225.104 7  -8712182.849 7  22440346.305
 -17873310.99948 -13107393.44545  21349676.0474                   21349676.6094
  -7808578.12647  -5916721.99944  22665496.0864                   22665497.3524
 -21718230.69648 -16195450.48946  20569094.7894                   20569095.0784
 -21260252.18248 -16520596.30146  20784764.4064                   20784762.5234
 -11309429.46447  -7807965.82244  23060753.0474                   23060754.8954
 -11791707.222 7  -9172719.662 7  22450106.906
  -4704388.893 7  -3637565.390 7  23644801.047
 11  7 25  1 27  0.0000000  0  9G28G17G10G09G04G02G27G12G05
  -5319904.60546  -3479644.65143  23990582.0004                   23990582.6524
 -11166819.054 7  -8676801.519 7  22448986.219
 -17926211.71948 -13148614.73745  21339609.3754                   21339609.6644
  -7750754.33546  -5871664.54844  22676498.8134                   22676500.9924
 -21662223.77548 -16151808.73046  20579752.5004                   20579752.3404
 -21288847.63948 -16542878.45146  20779322.7734                   20779320.8284
 -11258010.92247  -7767899.48444  23070537.8984                   23070539.7544
 -11875994.891 7  -9238398.350 7  22434067.133
  -4810253.206 7  -3720056.939 6  23624655.922
 11  7 25  1 27 30.0000000  0  9G28G17G10G09G04G02G27G12G05
  -5221219.02846  -3402746.82843  24009360.4224                   24009362.1724
 -11121296.268 7  -8641329.248 7  22457649.547
 -17978606.67048 -13189441.93245  21329638.8754                   21329639.0984
  -7692507.34446  -5826277.32744  22687583.5164                   22687584.8164
 -21605878.65248 -16107903.44046  20590474.6564                   20590474.6844
 -21317079.72448 -16564877.45846  20773950.1724                   20773948.4844
 -11206313.62947  -7727615.94044  23080375.5634                   23080377.6954
 -11960035.728 7  -9303884.680 7  22418075.492
  -4916062.829 7  -3802505.872 6  23604520.797
 11  7 25  1 28  0.0000000  0  9G28G17G10G09G04G02G27G12G05
  -5122312.76146  -3325677.02342  24028181.1724                   24028183.5004
 -11075656.448 7  -8605765.757 7  22466333.883
 -18030493.43548 -13229873.13046  21319765.0554                   21319765.9264
  -7633840.25447  -5780562.76044  22698747.8524                   22698748.7664
 -21549197.85948 -16063736.59046  20601260.5704                   20601260.6214
 -21344949.22948 -16586593.93246  20768647.2034                   20768644.8324
 -11154340.15347  -7687117.19644  23090265.7664                   23090268.1914
 -12043827.227 7  -9369176.702 7  22402129.820
  -5021815.061 7  -3884910.086 6  23584396.305
 11  7 25  1 28 30.0000000  0  9G28G17G10G09G04G02G27G12G05
  -5023187.14946  -3248436.29642  24047043.9304                   24047046.0864
 -11029899.049 7  -8570110.671 7  22475041.867
 -18081869.50647 -13269906.39245  21309988.7734                   21309988.6524
  -7574756.18447  -5734523.26144  22709990.6644                   22709992.7154
 -21492183.53448 -16019309.85146  20612109.8444                   20612109.9694
 -21372456.36648 -16608028.04646  20763412.5864                   20763410.6374
 -11102092.92647  -7646405.14144  23100208.1094                   23100210.0634
 -12127366.669 7  -9434272.332 7  22386232.477
  -5127506.789 7  -3967267.151 6  23564284.086
 11  7 25  1 29  0.0000000  0  9G28G17G10G09G04G02G27G12G05
  -4923845.18346  -3171026.98842  24065948.7344                   24065950.6094
 -10984023.787 7  -8534363.729 7  22483771.500
 -18132732.92948 -13309540.17646  21300309.7734                   21300309.7974
  -7515258.70047  -5688161.63644  22721312.7504                   22721314.0704
 -21434838.72748 -15974625.58246  20623022.1334                   20623022.6524
 -21399602.37648 -16629180.76646  20758246.7894                   20758245.0004
 -11049575.45647  -7605482.48644  23110202.1174                   23110203.7154
 -12210652.454 7  -9499170.289 7  22370384.086
  -5233135.811 7  -4049575.383 6  23544184.188
 11  7 25  1 29 30.0000000  0  9G28G17G10G09G04G02G27G12G05
  -4824287.80646  -3093449.79542  24084894.2504                   24084895.2464
 -10938030.296 7  -8498524.675 7  22492523.625
 -18183080.70348 -13348772.16845  21290728.7114                   21290729.0124
  -7455350.30247  -5641479.80844  22732713.1724                   22732714.3484
 -21377165.14048 -15929685.12946  20633997.0554                   20633997.3874
 -21426386.86948 -16650051.78246  20753149.9694                   20753148.0514
 -10996789.32947  -7564350.49444  23120246.8524                   23120248.9654
 -12293681.093 7  -9563867.873 7  22354584.516
  -5338698.507 7  -4131831.898 6  23524095.695
 11  7 25  1 30  0.0000000  0  9G28G17G10G09G04G02G27G12G05
  -4724517.67746  -3015706.80743  24103879.9144                   24103881.4384
 -10891918.107 7  -8462593.105 7  22501298.422
 -18232910.79448 -13387600.76546  21281246.2194                   21281246.5984
  -7395034.64246  -5594480.63844  22744190.5864                   22744192.3674
 -21319165.68748 -15884490.74046  20645034.2034                   20645034.1414
 -21452810.87848 -16670641.89846  20748121.5634                   20748119.7034
 -10943737.70147  -7523011.63444  23130341.7344                   23130344.3244
 -12376450.405 7  -9628363.393 7  22338833.797
  -5444192.678 7  -4214035.030 6  23504020.836
 11  7 25  1 30 30.0000000  0  9G28G17G10G09G04G02G27G12G05
  -4624536.18246  -2937799.14443  24122905.2894                   24122907.1414
 -10845686.022 7  -8426568.144 7  22510096.133
 -18282220.31448 -13426023.72946  21271863.1884                   21271863.5864
  -7334314.04646  -5547165.93444  22755745.7274                   22755746.8834
 -21260842.00648 -15839043.70646  20656132.9224                   20656132.9024
 -21478874.25748 -16690951.00546  20743161.6254                   20743159.9024
 -10890422.66347  -7481467.48144  23140487.5704                   23140489.9734
 -12458957.576 7  -9692654.629 7  22323133.180
  -5549614.643 7  -4296181.912 6  23483959.008
 11  7 25  1 31  0.0000000  0  9G28G17G10G09G04G02G27G12G05
  -4524346.05546  -2859728.94843  24141971.0864                   24141971.9844
 -10799334.870 7  -8390450.359 7  22518916.469
 -18331008.04148 -13464040.09546  21262578.9694                   21262579.5274
  -7273193.02447  -5499539.21244  22767376.3914                   22767378.3984
 -21202197.67048 -15793346.82146  20667292.5474                   20667292.6454
 -21504578.68348 -16710980.39946  20738270.2894                   20738268.0744
 -10836847.78047  -7439720.87144  23150683.0634                   23150684.9494
 -12541201.049 7  -9756740.417 7  22307482.500
  -5654962.754 7  -4378271.229 6  23463912.570
 11  7 25  1 31 30.0000000  0  9G28G17G10G09G04G02G27G12G05
  -4423947.74446  -2781496.51943  24161076.4384                   24161077.7504
 -10752862.339 7  -8354238.005 7  22527760.109
 -18379269.63748 -13501646.48946  21253394.8984                   21253395.3244
  -7211673.17347  -5451601.69644  22779083.5164                   22779084.8364
 -21143233.27148 -15747400.53246  20678512.6954                   20678513.3014
 -21529922.65048 -16730728.92446  20733447.3054                   20733445.6374
 -10783013.74547  -7397772.31844  23160927.2974                   23160929.3524
 -12623176.444 7  -9820617.316 7  22291883.102
  -5760232.453 7  -4460299.426 6  23443879.555
 11  7 25  1 32  0.0000000  0  9G28G17G10G09G04G02G27G12G05
  -4323343.95146  -2703103.97543  24180221.1954                   24180221.7234
 -10706268.676 7  -8317931.250 7  22536626.453
 -18427003.67548 -13538841.81446  21244311.3524                   21244311.5434
  -7149758.33046  -5403356.43744  22790865.2814                   22790867.0044
 -21083951.87548 -15701207.23046  20689793.8834                   20689794.2774
 -21554907.65848 -16750197.74146  20728693.0394                   20728691.1454
 -10728924.26247  -7355624.74244  23171219.9224                   23171222.1604
 -12704882.153 7  -9884284.050 7  22276335.039
  -5865421.470 7  -4542264.753 6  23423862.859
 11  7 25  1 32 30.0000000  0  9G28G17G10G09G04G02G27G12G05
  -4222537.04446  -2624553.17043  24199403.3444                   24199405.1414
 -10659554.221 7  -8281530.405 7  22545515.781
 -18474208.33648 -13575624.63046  21235329.1094                   21235329.2424
  -7087452.19147  -5354806.25444  22802722.3364                   22802723.6484
 -21024356.41048 -15654769.19746  20701134.0704                   20701134.4384
 -21579534.82248 -16769387.72046  20724006.6804                   20724004.7304
 -10674582.26247  -7313280.33844  23181560.1804                   23181562.4494
 -12786316.184 7  -9947739.100 7  22260838.656
  -5970527.369 7  -4624165.306 6  23403862.266
 11  7 25  1 33  0.0000000  0  9G28G17G10G09G04G02G27G12G05
  -4121528.61846  -2545845.34743  24218624.6884                   24218625.8594
 -10612717.553 7  -8245034.284 7  22554428.070
 -18520881.28948 -13611993.12546  21226447.1954                   21226448.0044
  -7024757.54647  -5305953.33345  22814652.2814                   22814654.3404
 -20964448.79248 -15608087.93946  20712534.6484                   20712534.7854
 -21603804.13248 -16788298.83746  20719388.4694                   20719386.4964
 -10619989.89247  -7270740.88244  23191949.2974                   23191951.7894
 -12867475.359 7 -10010979.991 7  22245394.672
  -6075546.983 7  -4705998.618 7  23383877.391
 11  7 25  1 33 30.0000000  0  9G28G17G10G09G04G02G27G12G05
  -4020320.64846  -2466981.99543  24237883.4844                   24237885.0664
 -10565758.840 7  -8208443.086 7  22563364.836
 -18567019.79348 -13647945.15746  21217667.1414                   21217667.4614
  -6961677.47847  -5256800.08544  22826656.1484                   22826657.5394
 -20904231.52247 -15561165.38146  20723993.0394                   20723993.3634
 -21627716.38148 -16806931.73646  20714837.8284                   20714835.9804
 -10565149.81947  -7228008.40844  23202385.5634                   23202387.6724
 -12948356.881 7 -10074004.513 7  22230003.086
  -6180477.253 7  -4787762.315 7  23363909.203
 11  7 25  1 34  0.0000000  0  9G28G17G10G09G04G02G27G12G05
  -3918914.59346  -2387964.32642  24257181.0084                   24257181.6994
 -10518676.236 7  -8171755.326 7  22572323.992
 -18612620.74948 -13683478.34146  21208989.5944                   21208989.9414
  -6898214.20347  -5207348.23244  22838733.4384                   22838735.0084
 -20843705.64048 -15514002.37246  20735511.0084                   20735511.4184
 -21651270.87448 -16825285.85846  20710355.7344                   20710353.9454
 -10510063.76847  -7185084.26244  23212867.9534                   23212870.6524
 -13028957.797 7 -10136810.387 7  22214665.555
  -6285314.430 7  -4869453.463 6  23343959.461
 11  7 25  1 34 30.0000000  0  9G28G17G10G09G04G02G27G12G05
  -3817314.19146  -2308795.24442  24276514.8054                   24276516.0904
 -10471471.411 7  -8134972.374 7  22581306.828
 -18657684.12448 -13718592.61846  21200414.3054                   21200414.6054
  -6834373.52747  -5157602.29845  22850881.6564                   22850883.3094
 -20782876.14747 -15466602.78146  20747086.4064                   20747086.7304
 -21674470.27248 -16843363.28346  20705940.7504                   20705939.2344
 -10454736.59647  -7141972.21344  23223396.7344                   23223399.0314
 -13109277.675 7 -10199397.276 7  22199381.102
  -6390057.889 7  -4951071.610 6  23324027.625
 11  7 25  1 35  0.0000000  0  9G28G17G10G09G04G02G27G12G05
  -3715519.01645  -2229474.30342  24295885.1884                   24295887.1254
 -10424141.368 7  -8098091.800 6  22590313.266
 -18702205.18448 -13753284.31446  21191942.0084                   21191941.9414
  -6770155.83947  -5107562.59344  22863101.7814                   22863103.5744
 -20721742.73448 -15418966.36646  20758719.7344                   20758719.8014
 -21697312.89748 -16861162.69746  20701594.3284                   20701591.9304
 -10399168.39347  -7098672.36144  23233970.7894                   23233972.9574
 -13189310.902 7 -10261760.800 7  22184151.289
  -6494701.872 7  -5032612.231 7  23304114.523
 11  7 25  1 35 30.0000000  0  9G28G17G10G09G04G02G27G12G05
  -3613532.82446  -2150004.54242  24315292.5704                   24315295.7154
 -10376687.163 7  -8061114.493 7  22599343.648
 -18746183.41648 -13787553.03245  21183573.6564                   21183573.5664
  -6705565.96047  -5057232.87345  22875393.2344                   22875394.4924
 -20660309.34748 -15371096.21746  20770410.2894                   20770410.5864
 -21719801.07448 -16878685.92446  20697314.7734                   20697312.3244
 -10343363.55247  -7055188.06444  23244589.7664                   23244591.5744
 -13269057.306 7 -10323900.821 7  22168975.867
  -6599245.408 7  -5114074.593 6  23284220.281
 11  7 25  1 36  0.0000000  0  9G28G17G10G09G04G02G27G12G05
  -3511354.80645  -2070385.29242  24334737.5704                   24334739.5204
 -10329106.038 7  -8024038.279 7  22608398.258
 -18789614.38048 -13821395.29646  21175308.8754                   21175309.0984
  -6640604.82847  -5006613.86845  22887754.2814                   22887757.1564
 -20598575.65648 -15322992.06246  20782157.5394                   20782157.6414
 -21741932.73948 -16895931.34246  20693103.3594                   20693101.4574
 -10287322.08947  -7011519.45644  23255254.4064                   23255256.6174
 -13348511.313 7 -10385813.010 7  22153856.430
  -6703683.132 7  -5195454.483 6  23264346.266
 11  7 25  1 36 30.0000000  0  8G17G10G09G04G02G27G12G05
 -10281400.886 7  -7986865.419 7  22617475.750
 -18832499.28448 -13854812.07146  21167147.9384                   21167148.1914
  -6575279.29146  -4955710.90944  22900185.6334                   22900187.5634
 -20536547.77248 -15274658.66146  20793961.3594                   20793961.5004
 -21763711.85248 -16912902.05946  20688959.0944                   20688956.7774
 -10231050.23847  -6967671.30644  23265962.9924                   23265964.5664
 -13427673.990 7 -10447498.181 7  22138792.336
  -6808015.456 7  -5276752.257 6  23244492.336
 11  7 25  1 37  0.0000000  0  8G17G10G09G04G02G27G12G05
 -10233569.643 7  -7949594.311 7  22626578.195
 -18874834.67848 -13887800.65345  21159091.5004                   21159092.0004
  -6509590.81947  -4904525.14644  22912686.1564                   22912687.6764
 -20474226.35048 -15226096.52446  20805820.6884                   20805820.9574
 -21785137.71648 -16929597.51046  20684881.5164                   20684878.7544
 -10174549.18547  -6923644.53644  23276714.7114                   23276716.7344
 -13506541.325 7 -10508953.224 7  22123784.188
  -6912237.708 7  -5357964.263 6  23224659.734
 11  7 25  1 37 30.0000000  0  8G17G10G09G04G02G27G12G05
 -10185613.328 7  -7912225.767 7  22635703.828
 -18916619.87648 -13920360.50445  21151140.1804                   21151140.3444
  -6443544.31047  -4853060.35644  22925253.7584                   22925255.8484
 -20411615.49548 -15177308.88146  20817735.2114                   20817735.2854
 -21806212.68848 -16946019.53946  20680871.2194                   20680868.8404
 -10117823.05947  -6879442.42944  23287509.0234                   23287511.1884
 -13585112.180 7 -10570177.213 7  22108832.359
  -7016348.878 7  -5439089.729 6  23204847.531
 11  7 25  1 38  0.0000000  0  8G17G10G09G04G02G27G12G05
 -10137528.773 7  -7874757.275 6  22644854.016
 -18957849.61548 -13952487.52646  21143294.6024                   21143294.5944
  -6377140.20047  -4801316.95444  22937890.8284                   22937892.1804
 -20348714.43048 -15128295.08046  20829704.7894                   20829704.9304
 -21826934.03848 -16962166.01346  20676928.4454                   20676925.8674
 -10060871.67347  -6835064.79244  23298346.7504                   23298348.9614
 -13663381.334 7 -10631166.128 7  22093938.359
  -7120343.238 7  -5520124.165 6  23185057.695
 11  7 25  1 38 30.0000000  0  8G17G10G09G04G02G27G12G05
 -10089316.718 7  -7837189.463 7  22654028.320
 -18998523.31748 -13984181.28646  21135554.2664                   21135554.5474
  -6310383.20246  -4749298.54444  22950593.3984                   22950595.3134
 -20285527.00147 -15079058.14546  20841729.4224                   20841729.1334
 -21847304.00848 -16978038.69746  20673051.5394                   20673049.5744
 -10003699.16647  -6790514.85144  23309226.0394                   23309228.4144
 -13741347.463 7 -10691918.915 7  22079101.750
  -7224218.876 7  -5601066.081 6  23165290.828
 11  7 25  1 39  0.0000000  0  8G17G10G09G04G02G27G12G05
 -10040977.055 7  -7799522.210 7  22663227.008
 -19038639.50148 -14015440.62646  21127920.8204                   21127920.6994
  -6243277.31946  -4697008.26544  22963363.5084                   22963365.3754
 -20222056.10347 -15029600.31846  20853807.2114                   20853807.6174
 -21867323.86448 -16993638.56546  20669242.1334                   20669240.0314
  -9946308.74547  -6745795.10544  23320147.3284                   23320149.8404
 -13819008.396 7 -10752433.887 7  22064323.320
  -7327973.516 7  -5681913.731 6  23145546.680
 11  7 25  1 39 30.0000000  0  8G17G10G09G04G02G27G12G05
  -9992508.142 7  -7761754.220 7  22672450.273
 -19078195.19248 -14046263.20346  21120393.2424                   21120393.7854
  -6175824.54747  -4644447.74044  22976199.1804                   22976201.6844
 -20158302.87947 -14979922.48646  20865939.0474                   20865939.1134
 -21886993.29647 -17008965.37246  20665498.8134                   20665496.5354
  -9888701.72247  -6700906.58544  23331109.3914                   23331112.1294
 -13896360.489 7 -10812708.204 7  22049604.375
  -7431602.753 7  -5762663.654 6  23125826.906
 11  7 25  1 40  0.0000000  0  8G17G10G09G04G02G27G12G05
  -9943910.856 7  -7723886.229 7  22681698.633
 -19117189.55048 -14076648.38446  21112972.7734                   21112973.3134
  -6108029.60546  -4591620.52644  22989100.2584                   22989102.2234
 -20094270.96548 -14930027.49046  20878124.0864                   20878123.9844
 -21906313.70448 -17024020.20146  20661822.1644                   20661820.1994
  -9830882.22546  -6655852.51044  23342111.8754                   23342114.8484
 -13973402.653 8 -10872741.015 7  22034943.117
  -7535105.287 7  -5843314.878 6  23106131.422
 11  7 25  1 40 30.0000000  0  8G17G10G09G04G02G27G12G05
  -9895182.723 7  -7685916.253 7  22690971.109
 -19155618.67948 -14106593.14346  21105660.0234                   21105659.9774
  -6039893.91746  -4538527.83444  23002065.6254                   23002067.8554
 -20029960.61247 -14879915.53946  20890361.6094                   20890362.0004
 -21925284.12648 -17038802.34646  20658212.5314                   20658210.1334
  -9772851.14146  -6610633.55744  23353155.2814                   23353157.7274
 -14050130.229 7 -10932528.689 7  22020342.156
  -7638476.124 7  -5923863.464 7  23086460.531
 11  7 25  1 41  0.0000000  0  8G17G10G09G04G02G27G12G05
  -9846324.216 7  -7647844.719 7  22700268.234
 -19193481.54448 -14136096.64246  21098455.1334                   21098455.5274
  -5971421.55646  -4485172.78844  23015096.1484                   23015097.9734
 -19965375.18047 -14829589.23246  20902652.0314                   20902652.3364
 -21943906.07148 -17053312.93646  20654668.7034                   20654666.6054
  -9714611.94846  -6565252.45444  23364237.8284                   23364241.1454
 -14126541.419 7 -10992069.829 7  22005802.102
  -7741712.915 7  -6004307.603 7  23066815.156
 11  7 25  1 41 30.0000000  0  8G17G10G09G04G02G27G12G05
  -9797335.421 7  -7609671.669 6  22709590.883
 -19230777.23148 -14165158.18946  21091358.0394                   21091358.0944
  -5902616.61846  -4431558.55944  23028189.6254                   23028191.2544
 -19900517.58848 -14779050.85846  20914993.8674                   20914994.1604
 -21962180.76348 -17067552.94146  20651191.4454                   20651189.3954
  -9656168.03746  -6519711.81444  23375359.2034                   23375362.1724
 -14202634.512 7 -11051363.125 7  21991321.773
  -7844813.836 7  -6084645.847 7  23047195.977
 11  7 25  1 42  0.0000000  0  8G17G10G09G04G02G27G12G05
  -9748215.304 7  -7571396.262 6  22718938.086
 -19267502.96248 -14193775.60646  21084369.1564                   21084369.1684
  -5833481.81246  -4377687.31844  23041345.3674                   23041346.9264
 -19835390.00848 -14728302.09146  20927387.0394                   20927387.6054
 -21980108.97148 -17081522.95646  20647780.0864                   20647777.7304
  -9597521.65746  -6474013.43544  23386519.2424                   23386521.6724
 -14278406.538 7 -11110406.222 7  21976902.695
  -7947775.413 7  -6164875.522 7  23027601.664
 11  7 25  1 42 30.0000000  0  8G17G10G09G04G02G27G12G05
  -9698963.052 7  -7533017.919 6  22728310.555
 -19303656.71448 -14221947.32646  21077489.3284                   21077489.8324
  -5764020.24346  -4323561.48544  23054563.0474                   23054565.0984
 -19769993.98748 -14677344.16146  20939831.3834                   20939832.0864
 -21997690.73048 -17095223.00946  20644434.2344                   20644432.0784
  -9538675.08746  -6428159.07644  23397717.9534                   23397720.0824
 -14353854.619 7 -11169196.879 7  21962545.313
  -8050594.058 7  -6244993.827 7  23008036.141
 11  7 25  1 43  0.0000000  0  8G17G10G09G04G02G27G12G05
  -9649579.098 7  -7494536.941 6  22737707.992
 -19339237.31148 -14249672.43146  21070718.7344                   21070718.7894
  -5694236.09846  -4269184.25144  23067842.3204                   23067844.5434
 -19704332.80948 -14626179.60446  20952326.4614                   20952327.0824
 -22014927.91748 -17108654.56146  20641153.8674                   20641151.6054
  -9479632.03946  -6382151.56944  23408953.6414                   23408956.0044
 -14428977.068 7 -11227733.808 7  21948250.078
  -8153267.935 7  -6324999.331 7  22988497.617
 11  7 25  1 43 30.0000000  0  8G17G10G09G04G02G27G12G05
  -9600062.560 7  -7455952.651 6  22747130.742
 -19374242.81448 -14276949.41246  21064057.3054                   21064057.4264
  -5624132.30147  -4214557.95144  23081183.7274                   23081184.2664
 -19638408.65948 -14574810.14446  20964871.7034                   20964872.0944
 -22031820.47848 -17121817.58046  20637938.9064                   20637936.9924
  -9420395.02346  -6335992.91944  23420225.7974                   23420227.9384
 -14503771.152 7 -11286014.860 7  21934017.289
  -8255793.665 7  -6404889.384 7  22968988.203
 11  7 25  1 44  0.0000000  0  8G17G10G09G04G02G27G12G05
  -9550412.878 7  -7417264.604 6  22756579.047
 -19408671.47848 -14303776.91646  21057505.6644                   21057505.7894
  -5553712.55447  -4159685.46344  23094583.6644                   23094585.7194
 -19572223.97548 -14523237.67746  20977466.3834                   20977466.5234
 -22048369.33748 -17134712.77346  20634789.7114                   20634787.9694
  -9360966.45146  -6289685.03543  23431534.5314                   23431537.5634
 -14578234.152 7 -11344037.931 7  21919847.289
  -8358168.544 7  -6484661.900 6  22949507.078
 11  7 25  1 44 30.0000000  0  8G17G10G09G04G02G27G12G05
  -9500628.234 7  -7378471.381 7  22766052.672
 -19442520.00548 -14330152.34146  21051064.5084                   21051064.4534
  -5482978.45547  -4104568.01944  23108044.0944                   23108045.7814
 -19505779.30048 -14471462.62346  20990110.0004                   20990110.5744
 -22064573.94548 -17147339.72346  20631706.3284                   20631704.0434
  -9301347.96046  -6243229.14843  23442880.1094                   23442882.4224
 -14652361.944 8 -11401799.822 7  21905741.422
  -8460387.960 7  -6564313.307 7  22930054.523
 11  7 25  1 45  0.0000000  0  8G17G10G09G04G02G27G12G05
  -9450709.761 7  -7339573.877 7  22775551.453
 -19475788.67948 -14356075.93846  21044733.5164                   21044733.8324
  -5411935.31647  -4049209.78244  23121563.3284                   23121565.3594
 -19439078.92248 -14419488.30746  21002802.5474                   21002803.3324
 -22080436.73648 -17159700.32746  20628687.6564                   20628685.4574
  -9241543.98246  -6196628.68544  23454260.3834                   23454262.6884
 -14726154.428 7 -11459300.426 7  21891699.078
  -8562450.744 7  -6643842.629 6  22910633.219
 11  7 25  1 45 30.0000000  0  8G17G10G09G04G02G27G12G05
  -9400657.172 7  -7300571.863 7  22785076.430
 -19508475.76548 -14381546.35546  21038513.2424                   21038513.4494
  -5340586.77447  -3993613.55544  23135140.6564                   23135142.3914
 -19372125.46148 -14367316.79146  21015543.5164                   21015543.8244
 -22095958.89248 -17171795.49046  20625734.2664                   20625731.9304
  -9181557.61646  -6149886.14643  23465675.5864                   23465677.7344
 -14799608.616 7 -11516537.406 7  21877721.055
  -8664354.276 7  -6723247.861 6  22891241.430
 11  7 25  1 46  0.0000000  0  8G17G10G09G04G02G27G12G05
  -9350469.122 7  -7261464.289 7  22794626.711
 -19540578.71248 -14406561.59146  21032404.2034                   21032404.2504
  -5268935.20747  -3937781.23744  23148775.4774                   23148777.5824
 -19304919.97748 -14314948.88846  21028332.4454                   21028332.8134
 -22111140.01348 -17183624.92446  20622845.0084                   20622843.0044
  -9121390.57647  -6103002.78744  23477124.8834                   23477127.3284
 -14872721.177 7 -11573508.195 7  21863808.109
  -8766094.342 7  -6802525.752 6  22871880.758
 11  7 25  1 46 30.0000000  0  8G17G10G09G04G02G27G12G05
  -9300143.317 7  -7222249.401 6  22804203.492
 -19572094.17048 -14431119.04246  21026406.9844                   21026407.3914
  -5196982.66147  -3881714.38044  23162467.6484                   23162469.7304
 -19237463.33248 -14262385.26946  21041168.9224                   21041169.6604
 -22125979.36748 -17195188.04846  20620021.2034                   20620018.9104
  -9061043.96047  -6055979.48644  23488608.5474                   23488610.8134
 -14945488.015 7 -11630209.598 7  21849961.086
  -8867666.490 7  -6881672.759 6  22852552.086
 11  7 25  1 47  0.0000000  0  8G17G10G09G04G02G27G12G05
  -9249681.465 7  -7182928.475 7  22813805.828
 -19603022.41348 -14455218.93146  21020521.7974                   21020521.5784
  -5124734.34047  -3825417.04244  23176216.3674                   23176218.2384
 -19169759.78248 -14209629.26046  21054052.6564                   21054053.0234
 -22140479.82248 -17206487.09146  20617261.9144                   20617259.4844
  -9000522.54146  -6008819.99744  23500125.2734                   23500127.9774
 -15017908.800 7 -11686641.331 7  21836180.000
  -8969069.888 7  -6960688.305 7  22833255.688
 11  7 25  1 47 30.0000000  0  8G17G10G09G04G02G27G12G05
  -9199082.436 7  -7143500.659 7  22823434.578
 -19633361.86348 -14478860.00846  21014748.5314                   21014748.5234
  -5052193.68147  -3768891.90844  23190019.9304                   23190021.4414
 -19101811.49448 -14156682.54946  21066982.4454                   21066983.2464
 -22154642.04248 -17217522.58146  20614566.8984                   20614564.4384
  -8939828.91947  -5961526.29444  23511674.4924                   23511677.5514
 -15089980.808 7 -11742801.301 7  21822464.664
  -9070301.372 7  -7039569.858 7  22813992.078
 11  7 25  1 48  0.0000000  0  8G17G10G09G04G02G27G12G05
  -9148345.510 7  -7103965.401 6  22833089.617
 -19663109.97348 -14502040.31846  21009087.1094                   21009087.0864
  -4979363.08447  -3712140.84844  23203879.3204                   23203881.0634
 -19033619.80148 -14103546.16046  21079959.4694                   21079959.8324
 -22168465.77248 -17228294.30446  20611936.4064                   20611934.2544
  -8878964.82646  -5914099.78044  23523256.5234                   23523260.1764
 -15161700.707 7 -11798686.907 7  21808817.219
  -9171357.190 7  -7118314.577 6  22794761.797
 11  7 25  1 48 30.0000000  0  8G17G10G09G04G02G27G12G05
  -9097471.565 7  -7064323.367 6  22842770.227
 -19692266.77048 -14524759.85646  21003538.9144                   21003538.8554
  -4906246.99147  -3655167.34844  23217792.8834                   23217794.9184
 -18965188.49748 -14050223.06046  21092981.1884                   21092981.5474
 -22181953.38548 -17238804.12546  20609369.7034                   20609367.7274
  -8817934.46847  -5866543.69544  23534870.5314                   23534873.8444
 -15233066.801 7 -11854296.823 7  21795236.930
  -9272235.627 7  -7196921.018 7  22775564.781
 11  7 25  1 49  0.0000000  0  8G17G10G09G04G02G27G12G05
  -9046459.453 7  -7024573.680 7  22852478.391
 -19720830.48848 -14547017.26246  20998102.9774                   20998102.8554
  -4832848.73447  -3597973.97144  23231759.9614                   23231762.3634
 -18896519.47748 -13996714.73046  21106048.5554                   21106049.0784
 -22195105.41248 -17249052.44446  20606867.1724                   20606864.7544
  -8756740.36646  -5818860.02744  23546515.4534                   23546518.5984
 -15304076.660 7 -11909629.126 7  21781723.953
  -9372933.329 7  -7275386.673 7  22756402.180
 11  7 25  1 49 30.0000000  0  8G17G10G09G04G02G27G12G05
  -8995307.127 7  -6984714.721 6  22862211.766
 -19748797.69248 -14568809.84246  20992781.7974                   20992781.3364
  -4759170.34947  -3540562.32644  23245780.5394                   23245782.6094
 -18827613.42748 -13943021.68646  21119160.6954                   21119161.1414
 -22207921.06748 -17259038.65946  20604428.2114                   20604425.5514
  -8695383.60346  -5771049.59844  23558191.9144                   23558194.3914
 -15374726.586 7 -11964680.984 7  21768279.719
  -9473445.999 7  -7353708.100 7  22737275.469
 11  7 25  1 50  0.0000000  0  8G17G10G09G04G02G27G12G05
  -8944016.237 7  -6944747.802 6  22871972.023
 -19776169.19048 -14590138.24546  20987572.7114                   20987572.5124
  -4685217.33647  -3482936.67944  23259853.5314                   23259855.1604
 -18758474.70748 -13889147.34746  21132317.3984                   21132317.6804
 -22220403.40548 -17268765.14946  20602053.1094                   20602050.4494
  -8633869.20246  -5723116.30444  23569897.1884                   23569900.0434
 -15445015.659 7 -12019451.648 7  21754904.008
  -9573772.459 7  -7431884.463 7  22718183.773
 11  7 25  1 50 30.0000000  0  8G17G10G09G04G02G27G12G05
  -8892583.688 7  -6904670.493 6  22881760.172
 -19802940.60848 -14610999.05546  20982478.2114                   20982478.5434
  -4610990.31546  -3425097.49844  23273978.6484                   23273980.4104
 -18689102.79648 -13835091.30246  21145518.3754                   21145518.9104
 -22232550.32148 -17278230.26346  20599741.3594                   20599739.0664
  -8572197.17446  -5675060.21344  23581632.9224                   23581635.8524
 -15514938.956 8 -12073937.308 7  21741598.234
  -9673907.024 7  -7509911.269 7  22699128.469
 11  7 25  1 51  0.0000000  0  8G17G10G09G04G02G27G12G05
  -8841011.863 7  -6864484.677 6  22891573.516
 -19829113.49248 -14631393.47146  20977497.8364                   20977497.9144
  -4536495.91347  -3367049.99244  23288154.6024                   23288156.6134
 -18619503.30148 -13780857.91746  21158762.4924                   21158763.0704
 -22244365.85047 -17287437.16546  20597493.1644                   20597490.5904
  -8510373.53346  -5626885.99143  23593396.8364                   23593400.3444
 -15584497.042 8 -12128138.363 7  21728361.703
  -9773850.212 7  -7587788.990 7  22680110.219
 11  7 25  1 51 30.0000000  0  9G25G17G10G09G04G02G27G12G05
    235868.22416    197647.67315  24660174.367
  -8789297.370 7  -6824187.667 7  22901414.297
 -19854683.72848 -14651318.30646  20972631.9384                   20972631.9454
  -4461734.67047  -3308794.51644  23302381.0314                   23302383.4924
 -18549675.34148 -13726446.51146  21172050.4774                   21172051.1844
 -22255848.00648 -17296384.29746  20595307.9534                   20595305.7344
  -8448397.91546  -5578593.37443  23605191.3914                   23605194.1094
 -15653684.360 8 -12182050.520 7  21715195.586
  -9873596.086 7  -7665512.909 7  22661129.078
 11  7 25  1 52  0.0000000  0  9G25G17G10G09G04G02G27G12G05
    132512.182 6    117110.601 5  24640506.422
  -8737443.871 7  -6783782.342 7  22911281.258
 -19879654.33448 -14670775.88846  20967880.0004                   20967879.6994
  -4386713.97847  -3250336.91344  23316656.3204                   23316659.1374
 -18479625.35848 -13671862.10746  21185380.5704                   21185381.3594
 -22267001.90148 -17305075.62946  20593185.3674                   20593182.7504
  -8386277.37446  -5530187.82243  23617012.3524                   23617015.5744
 -15722502.543 7 -12235675.030 7  21702100.195
  -9973145.526 7  -7743083.802 7  22642185.391
 11  7 25  1 52 30.0000000  0  9G25G17G10G09G04G02G27G12G05
     29266.374 5     36659.390 5  24620859.836
  -8685445.818 7  -6743264.408 6  22921177.141
 -19904018.85448 -14689761.20646  20963243.6174                   20963243.7584
  -4311432.37847  -3191675.94944  23330982.2274                   23330984.6254
 -18409350.43448 -13617102.43446  21198753.5394                   21198753.7974
 -22277823.23548 -17313507.83546  20591126.1414                   20591123.6564
  -8324009.47346  -5481667.42844  23628862.3984                   23628864.6174
 -15790944.174 8 -12289006.120 7  21689075.906
 -10072490.665 7  -7820495.510 7  22623281.078
 11  7 25  1 53  0.0000000  0  9G25G17G10G09G04G02G27G12G05
    -73869.530 5    -43706.122 5  24601233.070
  -8633305.286 7  -6702635.404 6  22931098.516
 -19927778.45348 -14708275.14946  20958722.2664                   20958722.2034
  -4235895.53247  -3132816.15544  23345357.5164                   23345359.1644
 -18338855.34248 -13562171.20246  21212168.6334                   21212168.6254
 -22288315.24048 -17321683.40746  20589129.7274                   20589127.4144
  -8261599.64846  -5433036.45644  23640738.0234                   23640740.9024
 -15859009.507 7 -12342044.010 7  21676123.469
 -10171631.022 7  -7897747.638 7  22604415.188
 11  7 25  1 53 30.0000000  0  9G25G17G10G09G04G02G27G12G05
   -176893.308 5   -123984.174 6  24581627.000
  -8581022.042 7  -6661895.235 6  22941047.234
 -19950931.91248 -14726316.78046  20954316.2424                   20954316.2464
  -4160107.28647  -3073760.41444  23359778.3594                   23359781.4144
 -18268142.80048 -13507070.51946  21225624.5474                   21225624.9104
 -22298479.62848 -17329603.70246  20587195.4694                   20587193.1684
  -8199050.91746  -5384297.24844  23652640.8524                   23652644.0204
 -15926696.003 7 -12394786.698 7  21663243.406
 -10270563.799 7  -7974838.022 7  22585588.172
 11  7 25  1 54  0.0000000  0  9G25G17G10G09G04G02G27G12G05
   -279801.451 6   -204172.176 6  24562045.141
  -8528594.313 7  -6621042.469 6  22951024.398
 -19973477.04248 -14743884.38246  20950026.1884                   20950025.9574
  -4084070.00947  -3014510.60444  23374248.7424                   23374250.6724
 -18197213.86548 -13451801.23546  21239121.8984                   21239122.2934
 -22308315.80448 -17337268.24046  20585324.0084                   20585321.2194
  -8136365.09947  -5335451.22244  23664569.9144                   23664571.9804
 -15994000.407 8 -12447231.618 7  21650435.289
 -10369285.278 7  -8051763.747 7  22566802.086
 11  7 25  1 54 30.0000000  0  9G25G17G10G09G04G02G27G12G05
   -382592.580 6   -284269.009 6  24542484.922
  -8476022.999 7  -6580077.829 6  22961028.352
 -19995413.87948 -14760977.99246  20945851.7194                   20945851.5554
  -4007788.54647  -2955070.52244  23388764.3284                   23388766.4694
 -18126071.81648 -13396365.88346  21252659.9224                   21252660.0514
 -22317825.82647 -17344678.62246  20583514.3524                   20583511.7274
  -8073546.27846  -5286501.54044  23676523.4614                   23676526.1254
 -16060921.541 8 -12499377.937 7  21637700.961
 -10467793.506 7  -8128523.325 7  22548056.547
 11  7 25  1 55  0.0000000  0  9G25G17G10G09G04G02G27G12G05
   -485263.282 6   -364272.047 6  24522947.234
  -8423306.437 7  -6538999.967 6  22971060.336
 -20016740.10948 -14777595.79946  20941793.3444                   20941793.5474
  -3931264.84147  -2895441.68644  23403326.3594                   23403328.3874
 -18054717.81948 -13340765.37446  21266238.0864                   21266238.6804
 -22327009.51248 -17351834.71646  20581766.5704                   20581764.0514
  -8010596.02247  -5237449.45244  23688502.6644                   23688505.6994
 -16127455.630 8 -12551222.648 7  21625040.156
 -10566084.348 7  -8205113.511 7  22529352.352
 11  7 25  1 55 30.0000000  0  9G25G17G10G09G04G02G27G12G05
   -587810.517 6   -444178.851 6  24503432.555
  -8370443.979 7  -6497808.448 6  22981119.242
 -20037453.91848 -14793736.39546  20937851.9224                   20937851.6174
  -3854502.06047  -2835626.50944  23417933.5004                   23417935.6374
 -17983153.70948 -13285001.15146  21279856.2974                   21279856.4064
 -22335867.51848 -17358737.03946  20580080.5554                   20580078.6524
  -7947516.42546  -5188296.62143  23700506.9454                   23700508.7424
 -16193599.755 7 -12602763.463 7  21612452.883
 -10664154.410 7  -8281531.644 7  22510689.984
 11  7 25  1 56  0.0000000  0  9G25G17G10G09G04G02G27G12G05
   -690234.588 7   -523989.716 6  24483943.023
  -8317437.390 7  -6456504.602 6  22991206.758
 -20057557.08148 -14809401.16346  20934026.1334                   20934025.6994
  -3777506.41047  -2775629.93544  23432585.6954                   23432588.0084
 -17911384.46548 -13229077.07745  21293513.4614                   21293513.6684
 -22344403.50748 -17365388.43746  20578456.5394                   20578453.9574
  -7884313.27146  -5139047.49444  23712533.7424                   23712537.1094
 -16259354.137 8 -12654000.623 7  21599939.992
 -10762003.555 7  -8357777.658 7  22492070.430
 11  7 25  1 56 30.0000000  0  9G25G17G10G09G04G02G27G12G05
   -792529.877 7   -603700.243 6  24464476.375
  -8264283.244 7  -6415085.757 6  23001321.258
 -20077045.10148 -14824586.60546  20930318.0634                   20930317.9024
  -3700278.29447  -2715452.14844  23447281.4144                   23447283.6604
 -17839408.82248 -13172992.19046  21307209.6564                   21307210.2704
 -22352614.94648 -17371786.92546  20576894.0554                   20576891.5274
  -7820985.88247  -5089701.53543  23724585.2734                   23724587.2344
 -16324713.018 7 -12704929.592 7  21587502.742
 -10859625.625 7  -8433846.724 7  22473493.445
 11  7 25  1 57  0.0000000  0  9G25G17G10G09G04G02G27G12G05
   -894694.757 7   -683309.163 6  24445035.586
  -8210981.895 7  -6373552.229 6  23011463.883
 -20095918.22948 -14839292.90146  20926725.7814                   20926725.7424
  -3622821.93846  -2655096.55144  23462020.8984                   23462022.7894
 -17767230.23148 -13116749.15046  21320945.1724                   21320945.7344
 -22360504.05748 -17377934.26346  20575392.7734                   20575390.1884
  -7757538.10246  -5040261.81643  23736658.4694                   23736660.8524
 -16389675.345 8 -12755549.562 7  21575141.266
 -10957018.551 7  -8509737.243 7  22454960.227
 11  7 25  1 57 30.0000000  0  9G25G17G10G09G04G02G27G12G05
   -996727.589 7   -762815.249 6  24425618.469
  -8157533.751 7  -6331904.319 6  23021634.906
 -20114175.80448 -14853519.53446  20923251.7584                   20923251.7344
  -3545141.79547  -2594566.57844  23476803.1644                   23476805.4264
 -17694851.46248 -13060350.13045  21334718.1334                   21334718.5084
 -22368072.61748 -17383831.80946  20573952.3594                   20573949.5554
  -7693973.43146  -4990730.97243  23748754.1174                   23748756.9964
 -16454239.586 7 -12805859.330 7  21562854.555
 -11054180.368 7  -8585447.668 7  22436470.000
 11  7 25  1 58  0.0000000  0  9G25G17G10G09G04G02G27G12G05
  -1098624.975 7   -842215.832 6  24406227.586
  -8103937.385 7  -6290140.923 6  23031833.813
 -20131815.88148 -14867265.00646  20919895.1644                   20919894.8364
  -3467240.25846  -2533864.11144  23491627.0004                   23491629.8984
 -17622273.63748 -13003795.99346  21348529.1804                   21348529.8594
 -22375320.37148 -17389479.37246  20572573.2424                   20572570.4304
  -7630293.95746  -4941110.68343  23760871.9844                   23760875.1844
 -16518402.119 8 -12855856.099 7  21550644.914
 -11151106.966 7  -8660974.805 7  22418026.328
 11  7 25  1 58 30.0000000  0  9G25G17G10G09G04G02G27G12G05
  -1200385.362 6   -921509.692 6  24386863.383
  -8050193.260 7  -6248262.358 6  23042060.547
 -20148838.52148 -14880529.36746  20916655.5634                   20916655.3444
  -3389121.50146  -2472992.37644  23506493.4064                   23506494.6174
 -17549500.20148 -12947089.43545  21362377.3134                   21362377.9184
 -22382249.46348 -17394878.62347  20571254.0944                   20571251.4224
  -7566503.43746  -4891403.91143  23773010.6024                   23773013.6564
 -16582161.628 8 -12905538.812 7  21538511.852
 -11247796.264 7  -8736317.052 7  22399626.625
 11  7 25  1 59  0.0000000  0  9G25G17G10G09G04G02G27G12G05
  -1302005.134 6  -1000694.029 6  24367526.031
  -7996299.719 7  -6206267.392 6  23052316.672
 -20165241.45748 -14893310.83346  20913534.3914                   20913534.0594
  -3310788.01647  -2411953.29344  23521398.7114                   23521401.2774
 -17476532.12548 -12890231.21145  21376262.9144                   21376263.2664
 -22388859.60848 -17400029.35346  20569996.6024                   20569994.3484
  -7502603.38546  -4841611.75743  23785170.9064                   23785174.3244
 -16645514.526 7 -12954904.710 7  21526456.305
 -11344244.561 7  -8811471.479 7  22381273.156
 11  7 25  1 59 30.0000000  0  9G25G17G10G09G04G02G27G12G05
  -1403482.731 6  -1079767.618 6  24348215.227
  -7942257.119 7  -6164156.264 6  23062600.422
 -20181024.72948 -14905609.44746  20910530.6564                   20910530.5274
  -3232244.16646  -2350750.33644  23536345.4534                   23536347.6844
 -17403372.32448 -12833223.59345  21390185.2034                   21390185.5744
 -22395152.37348 -17404932.77246  20568799.0784                   20568796.4454
  -7438597.64246  -4791737.25144  23797350.7734                   23797353.9264
 -16708459.276 8 -13003952.556 7  21514477.969
 -11440449.574 7  -8886436.354 7  22362966.203
 11  7 25  2  0  0.0000000  0  9G25G17G10G09G04G02G27G12G05
  -1504815.448 6  -1158728.331 6  24328932.625
  -7888065.290 6  -6121928.840 6  23072913.195
 -20196187.48648 -14917424.53946  20907645.6334                   20907645.3594
  -3153493.54946  -2289386.27344  23551330.7194                   23551333.6604
 -17330023.09048 -12776068.36345  21404143.3674                   21404143.1684
 -22401129.49148 -17409590.23746  20567661.6094                   20567659.3054
  -7374488.66146  -4741782.28743  23809550.7274                   23809553.2344
 -16770993.786 8 -13052680.740 7  21502578.477
 -11536408.389 7  -8961209.399 7  22344705.906
 11  7 25  2  0 30.0000000  0  9G25G17G10G09G04G02G27G12G05
  -1605999.541 6  -1237573.236 6  24309678.164
  -7833722.264 7  -6079583.631 6  23083254.242
 -20210727.41148 -14928754.32346  20904878.6884                   20904878.3594
  -3074538.41746  -2227862.85844  23566355.8204                   23566358.1414
 -17256485.22048 -12718766.13945  21418136.9304                   21418137.3984
 -22406790.43848 -17414001.32946  20566584.5084                   20566581.9414
  -7310278.15446  -4691748.21143  23821769.8364                   23821773.0044
 -16833114.237 8 -13101086.285 7  21490757.078
 -11632116.710 7  -9035787.238 7  22326493.078
 11  7 25  2  1  0.0000000  0  9G25G17G10G09G04G02G27G12G05
  -1707034.153 6  -1316301.618 6  24290451.609
  -7779229.503 7  -6037121.736 6  23093624.141
 -20224645.74848 -14939599.73746  20902229.8754                   20902229.3094
  -2995383.73446  -2166183.95644  23581419.2584                   23581421.3484
 -17182762.67348 -12661320.00845  21432166.1024                   21432165.6484
 -22412137.78748 -17418168.06946  20565566.9224                   20565564.0004
  -7245970.82646  -4641638.70243  23834007.3054                   23834009.8164
 -16894819.965 8 -13149168.682 7  21479014.836
 -11727573.612 7  -9110169.146 7  22308327.766
 11  7 25  2  1 30.0000000  0  9G25G17G10G09G04G02G27G12G05
  -1807916.658 6  -1394911.411 6  24271254.047
  -7724586.138 7  -5994542.476 6  23104021.867
 -20237941.56048 -14949960.08146  20899699.7424                   20899699.3014
  -2916032.93746  -2104352.25844  23596519.1644                   23596520.9344
 -17108857.33847 -12603731.44345  21446229.4454                   21446229.9064
 -22417172.47248 -17422091.16646  20564608.7584                   20564606.0394
  -7181569.26746  -4591455.72943  23846262.0864                   23846264.8714
 -16956108.751 8 -13196926.179 7  21467351.578
 -11822775.978 7  -9184352.739 7  22290211.742
 11  7 25  2  2  0.0000000  0  9G25G17G10G09G04G02G27G12G05
  -1908642.907 6  -1473399.443 6  24252087.328
  -7669790.432 6  -5951844.538 6  23114449.766
 -20250612.19347 -14959833.27546  20897288.9304                   20897288.0314
  -2836487.92946  -2042369.21144  23611655.2114                   23611657.8364
 -17034770.00048 -12546001.03945  21460327.4384                   21460327.9694
 -22421893.82348 -17425770.11646  20563710.1414                   20563707.8204
  -7117074.64846  -4541200.27444  23858535.2584                   23858538.2274
 -17016976.578 8 -13244355.642 7  21455769.180
 -11917719.302 7  -9258334.471 7  22272144.000
 11  7 25  2  2 30.0000000  0  9G25G17G10G09G04G02G27G12G05
  -2009211.939 7  -1551764.994 6  24232949.984
  -7614843.489 6  -5909028.716 6  23124905.273
 -20262658.55548 -14969220.01846  20894996.4694                   20894995.7154
  -2756753.76346  -1980238.76544  23626828.1174                   23626830.6134
 -16960504.16148 -12488131.54545  21474460.1174                   21474460.0704
 -22426304.62448 -17429207.09046  20562870.6484                   20562868.2974
  -7052491.67446  -4490875.88843  23870824.8204                   23870827.6024
 -17077422.409 8 -13291456.301 7  21444266.594
 -12012402.184 7  -9332113.261 7  22254127.063
 11  7 25  2  3  0.0000000  0  9G25G17G10G09G04G02G27G12G05
  -2109619.082 7  -1630004.338 6  24213842.414
  -7559742.658 7  -5866093.017 6  23135390.594
 -20274077.79548 -14978118.09946  20892823.2114                   20892822.7344
  -2676831.66746  -1917961.87943  23642037.2734                   23642040.0904
 -16886059.80948 -12430122.95345  21488626.4774                   21488626.8674
 -22430403.71448 -17432401.17246  20562090.9454                   20562088.0944
  -6987820.75847  -4440483.00043  23883131.7504                   23883134.7544
 -17137442.176 8 -13338224.935 7  21432845.125
 -12106819.560 7  -9405685.174 7  22236159.383
 11  7 25  2  3 30.0000000  0  9G25G17G10G09G04G02G27G12G05
  -2209863.737 7  -1708117.014 6  24194766.477
  -7504489.482 6  -5823038.580 6  23145905.086
 -20284870.98148 -14986528.35746  20890769.4304                   20890769.0274
  -2596727.04746  -1855542.79344  23657281.0394                   23657283.1334
 -16811441.10348 -12371978.48345  21502825.5634                   21502826.2854
 -22434193.95048 -17435354.59846  20561369.7274                   20561367.4454
  -6923066.34346  -4390025.08043  23895453.8364                   23895457.0234
 -17197034.920 8 -13384660.827 7  21421505.578
 -12200970.648 7  -9479049.550 7  22218242.977
 11  7 25  2  4  0.0000000  0  9G25G17G10G09G04G02G27G12G05
  -2309942.002 7  -1786100.010 6  24175722.703
  -7449081.677 6  -5779863.666 6  23156448.555
 -20295036.37647 -14994449.42546  20888834.7974                   20888834.2974
  -2516442.04646  -1792983.18544  23672558.5704                   23672561.5044
 -16736648.64548 -12313698.62645  21517058.4304                   21517058.4024
 -22437675.18548 -17438067.23546  20560707.1564                   20560704.5944
  -6858230.14646  -4339503.39944  23907792.0634                   23907794.8554
 -17256197.712 8 -13430761.685 7  21410246.984
 -12294851.324 7  -9552203.248 7  22200378.391
 11  7 25  2  4 30.0000000  0  9G25G17G10G09G04G02G27G12G05
  -2409852.388 7  -1863952.205 6  24156710.023
  -7393520.432 6  -5736569.169 6  23167021.820
 -20304574.15147 -15001881.43146  20887019.7814                   20887019.7814
  -2435981.30746  -1730286.61044  23687870.0164                   23687871.8754
 -16661685.81448 -12255286.01745  21531323.1954                   21531323.5704
 -22440849.54648 -17440540.75446  20560103.0864                   20560100.3444
  -6793316.28846  -4288921.24043  23920144.2734                   23920147.7154
 -17314929.342 8 -13476526.569 7  21399070.758
 -12388459.311 7  -9625144.452 7  22182565.430
 11  7 25  2  5  0.0000000  0  9G25G17G10G09G04G02G27G12G05
  -2509591.221 6  -1941670.680 7  24137730.125
  -7337804.008 6  -5693153.789 6  23177624.391
 -20313482.60247 -15008823.06746  20885324.8134                   20885324.2624
  -2355346.69746  -1667454.58344  23703214.1414                   23703216.2734
 -16586553.32148 -12196741.19945  21545620.4534                   21545621.2154
 -22443716.71548 -17442774.90646  20559557.4384                   20559554.9924
  -6728326.00846  -4238279.55843  23932511.8284                   23932514.7974
 -17373226.113 8 -13521952.595 7  21387976.852
 -12481790.487 7  -9697869.955 7  22164804.414
 11  7 25  2  5 30.0000000  0  9G25G17G10G09G04G02G27G12G05
  -2609157.114 6  -2019254.393 6  24118783.539
  -7281933.290 7  -5649618.174 6  23188256.195
 -20321762.40347 -15015274.83746  20883748.6564                   20883748.0904
  -2274543.04146  -1604490.77544  23718590.6414                   23718592.9964
 -16511254.57148 -12138066.82845  21559949.2424                   21559949.5084
 -22446278.96348 -17444771.45546  20559069.7034                   20559067.3054
  -6663263.39546  -4187581.53943  23944892.7664                   23944896.1994
 -17431086.774 8 -13567038.791 7  21376966.633
 -12574843.588 7  -9770378.780 7  22147097.156
 11  7 25  2  6  0.0000000  0  9G25G17G10G09G04G02G27G12G05
  -2708546.471 6  -2096700.527 7  24099870.078
  -7225906.745 6  -5605961.119 6  23198917.539
 -20329411.65848 -15021235.26946  20882293.6644                   20882293.1804
  -2193572.81046  -1541397.16444  23733999.5784                   23734001.4844
 -16435790.56248 -12079263.69245  21574309.7734                   21574310.3324
 -22448536.56548 -17446530.63046  20558639.9454                   20558637.9804
  -6598130.27546  -4136828.56343  23957286.9384                   23957291.0904
 -17488508.157 8 -13611782.679 7  21366039.773
 -12667614.436 7  -9842667.690 7  22129443.320
 11  7 25  2  6 30.0000000  0  9G25G17G10G09G04G02G27G12G05
  -2807757.458 6  -2174007.688 6  24080990.781
  -7169724.420 6  -5562182.669 6  23209608.523
 -20336430.99447 -15026704.85146  20880957.6094                   20880957.3674
  -2112440.34547  -1478177.13844  23749438.5704                   23749439.8674
 -16360164.19448 -12020334.04645  21588700.8594                   21588701.3094
 -22450491.23348 -17448053.73646  20558267.9614                   20558265.8014
  -6532930.24246  -4086023.49443  23969694.1884                   23969697.8794
 -17545488.986 8 -13656183.284 7  21355196.789
 -12760101.154 7  -9914735.187 7  22111843.688
 11  7 25  2  7  0.0000000  0  9G25G17G10G09G04G02G27G12G05
  -2906786.618 6  -2251173.137 6  24062146.625
  -7113385.298 6  -5518282.045 6  23220329.883
 -20342819.09547 -15031682.56546  20879742.2814                   20879741.8134
  -2031148.05046  -1414832.56243  23764907.2894                   23764909.5234
 -16284376.52848 -11961278.70545  21603122.6804                   21603122.7894
 -22452142.94648 -17449340.77546  20557953.9774                   20557951.3054
  -6467665.18846  -4035167.69044  23982114.0314                   23982117.5744
 -17602025.924 8 -13700237.985 7  21344437.953
 -12852300.000 7  -9986578.372 7  22094299.063
 11  7 25  2  7 30.0000000  0  9G25G17G10G09G04G02G27G12G05
  -3005632.024 6  -2328195.421 6  24043336.672
  -7056889.553 6  -5474259.359 6  23231081.008
 -20348575.60948 -15036168.13846  20878646.5314                   20878646.4494
  -1949699.91246  -1351366.55543  23780405.9454                   23780409.1374
 -16208430.36148 -11902099.86145  21617574.7274                   21617575.1024
 -22453493.61448 -17450393.23846  20557696.8594                   20557694.1054
  -6402338.36447  -3984263.79144  23994546.5784                   23994549.4024
 -17658117.440 8 -13743945.627 7  21333764.359
 -12944208.291 7 -10058195.166 7  22076809.102
 11  7 25  2  8  0.0000000  0  9G25G17G10G09G04G02G27G12G05
  -3104291.582 6  -2405072.907 6  24024562.016
  -7000236.933 6  -5430114.462 6  23241860.891
 -20353700.93248 -15040161.87646  20877671.6024                   20877671.0904
  -1868099.88647  -1287782.19144  23795934.7424                   23795937.3364
 -16132328.21748 -11842799.49345  21632056.7734                   21632057.0004
 -22454544.82148 -17451212.34246  20557496.9534                   20557494.4734
  -6336953.11347  -3933314.31344  24006988.4694                   24006991.2734
 -17713762.057 8 -13787305.017 7  21323175.406
 -13035823.889 7 -10129583.864 7  22059374.938
 11  7 25  2  8 30.0000000  0  9G25G17G10G09G04G02G27G12G05
  -3202761.186 6  -2481802.333 6  24005823.813
  -6943425.805 6  -5385846.050 6  23252672.172
 -20358192.89947 -15043662.08446  20876816.7114                   20876816.0944
  -1786350.11346  -1224081.14643  23811491.3674                   23811493.0594
 -16056070.49348 -11783377.91245  21646568.0004                   21646568.1454
 -22455295.78047 -17451797.49346  20557353.9064                   20557351.3554
  -6271510.79247  -3882320.34243  24019441.2504                   24019444.3134
 -17768955.751 8 -13830313.046 7  21312672.469
 -13127142.494 7 -10200741.163 7  22041997.727
 11  7 25  2  9  0.0000000  0  9G25G17G10G09G04G02G27G12G05
  -3301038.969 7  -2558382.390 6  23987121.789
  -6886456.537 6  -5341454.423 6  23263512.305
 -20362052.27747 -15046669.36646  20876082.2424                   20876081.3484
  -1704454.80146  -1160266.69744  23827074.7194                   23827078.1214
 -15979660.07348 -11723837.34245  21661108.3674                   21661108.9844
 -22455748.65947 -17452150.36846  20557267.5004                   20557265.4694
  -6206014.79347  -3831284.60743  24031904.8984                   24031908.8014
 -17823697.252 8 -13872968.721 7  21302255.047
 -13218162.051 7 -10271665.436 7  22024677.211
 11  7 25  2  9 30.0000000  0  9G25G17G10G09G04G02G27G12G05
  -3399122.433 7  -2634810.977 6  23968457.484
  -6829328.636 6  -5296939.185 6  23274383.688
 -20365278.38847 -15049183.18646  20875468.1094                   20875467.7344
  -1622417.10046  -1096341.25443  23842686.2814                   23842690.1454
 -15903099.02848 -11664179.40845  21675677.4694                   21675677.9144
 -22455904.53548 -17452271.82046  20557238.1024                   20557235.5554
  -6140468.00546  -3780209.18143  24044378.0164                   24044380.8954
 -17877984.092 8 -13915270.116 7  21291924.875
 -13308879.803 7 -10342354.511 7  22007414.242
 11  7 25  2 10  0.0000000  0  9G25G17G10G09G04G02G27G12G05
  -3497009.002 7  -2711086.177 6  23949830.016
  -6772041.838 6  -5252300.104 6  23285284.727
 -20367871.05447 -15051203.42246  20874974.7424                   20874974.2424
  -1540240.56746  -1032307.65944  23858324.6334                   23858327.0554
 -15826389.34048 -11604405.64645  21690275.0864                   21690275.1764
 -22455764.79848 -17452162.91546  20557264.7974                   20557262.3954
  -6074873.29845  -3729096.39742  24056859.9064                   24056864.0904
 -17931814.723 8 -13957216.015 7  21281681.063
 -13399292.861 7 -10412806.176 7  21990209.055
 11  7 25  2 10 30.0000000  0  9G25G17G10G09G04G02G27G12G05
  -3594695.717 7  -2787205.656 6  23931241.625
  -6714595.101 6  -5207536.403 6  23296216.594
 -20369829.85647 -15052729.73146  20874602.0864                   20874601.3794
  -1457928.38346   -968168.38743  23873988.6024                   23873990.4694
 -15749532.76848 -11544517.42745  21704900.3914                   21704900.7344
 -22455329.73047 -17451823.87146  20557347.6254                   20557345.0984
                                  24069348.492
 -17985186.565 8 -13998804.432 7  21271524.500
 -13489397.972 7 -10483017.887 7  21973062.297
 11  7 25  2 11  0.0000000  0  9G25G17G10G09G04G02G27G12G05
  -3692179.681 7  -2863167.187 6  23912690.977
  -6656988.348 6  -5162648.019 6  23307179.570
 -20371154.27347 -15053761.72146  20874350.2344                   20874349.5394
  -1375483.77746   -903925.90943  23889677.1954                   23889679.3914
 -15672530.84848 -11484515.94445  21719553.2664                   21719553.6254
 -22454600.35648 -17451255.49346  20557486.1564                   20557483.8794
 -62658669.43515                  24081847.430
 -18038096.590 8 -14040032.987 7  21261456.258
 -13579192.071 7 -10552987.246 7  21955975.492
 11  7 25  2 11 30.0000000  0  9G25G17G10G09G04G02G27G12G05
  -3789459.457 7  -2938969.603 6  23894178.727
  -6599221.849 6  -5117635.159 6  23318171.164
 -20371844.95947 -15054299.89546  20874218.6414                   20874218.4614
  -1292911.23246   -839583.76144  23905389.8444                   23905392.7114
 -15595386.93748 -11424403.84445  21734233.5164                   21734233.6564
 -22453578.93347 -17450459.54646  20557680.4694                   20557677.8284
 -62592946.908 5                  24094356.328
 -18090544.425 8 -14080901.398 7  21251475.672
 -13668673.208 7 -10622712.740 7  21938947.641
 11  7 25  2 12  0.0000000  0  9G25G17G10G09G04G02G27G12G05
  -3886532.341 7  -3014610.777 6  23875706.813
  -6541295.282 6  -5072497.559 6  23329195.180
 -20371901.59547 -15054344.00746  20874207.5164                   20874207.4654
  -1210213.71546   -775144.20344  23921126.3054                   23921129.9104
 -15518102.81447 -11364182.46745  21748939.8754                   21748940.2664
 -22452266.65148 -17449436.96046  20557930.3054                   20557927.6214
 -62527188.00746 -47642816.53053  24106870.8674                   24106873.3794
 -18142527.772 8 -14121407.867 7  21241583.352
 -13757838.886 7 -10692192.422 7  21921979.984
 11  7 25  2 12 30.0000000  0  9G25G17G10G09G04G02G27G12G05
  -3983394.923 7  -3090088.124 6  23857273.891
  -6483207.396 6  -5027234.270 6  23340247.945
 -20371323.58048 -15053893.58046  20874317.7274                   20874317.0904
  -1127394.07246   -710609.49744  23936886.7584                   23936889.6804
 -15440679.56748 -11303852.69645  21763673.2114                   21763673.4804
 -22450663.64948 -17448187.83246  20558235.1954                   20558232.8244
 -62461394.60846 -47591549.05743  24119391.6484                   24119394.1844
 -18194043.656 8 -14161550.092 7  21231780.453
 -13846685.556 7 -10761423.524 7  21905072.617
 11  7 25  2 13  0.0000000  0  9G25G17G10G09G04G02G27G12G05
  -4080044.639 7  -3165399.594 6  23838882.156
  -6424957.923 6  -4981845.075 6  23351333.125
 -20370110.17448 -15052948.05446  20874548.4694                   20874548.4884
  -1044455.87247   -645982.40444  23952669.8674                   23952672.2344
 -15363119.34348 -11243416.17345  21778432.6724                   21778432.9574
 -22448771.04648 -17446713.03446  20558595.1564                   20558592.6524
 -62395569.53646 -47540256.87544  24131918.2194                   24131920.8364
 -18245089.961 8 -14201326.403 7  21222066.656
 -13935210.287 7 -10830403.777 7  21888227.344
 11  7 25  2 13 30.0000000  0  9G25G17G10G09G04G02G27G12G05
  -4176478.509 7  -3240542.874 6  23820531.820
  -6366546.078 6  -4936329.327 6  23362447.844
 -20368261.69148 -15051507.66646  20874900.2274                   20874899.6914
   -961402.38446   -581265.45443  23968473.2194                   23968476.8674
 -15285423.67248 -11182874.11245  21793217.7974                   21793218.3054
 -22446589.49448 -17445013.08146  20559010.4844                   20559007.8054
 -62329715.21546 -47488941.92144  24144449.1884                   24144452.4964
 -18295664.453 8 -14240735.077 7  21212442.586
 -14023409.922 7 -10899130.687 7  21871443.406
 11  7 25  2 14  0.0000000  0  9G25G17G10G09G04G02G27G12G05
  -4272695.280 7  -3315516.956 6  23802222.531
  -6307972.948 7  -4890687.925 6  23373594.625
 -20365778.97648 -15049573.07146  20875372.9304                   20875372.2734
   -878238.06747   -516462.18344  23984300.1254                   23984302.3954
 -15207595.80548 -11122229.02545  21808027.7114                   21808027.8874
 -22444121.74348 -17443090.11646  20559480.0554                   20559477.4064
 -62263835.62447 -47437607.26844  24156985.8444                   24156989.3714
 -18345766.368 8 -14279775.510 7  21202908.383
 -14111283.180 7 -10967603.283 7  21854721.602
 11  7 25  2 14 30.0000000  0  9G25G17G10G09G04G02G27G12G05
  -4368689.639 7  -3390317.740 6  23783955.266
  -6249235.655 7  -4844918.594 6  23384771.711
 -20362659.54948 -15047142.33046  20875965.9844                   20875965.9454
   -794963.68047   -451573.09844  24000146.2114                   24000149.2234
 -15129635.17347 -11061480.47645  21822862.8524                   21822863.2154
 -22441366.53348 -17440943.16646  20560004.0864                   20560001.2934
 -62197931.12847 -47386253.17645  24169526.6094                   24169530.3094
 -18395391.109 8 -14318444.117 7  21193465.102
 -14198824.559 7 -11035817.277 7  21838063.023
 11  7 25  2 15  0.0000000  0  9G25G17G10G09G04G02G27G12G05
  -4464461.406 7  -3464945.093 6  23765729.906
  -6190335.937 7  -4799022.696 6  23395979.766
 -20358905.80948 -15044217.32646  20876681.1804                   20876680.8204
   -711585.08547   -386602.83243  24016013.2664                   24016015.2154
 -15051546.19148 -11000631.92645  21837723.0164                   21837723.5554
 -22438327.11048 -17438574.74946  20560582.6484                   20560579.9734
 -62132006.87746 -47334883.71044  24182072.1644                   24182075.4494
 -18444538.937 8 -14356741.092 7  21184112.523
 -14286033.360 7 -11103772.127 7  21821467.695
 11  7 25  2 15 30.0000000  0  9G25G17G10G09G04G02G27G12G05
  -4560006.768 7  -3539396.014 6  23747547.742
  -6131272.370 7  -4752999.115 6  23407219.375
 -20354516.50648 -15040797.08146  20877516.1724                   20877515.5004
   -628104.21946   -321552.86943  24031898.7814                   24031901.8444
 -14973329.42647 -10939683.78045  21852606.6884                   21852606.9924
 -22435003.46548 -17435984.86346  20561215.2114                   20561212.5434
 -62066064.50847 -47283500.12044  24194620.1484                   24194624.2274
 -18493206.659 8 -14394663.976 7  21174851.273
 -14372906.062 7 -11171465.063 7  21804936.352
 11  7 25  2 16  0.0000000  0  9G25G17G10G09G04G02G27G12G05
  -4655323.138 7  -3613668.470 6  23729410.930
  -6072044.561 7  -4706847.577 6  23418489.867
 -20349491.65147 -15036881.59146  20878472.1414                   20878471.5594
   -544524.81547   -256426.11143  24047803.9774                   24047806.3324
 -14894986.93548 -10878637.66145  21867514.9064                   21867515.6804
 -22431396.61147 -17433174.29146  20561901.7424                   20561898.6484
 -62000106.69146 -47232104.52744  24207171.5784                   24207175.2854
 -18541392.441 8 -14432211.333 7  21165682.109
 -14459439.889 7 -11238893.956 7  21788469.320
 11  7 25  2 16 30.0000000  0  9G25G17G10G09G04G02G27G12G05
  -4750409.138 7  -3687761.415 6  23711316.227
  -6012653.437 7  -4660568.765 6  23429792.172
 -20343832.43448 -15032471.80246  20879549.0944                   20879548.6454
   -460851.59146   -191226.27443  24063726.8364                   24063728.9384
 -14816521.89248 -10817496.06345  21882446.1334                   21882446.9414
 -22427509.05348 -17430145.00146  20562641.3914                   20562638.7734
 -61934137.44546 -47180700.00843  24219725.0944                   24219728.8794
 -18589095.394 8 -14469382.450 7  21156604.094
 -14545633.301 7 -11306057.594 7  21772066.734
 11  7 25  2 17  0.0000000  0  9G25G17G10G09G04G02G27G12G05
  -4845259.454 7  -3761670.693 6  23693266.758
  -5953096.063 7  -4614160.442 6  23441125.117
 -20337536.39247 -15027565.77246  20880746.9844                   20880746.6374
   -377085.17046   -125953.79943  24079666.3594                   24079669.1804
 -14737933.50048 -10756258.34545  21897401.2344                   21897401.3754
 -22423339.24848 -17426895.77646  20563434.4844                   20563432.1994
 -61868156.71646 -47129286.56143  24232280.4694                   24232285.0784
 -18636311.074 8 -14506173.869 7  21147619.453
 -14631480.902 7 -11372951.760 7  21755730.945
 11  7 25  2 17 30.0000000  0  9G25G17G10G09G04G02G27G12G05
  -4939873.689 7  -3835395.995 6  23675262.000
  -5893374.481 7  -4567624.140 6  23452489.156
 -20330606.15148 -15022165.57646  20882066.0234                   20882065.6644
   -293231.05546    -60613.04043  24095623.0004                   24095625.8164
 -14659225.73647 -10694927.60945  21912378.8524                   21912379.1374
 -22418890.75048 -17423429.39046  20564281.2504                   20564278.6254
 -61802169.42245 -47077868.02942  24244837.9844                   24244842.5634
 -18683039.661 8 -14542585.748 7  21138727.641
 -14716982.256 7 -11439576.120 7  21739460.539
 11  7 25  2 18  0.0000000  0  9G25G17G10G09G04G02G27G12G05
  -5034247.307 7  -3908933.794 6  23657303.250
  -5833486.329 7  -4520958.052 6  23463886.297
 -20323039.84248 -15016269.73146  20883505.5784                   20883505.0354
   -209290.83246      4794.82443  24111596.1024                   24111599.3674
 -14580398.67348 -10633503.90645  21927379.0944                   21927379.4064
 -22414162.81148 -17419745.25246  20565180.8674                   20565178.1884
 -61736176.61845 -47026445.16642  24257395.1954                   24257401.1054
 -18729277.118 8 -14578614.912 7  21129928.453
 -14802132.696 7 -11505927.052 7  21723256.914
 11  7 25  2 18 30.0000000  0  9G25G17G10G09G04G02G27G12G05
  -5128380.314 7  -3982284.113 6  23639390.586
  -5773433.735 7  -4474163.814 6  23475313.734
 -20314840.40647 -15009880.54146  20885066.0314                   20885065.4734
   -125270.36446     70265.18844  24127584.8204                   24127588.4734
 -14501456.93548 -10571990.84545  21942401.3914                   21942401.6604
 -22409158.86648 -17415846.04946  20566132.8284                   20566130.0554
 -61670183.444 6                  24269954.492
 -18775024.495 8 -14614262.214 7  21121223.289
 -14886932.018 7 -11572004.377 7  21707120.219
 11  7 25  2 19  0.0000000  0  9G25G17G10G09G04G02G27G12G05
  -5222267.913 7  -4055443.162 6  23621523.492
  -5713214.370 7  -4427239.638 6  23486772.906
 -20306005.70947 -15002996.34146  20886746.9144                   20886746.5004
    -41170.91646    135797.12044  24143589.5394                   24143592.1914
 -14422400.06947 -10510388.06645  21957445.4774                   21957445.8674
 -22403878.27147 -17411731.27546  20567138.0004                   20567135.1454
 -61604190.658 5                  24282511.617
 -18820277.603 8 -14649524.349 7  21112611.789
 -14971375.378 8 -11637804.350 7  21691051.297
 11  7 25  2 19 30.0000000  0  9G25G17G10G09G04G02G27G12G05
  -5315907.524 7  -4128408.966 6  23603704.625
  -5652827.981 6  -4380185.334 6  23498264.180
 -20296536.17148 -14995617.46946  20888549.4064                   20888548.7774
     43004.14347    201387.98244  24159607.6564                   24159610.5944
 -14343230.08047 -10448697.12445  21972510.5084                   21972511.1764
 -22398322.07848 -17407401.74946  20568195.2504                   20568192.1804
 -61538201.27746 -46805087.71252  24295070.0554                   24295071.9654
 -18865034.392 8 -14684399.744 7  21104095.117
 -15055460.355 8 -11703325.038 7  21675050.258
 11  7 25  2 20  0.0000000  0  9G25G17G10G09G04G02G27G12G05
  -5409297.523 7  -4201180.262 6  23585933.336
  -5592275.087 7  -4333001.240 6  23509787.094
 -20286433.00248 -14987744.84546  20890471.3834                   20890471.0354
    127250.60347    267034.52744  24175639.1564                   24175641.4844
 -14263949.86447 -10386920.30345  21987597.4384                   21987597.3714
 -22392492.48248 -17402859.19246  20569304.4924                   20569302.1914
 -61472218.67246 -46753672.76142  24307625.1564                   24307628.7034
 -18909293.865 8 -14718887.613 7  21095672.508
 -15139185.132 8 -11768565.055 7  21659117.617
 11  7 25  2 20 30.0000000  0  9G25G17G10G09G04G02G27G12G05
  -5502434.755 7  -4273754.647 6  23568210.047
  -5531555.048 6  -4285686.960 6  23521342.008
 -20275695.93448 -14979378.29846  20892514.7814                   20892514.3054
    211565.71647    332734.54543  24191683.4064                   24191685.9224
 -14184560.64347 -10325058.56245  22002704.8444                   22002704.9734
 -22386390.17448 -17398104.13446  20570465.7814                   20570462.9494
 -61406244.97746 -46702264.77942  24320180.1884                   24320184.1254
 -18953054.174 8 -14752986.523 7  21087345.195
 -15222546.615 8 -11833522.008 7  21643254.742
 11  7 25  2 21  0.0000000  0  9G25G17G10G09G04G02G27G12G05
  -5595316.378 7  -4346129.801 6  23550534.289
  -5470667.197 6  -4238241.852 6  23532928.297
 -20264325.29348 -14970518.04746  20894678.7034                   20894678.0824
    295946.26947    398485.55643  24207740.4844                   24207743.1954
 -14105063.88247 -10263113.01845  22017831.8054                   22017832.2584
 -22380016.10848 -17393137.31846  20571678.5004                   20571676.0944
 -61340282.88946 -46650865.84843  24332732.7034                   24332736.8164
 -18996313.029 8 -14786694.695 7  21079113.375
 -15305541.838 8 -11898193.555 7  21627460.844
 11  7 25  2 21 30.0000000  0  9G25G17G10G09G04G02G27G12G05
  -5687939.946 7  -4418303.863 6  23532909.125
  -5409611.471 6  -4190665.980 6  23544546.953
 -20252321.58648 -14961164.49846  20896962.6804                   20896962.4654
    380388.50447    464284.65143  24223808.8204                   24223812.0234
 -14025461.75447 -10201085.38145  22032979.9614                   22032980.7344
 -22373371.63248 -17387959.79546  20572942.8594                   20572940.2934
 -61274335.24046 -46599478.17843  24345282.5004                   24345285.7154
 -19039068.639 8 -14820010.704 7  21070977.086
 -15388168.329 8 -11962577.778 7  21611737.664
 11  7 25  2 22  0.0000000  0  9G25G17G10G09G04G02G27G12G05
  -5780302.441 7  -4490274.538 6  23515333.172
  -5348387.284 6  -4142958.812 6  23556197.938
 -20239684.73448 -14951317.58646  20899367.4384                   20899367.0594
    464889.53246    530129.62143  24239889.1174                   24239892.4344
 -13945755.79847 -10138976.82745  22048147.0164                   22048147.3204
 -22366457.63648 -17382572.24746  20574258.6644                   20574255.8244
 -61208404.45546 -46548103.64843  24357828.1884                   24357832.2304
 -19081319.287 8 -14852933.252 7  21062937.281
 -15470423.005 8 -12026672.270 7  21596085.117
 11  7 25  2 22 30.0000000  0  9G25G17G10G09G04G02G27G12G05
  -5872401.537 7  -4562039.936 6  23497807.156
  -5286994.376 6  -4095120.178 6  23567879.984
 -20226415.46548 -14940977.87946  20901892.6174                   20901892.2304
    549446.09146    596017.90442  24255979.1174                   24255982.3484
 -13865947.73047 -10076788.69445  22063333.8364                   22063334.7584
 -22359275.42348 -17376975.71046  20575625.3594                   20575622.7934
 -61142493.32246 -46496744.46443  24370371.2034                   24370374.7704
 -19123063.159 8 -14885460.891 7  21054993.367
 -15552303.672 8 -12090475.348 7  21580503.914
 11  7 25  2 23  0.0000000  0  9G25G17G10G09G04G02G27G12G05
  -5964233.712 6  -4633597.333 6  23480331.531
  -5225431.908 6  -4047149.406 6  23579594.984
 -20212513.22948 -14930144.95046  20904538.2114                   20904537.3054
    634055.57745    661947.26042  24272079.5704                   24272084.0984
 -13786039.01847 -10014522.14745  22078540.5704                   22078541.1414
 -22351824.89248 -17371170.08646  20577043.1174                   20577040.6564
 -61076603.91746 -46445402.17143  24382909.7974                   24382913.1914
 -19164297.711 8 -14917591.668 7  21047146.852
 -15633806.708 8 -12153984.142 7  21564994.242
 11  7 25  2 23 30.0000000  0  9G25G17G10G09G04G02G27G12G05
  -6055796.705 7  -4704944.969 6  23462907.914
  -5163699.781 6  -3999046.445 6  23591342.734
 -20197979.09148 -14918819.61946  20907304.0004                   20907303.1994
    718714.13846    727914.81442  24288190.2344                   24288194.2194
 -13706031.30647  -9952178.46945  22093765.8834                   22093765.3954
 -22344108.30848 -17365157.14946  20578511.8054                   20578508.8984
 -61010739.04345 -46394078.98943  24395443.1024                   24395446.9304
 -19205021.383 8 -14949324.356 7  21039397.328
 -15714929.882 8 -12217196.967 7  21549556.641
 11  7 25  2 24  0.0000000  0  9G25G17G10G09G04G02G27G12G05
  -6147090.182 7  -4776082.651 6  23445535.625
  -5101799.882 6  -3950812.737 6  23603121.594
 -20182815.86348 -14907004.08746  20910189.3444                   20910188.4774
    803416.01546    793916.18543  24304308.8984                   24304312.5314
 -13625928.93247  -9889761.01645  22109008.6884                   22109008.9344
 -22336128.88748 -17358939.40546  20580029.9694                   20580027.5904
 -60944903.65846 -46342778.84343  24407971.7584                   24407974.7344
 -19245234.738 8 -14980659.388 7  21031744.813
 -15795672.872 8 -12280113.538 7  21534191.945
 11  7 25  2 24 30.0000000  0  9G25G17G10G09G04G02G27G12G05
  -6238108.261 7  -4847005.714 6  23428214.672
  -5039728.824 6  -3902445.674 6  23614932.813
 -20167020.89348 -14894696.29646  20913194.9224                   20913194.2854
    888161.35046    859951.44743  24320435.8204                   24320438.6174
 -13545730.25747  -9827268.54245  22124269.9384                   22124270.3284
 -22327884.69348 -17352515.34746  20581599.0394                   20581595.9734
 -60879097.49945 -46291501.37743  24420493.9384                   24420497.6484
 -19284932.425 8 -15011592.602 7  21024190.719
 -15876029.898 7 -12342729.342 7  21518900.656
 11  7 25  2 25  0.0000000  0  9G25G17G10G09G04G02G27G12G05
  -6328849.215 7  -4917712.865 7  23410947.641
  -4977487.705 6  -3853946.042 6  23626777.313
 -20150595.43748 -14881897.22246  20916320.7034                   20916319.9184
    972945.90646    926017.26644  24336570.0554                   24336572.7664
 -13465438.23547  -9764703.34245  22139548.7734                   22139549.6094
 -22319377.71548 -17345886.50946  20583217.6724                   20583215.0354
 -60813324.03846 -46240249.41942  24433010.5474                   24433013.6454
 -19324114.706 8 -15042124.216 7  21016734.555
 -15955999.499 8 -12405043.264 7  21503683.133
 11  7 25  2 25 30.0000000  0  9G25G17G10G09G04G02G27G12G05
  -6419311.240 7  -4988202.676 6  23393733.633
  -4915076.745 6  -3805314.108 6  23638653.570
 -20133541.34748 -14868608.31846  20919565.9924                   20919565.2854
   1057765.98246    992110.76044  24352710.5634                   24352713.7074
 -13385055.06347  -9702067.11345  22154845.6954                   22154845.4924
 -22310609.82448 -17339054.37446  20584885.8364                   20584883.3444
 -60747586.71345 -46189025.68742  24445519.2194                   24445524.3714
 -19362780.134 8 -15072253.073 7  21009376.602
 -16035579.935 8 -12467053.955 7  21488539.273
 11  7 25  2 26  0.0000000  0  9G25G17G10G09G04G02G27G12G05
  -6509490.966 7  -5058472.494 6  23376572.891
  -4852494.605 6  -3756548.741 6  23650562.617
 -20115858.17648 -14854829.19946  20922930.6254                   20922930.4224
   1142618.73847   1058229.73344  24368857.8444                   24368860.5274
 -13304582.14247  -9639360.93945  22170158.5164                   22170158.6724
 -22301581.46948 -17332019.26846  20586603.7584                   20586601.4734
 -60681887.60245 -46137831.66243  24458021.7734                   24458025.4924
 -19400926.257 8 -15101977.294 7  21002117.836
 -16114767.180 7 -12528758.259 7  21473470.086
 11  7 25  2 26 30.0000000  0  9G25G17G10G09G04G02G27G12G05
  -6599385.543 7  -5128520.144 6  23359466.430
  -4789741.062 6  -3707649.875 6  23662504.727
 -20097546.57848 -14840560.40146  20926415.1884                   20926414.9804
   1227500.97847   1124371.68645  24385010.5314                   24385013.6564
 -13224020.65147  -9576585.75845  22185488.9384                   22185489.2424
 -22292293.73548 -17324782.06446  20588371.3754                   20588368.9574
 -60616228.94346 -46086669.21942  24470516.5164                   24470520.5394
 -19438551.157 8 -15131295.369 7  20994957.828
 -16193558.999 8 -12590154.430 7  21458476.648
 11  7 25  2 27  0.0000000  0  9G25G17G10G09G04G02G27G12G05
  -6688992.507 7  -5198343.709 6  23342414.469
  -4726816.242 6  -3658617.518 6  23674478.055
 -20078607.40748 -14825802.57846  20930019.5314                   20930018.6804
   1312409.45447   1190534.06345  24401167.8054                   24401170.8014
 -13143372.56447  -9513743.09145  22200836.0004                   22200835.7304
 -22282748.00048 -17317343.80846  20590188.0784                   20590185.3404
 -60550613.53546 -46035540.35442  24483001.9844                   24483007.5124
 -19475653.360 8 -15160206.144 7  20987897.633
 -16271953.127 8 -12651240.719 7  21443558.773
 11  7 25  2 27 30.0000000  0  9G25G17G10G09G04G02G27G12G05
  -6778309.043 7  -5267940.963 6  23325417.625
  -4663719.446 6  -3609451.175 6  23686486.164
 -20059040.96448 -14810555.97246  20933742.6414                   20933742.0434
   1397341.23046   1256714.59044  24417329.7194                   24417333.7774
 -13062639.47347  -9450834.18145  22216199.2814                   22216199.3524
 -22272945.29948 -17309705.31646  20592053.3984                   20592050.9454
 -60485043.97946 -45984447.27442  24495480.7194                   24495485.2384
 -19512231.344 8 -15188708.440 7  20980936.922
 -16349946.787 8 -12712014.956 7  21428716.969
 11  7 25  2 28  0.0000000  0  8G25G17G10G09G04G02G12G05
  -6867332.540 7  -5337309.885 6  23308477.195
  -4600450.794 6  -3560150.895 6  23698525.039
 -20038848.06748 -14794821.22246  20937585.5474                   20937585.0004
   1482292.93446   1322910.63744  24433495.7974                   24433498.9884
 -12981822.89547  -9387860.24445  22231577.8834                   22231578.1524
 -22262886.79648 -17301867.49946  20593967.4774                   20593964.6644
 -19548283.340 8 -15216800.873 7  20974076.680
 -16427537.520 8 -12772475.223 7  21413951.891
 11  7 25  2 28 30.0000000  0  8G25G17G10G09G04G02G12G05
  -6956060.906 7  -5406448.842 6  23291592.914
  -4537010.294 6  -3510716.744 6  23710596.781
 -20018030.22648 -14778599.50446  20941546.5634                   20941546.0864
   1567260.96747   1389119.40744  24449664.9144                   24449668.1414
 -12900925.28147  -9324823.14145  22246972.5864                   22246972.6024
 -22252574.16248 -17293831.65546  20595929.9614                   20595927.2704
 -19583807.820 8 -15244482.266 7  20967316.617
 -16504723.129 8 -12832619.816 7  21399264.094
 11  7 25  2 29  0.0000000  0  8G25G17G10G09G04G02G12G05
  -7044490.795 7  -5475355.237 6  23274765.250
  -4473397.173 6  -3461148.095 6  23722702.367
 -19996587.72148 -14761891.04546  20945626.8754                   20945626.5904
   1652242.48246   1455338.67943  24465835.8444                   24465839.3834
 -12819947.45247  -9261723.54045  22262381.2344                   22262382.6094
 -22242008.16448 -17285598.39146  20597940.6254                   20597937.8244
 -19618803.354 8 -15271751.483 7  20960656.680
 -16581500.581 8 -12892446.350 7  21384653.875
 11  7 25  2 29 30.0000000  0  8G25G17G10G09G04G02G12G05
  -7132620.380 7  -5544027.638 6  23257994.328
  -4409611.737 6  -3411445.145 6  23734840.328
 -19974521.83248 -14744696.82746  20949826.1484                   20949825.4884
   1737233.62046   1521565.38443  24482008.6174                   24482012.7194
 -12738891.91547  -9198563.38045  22277806.3914                   22277806.2234
 -22231190.23548 -17277168.81246  20599999.0784                   20599996.5514
 -19653268.887 8 -15298607.724 7  20954098.328
 -16657868.269 8 -12951953.592 7  21370120.656
 11  7 25  2 30  0.0000000  0  8G25G17G10G09G04G02G12G05
  -7220445.350 7  -5612462.663 6  23241282.070
  -4345652.252 6  -3361606.566 6  23747011.625
 -19951831.74247 -14727016.20946  20954143.6094                   20954142.9574
   1822232.98646   1587798.53043  24498183.8674                   24498188.0084
 -12657758.69247  -9135342.68245  22293244.8284                   22293245.9734
 -22220120.29348 -17268542.86446  20602105.6484                   20602102.8164
 -19687201.080 8 -15325048.377 7  20947641.242
 -16733821.907 8 -13011138.205 7  21355667.367
 11  7 25  2 30 30.0000000  0  8G25G17G10G09G04G02G12G05
  -7307964.130 7  -5680659.108 6  23224627.914
  -4281519.622 6  -3311633.115 6  23759215.719
 -19928519.37847 -14708850.70746  20958580.0084                   20958579.5784
   1907236.16545   1654034.61742  24514359.0234                   24514363.7854
 -12576550.40347  -9072063.49545  22308698.7734                   22308698.5394
 -22208800.30648 -17259722.07546  20604259.9224                   20604257.2974
 -19720599.629 8 -15351073.196 7  20941285.648
 -16809360.275 8 -13069999.221 7  21341292.922
 11  7 25  2 31  0.0000000  0  8G25G17G10G09G04G02G12G05
  -7395174.833 7  -5748615.490 6  23208032.227
  -4217214.284 6  -3261525.040 6  23771452.078
 -19904586.46048 -14690201.66946  20963134.2974                   20963133.9144
   1992239.22845   1720270.69742  24530533.7894                   24530539.1954
 -12495269.37447  -9008727.61545  22324165.9064                   22324166.3794
 -22197232.49448 -17250708.17946  20606461.0474                   20606458.3594
 -19753463.715 8 -15376681.563 7  20935032.070
 -16884481.452 8 -13128535.158 7  21326998.141
 11  7 25  2 31 30.0000000  0  8G25G17G10G09G04G02G12G05
  -7482073.408 7  -5816328.640 6  23191495.781
  -4152734.746 6  -3211281.242 6  23783721.875
 -19880032.70648 -14671068.85346  20967807.0634                   20967806.3794
   2077240.67345   1786505.45842  24546710.5944                   24546714.9734
 -12413915.87247  -8945335.27445  22339646.9224                   22339647.1684
 -22185416.52448 -17241500.91246  20608709.6804                   20608706.7934
 -19785790.420 8 -15401871.181 7  20928880.141
 -16959181.581 8 -13186743.000 7  21312783.133
 11  7 25  2 32  0.0000000  0  8G25G17G10G09G04G02G12G05
  -7568658.263 7  -5883797.347 6  23175018.781
  -4088081.820 6  -3160902.366 6  23796025.508
 -19854859.78348 -14651453.57446  20972597.2034                   20972596.3674
   2162235.78046   1852735.35143  24562884.1414                   24562888.6214
 -12332492.50847  -8881888.49945  22355141.6484                   22355141.4494
 -22173354.55948 -17232101.95746  20611004.8674                   20611001.8444
 -19817579.431 8 -15426641.814 7  20922831.023
 -17033459.650 8 -13244621.985 7  21298648.320
 11  7 25  2 32 30.0000000  0  8G25G17G10G09G04G02G12G05
  -7654926.253 7  -5951019.147 6  23158602.977
  -4023254.983 6  -3110387.943 6  23808361.469
 -19829068.34348 -14631356.34146  20977504.5784                   20977504.0824
   2247222.16146   1918958.42543  24579057.8444                   24579060.7344
 -12251000.58947  -8818388.27345  22370648.2814                   22370648.8674
 -22161047.32248 -17222511.88046  20613346.5314                   20613344.0474
 -19848828.896 8 -15450992.020 7  20916884.328
 -17107312.448 8 -13302169.583 7  21284594.508
 11  7 25  2 33  0.0000000  0  8G25G17G10G09G04G02G12G05
  -7740874.406 7  -6017991.708 6  23142247.641
  -3958253.241 6  -3059737.226 6  23820730.492
 -19802659.14447 -14610777.72946  20982530.4774                   20982529.8444
   2332196.95846   1985172.50943  24595227.7504                   24595231.0204
 -12169440.95147  -8754835.29445  22386169.0234                   22386168.8794
 -22148495.50348 -17212731.22846  20615735.2114                   20615732.7154
 -19879537.059 8 -15474920.444 7  20911041.086
 -17180737.013 8 -13359383.487 7  21270622.289
 11  7 25  2 33 30.0000000  0  8G25G17G10G09G04G02G12G05
  -7826501.199 7  -6084713.822 6  23125953.219
  -3893077.872 6  -3008951.227 6  23833133.156
 -19775634.34247 -14589719.42946  20987672.9694                   20987672.2584
   2417155.86346   2051374.14343  24611395.5944                   24611398.0784
 -12087816.52847  -8691231.84445  22401701.5234                   22401702.0514
 -22135701.58548 -17202761.92046  20618169.6094                   20618167.0554
 -19909703.445 8 -15498426.681 7  20905300.320
 -17253732.023 8 -13416262.667 7  21256731.594
 11  7 25  2 34  0.0000000  0  8G25G17G10G09G04G02G12G05
  -7911801.731 7  -6151181.686 6  23109721.398
  -3827726.217 6  -2958027.887 6  23845569.422
 -19747992.47347 -14568180.30146  20992933.3284                   20992932.7704
   2502098.17246   2117562.88243  24627559.3754                   24627562.0984
 -12006126.65547  -8627577.39545  22417246.9224                   22417247.1134
 -22122664.26048 -17192602.94546  20620650.5084                   20620647.8874
 -19939323.850 8 -15521507.500 7  20899663.758
 -17326293.189 8 -13472803.794 7  21242923.773
 11  7 25  2 34 30.0000000  0  8G25G17G10G09G04G02G12G05
  -7996775.746 7  -6217395.117 6  23093551.203
  -3762200.438 6  -2906968.822 6  23858038.320
 -19719737.12447 -14546163.14246  20998310.0704                   20998309.4144
   2587018.27946   2183734.28843  24643718.9064                   24643722.1024
 -11924375.09447  -8563874.87045  22432804.1884                   22432803.4844
 -22109387.30048 -17182257.25546  20623177.4924                   20623174.1954
 -19968400.182 8 -15544164.341 7  20894130.484
 -17398420.625 8 -13529006.946 7  21229198.688
 11  7 25  2 35  0.0000000  0  8G25G17G10G09G04G02G12G05
  -8081419.521 7  -6283351.191 7  23077443.594
  -3696499.423 6  -2855773.238 6  23870541.086
 -19690868.34347 -14523667.97946  21003802.9774                   21003802.8324
   2671914.25346   2249886.94743  24659873.3754                   24659877.7814
 -11842562.31247  -8500124.65445  22448371.5784                   22448372.3914
 -22095870.77348 -17171724.88846  20625749.2424                   20625746.3674
 -19996929.909 8 -15566395.274 7  20888701.430
 -17470110.702 8 -13584869.304 7  21215555.875
 11  7 25  2 35 30.0000000  0  8G25G17G10G09G04G02G12G05
  -8165730.531 7  -6349047.971 7  23061400.031
  -3630623.184 6  -2804441.102 6  23883076.430
 -19661387.57648 -14500695.94346  21009413.4144                   21009412.7424
   2756783.15946   2316018.49443  24676023.6414                   24676027.7774
 -11760689.82547  -8436327.88645  22463951.6094                   22463951.6214
 -22082115.78448 -17161006.69546  20628366.8054                   20628363.9694
 -20024911.521 8 -15588199.101 7  20883377.016
 -17541360.989 8 -13640388.956 7  21201997.969
 11  7 25  2 36  0.0000000  0  8G25G17G10G09G04G02G12G05
  -8249706.605 7  -6414483.748 7  23045420.094
  -3564571.704 6  -2752972.400 6  23895646.516
 -19631296.13647 -14477248.05445  21015139.6334                   21015139.2154
   2841621.35546   2382126.07243  24692168.0474                   24692171.8244
 -11678759.63547  -8372486.18045  22479542.6174                   22479542.8244
 -22068123.89448 -17150103.90746  20631029.5314                   20631026.6214
 -20052344.021 7 -15609575.050 7  20878156.648
 -17612169.752 8 -13695564.571 7  21188523.305
 11  7 25  2 36 30.0000000  0  8G25G17G10G09G04G02G12G05
  -8333343.949 7  -6479655.574 7  23029503.953
  -3498343.630 6  -2701366.105 6  23908249.188
 -19600593.97547 -14453324.28846  21020982.2664                   21020981.3204
   2926426.90346   2448208.22243  24708306.3284                   24708310.0514
 -11596772.10947  -8308599.79445  22495144.3834                   22495144.9414
 -22053895.00548 -17139016.43846  20633737.0234                   20633734.1804
 -20079224.914 8 -15630521.179 7  20873041.656
 -17682533.761 8 -13750393.632 7  21175133.133
 11  7 25  2 37  0.0000000  0  8G25G17G10G09G04G02G12G05
  -8416641.186 7  -6544562.387 6  23013653.109
  -3431940.088 6  -2649623.053 6  23920885.203
 -19569283.39047 -14428926.42446  21026940.3594                   21026939.8954
   3011195.37446   2514261.47143  24724437.1174                   24724441.0164
 -11514729.78847  -8244670.70444  22510756.0004                   22510756.6644
 -22039431.67948 -17127746.29446  20636489.6334                   20636486.4224
 -20105554.433 8 -15651037.662 7  20868030.742
 -17752451.613 8 -13804875.041 7  21161828.328
 11  7 25  2 37 30.0000000  0  8G25G17G10G09G04G02G12G05
  -8499594.792 7  -6609201.466 6  22997867.984
  -3365360.098 6  -2597742.520 6  23933554.344
 -19537364.87647 -14404054.84146  21033013.9064                   21033013.2894
   3095924.72946   2580284.20843  24740560.4774                   24740564.4264
 -11432633.48647  -8180699.53744  22526378.5784                   22526378.9574
 -22024734.00348 -17116293.53946  20639286.2894                   20639283.3984
 -20131330.447 7 -15671122.834 7  20863125.563
 -17821919.879 8 -13859006.104 7  21148608.992
 11  7 25  2 38  0.0000000  0  8G25G17G10G09G04G02G12G05
  -8582202.638 7  -6673571.097 6  22982147.211
  -3298604.077 6  -2545724.825 6  23946257.703
 -19504840.41548 -14378711.09546  21039203.1724                   21039202.8094
   3180611.30746   2646273.65543  24756675.5234                   24756680.2774
 -11350485.09447  -8116687.81145  22542010.9384                   22542011.2974
 -22009803.73648 -17104659.55046  20642127.1804                   20642124.3794
 -20156551.998 8 -15690775.977 7  20858326.547
 -17890936.971 8 -13912785.613 7  21135475.344
 11  7 25  2 38 30.0000000  0  8G25G17G10G09G04G02G12G05
  -8664461.901 7  -6737669.096 7  22966493.938
  -3231671.524 6  -2493569.544 6  23958995.313
 -19471710.81148 -14352895.82545  21045507.6094                   21045507.3014
   3265252.34145   2712227.58743  24772782.1024                   24772786.8954
 -11268285.65547  -8052636.30845  22557652.7344                   22557653.5204
 -21994641.86648 -17092845.08646  20645012.3834                   20645009.3484
 -20181217.578 8 -15709995.884 7  20853632.313
 -17959500.581 8 -13966211.762 7  21122428.484
 11  7 25  2 39  0.0000000  0  8G25G17G10G09G04G02G12G05
  -8746370.383 7  -6801493.771 6  22950907.398
  -3164562.507 6  -2441276.788 5  23971765.531
 -19437977.93547 -14326610.45645  21051926.9064                   21051926.0004
   3349844.49746   2778143.45443  24788879.9304                   24788884.1954
 -11186037.06347  -7988546.49845  22573303.9454                   22573304.7974
 -21979249.61748 -17080851.10246  20647941.7034                   20647938.5204
 -20205326.825 8 -15728782.282 7  20849044.992
 -18027608.798 8 -14019283.057 7  21109467.773
 11  7 25  2 39 30.0000000  0  8G25G17G10G09G04G02G12G05
  -8827925.659 7  -6865043.241 6  22935387.461
  -3097277.352 6  -2388846.750 6  23984568.859
 -19403643.21747 -14299856.12046  21058460.1094                   21058459.9414
   3434384.56846   2844018.75843  24804967.6254                   24804971.4344
 -11103741.00747  -7924419.71344  22588964.5944                   22588965.0314
 -21963628.42648 -17068678.72346  20650914.4384                   20650911.6334
 -20228878.364 7 -15747134.113 7  20844562.859
 -18095259.338 8 -14071997.733 7  21096594.188
 11  7 25  2 40  0.0000000  0  8G25G17G10G09G04G02G12G05
  -8909123.504 7  -6928314.207 6  22919936.047
  -3029814.145 6  -2336278.004 6  23997406.398
 -19368706.23748 -14272632.50146  21065108.7034                   21065108.1844
   3518871.20846   2909852.38343  24821046.2814                   24821049.2234
 -11021397.07747  -7860255.58744  22604634.7584                   22604634.1564
 -21947777.82348 -17056327.57346  20653930.3674                   20653927.4844
 -20251869.591 7 -15765049.322 7  20840188.055
 -18162448.381 8 -14124352.788 7  21083808.484
 11  7 25  2 40 30.0000000  0  8G25G17G10G09G04G02G12G05
  -8989963.709 7  -6991306.487 6  22904552.563
  -2962175.134 6  -2283572.302 6  24010277.883
 -19333170.88947 -14244942.60146  21071870.5944                   21071870.5744
   3603299.18346   2975640.35843  24837111.4304                   24837115.2664
 -10939009.36047  -7796057.37044  22620312.5084                   22620311.9924
 -21931701.47048 -17043800.52046  20656989.8984                   20656986.7814
 -20274301.422 7 -15782528.671 7  20835919.273
 -18229176.288 8 -14176348.522 7  21071110.625
 11  7 25  2 41  0.0000000  0  8G25G17G10G09G04G02G12G05
  -9070432.517 7  -7054009.384 7  22889240.094
  -2894349.260 6  -2230720.958 6  24023185.195
 -19297027.39948 -14216778.83346  21078748.5784                   21078748.3204
   3687676.53046   3041388.82043  24853167.4304                   24853171.9734
 -10856567.73447  -7731817.14744  22635999.8984                   22636000.7734
 -21915389.15848 -17031089.60646  20660093.6094                   20660090.8404
 -20296162.101 7 -15799562.940 7  20831759.422
 -18295429.713 8 -14227974.541 7  21058502.961
 11  7 25  2 41 30.0000000  0  7G25G17G10G04G02G12G05
  -9150546.200 7  -7116435.571 7  22873994.555
  -2826355.011 6  -2177738.398 6  24036124.727
 -19260295.98548 -14188156.93745  21085738.3754                   21085737.5274
 -10774092.57747  -7667550.77444  22651694.5704                   22651694.7854
 -21898860.95948 -17018210.47046  20663238.8984                   20663235.7704
 -20317468.957 8 -15816165.672 7  20827704.531
 -18361225.181 8 -14279243.689 7  21045982.367
 11  7 25  2 42  0.0000000  0  7G25G17G10G04G02G12G05
  -9230294.311 7  -7178576.911 7  22858819.164
  -2758184.315 6  -2124618.369 6  24049096.453
 -19222970.30947 -14159071.98846  21092841.1174                   21092840.9024
 -10691577.33247  -7603253.16744  22667397.0944                   22667396.9024
 -21882110.16848 -17005157.87846  20666426.3444                   20666423.5824
 -20338213.343 7 -15832330.108 7  20823757.156
 -18426552.763 8 -14330148.265 7  21033550.945
 11  7 25  2 42 30.0000000  0  7G25G17G10G04G02G12G05
  -9309673.880 7  -7240431.054 7  22843714.008
  -2689836.789 5  -2071360.571 6  24062101.938
 -19185051.27247 -14129524.67446  21100056.9694                   21100056.3054
 -10609023.16247  -7538925.23544  22683106.0784                   22683106.0824
 -21865137.39848 -16991932.32546  20669656.1804                   20669653.4454
 -20358393.841 8 -15848055.157 7  20819916.500
 -18491409.991 8 -14380686.336 7  21021209.117
 11  7 25  2 43  0.0000000  0  7G25G17G10G04G02G12G05
  -9388680.605 7  -7301994.695 7  22828679.508
  -2621310.699 6  -2017963.650 6  24075143.055
 -19146538.74347 -14099514.90746  21107385.4924                   21107385.4414
 -10526429.48947  -7474566.53944  22698823.3364                   22698823.2544
 -21847942.07848 -16978533.35446  20672928.3674                   20672925.7544
 -20378007.393 8 -15863338.434 7  20816184.828
 -18555792.863 8 -14430854.764 7  21008957.695
 11  7 25  2 43 30.0000000  0  7G25G17G10G04G02G12G05
  -9467314.161 7  -7363267.559 7  22813716.094
  -2552608.255 6  -1964429.257 6  24088215.570
 -19107436.45747 -14069045.59146  21114826.6724                   21114826.4534
 -10443800.06247  -7410179.98744  22714547.0234                   22714547.3594
 -21830527.60448 -16964963.60946  20676242.3284                   20676239.7154
 -20397055.415 8 -15878181.020 7  20812559.852
 -18619701.465 8 -14480653.636 7  20996796.117
 11  7 25  2 44  0.0000000  0  7G25G17G10G04G02G12G05
  -9545571.085 7  -7424246.937 7  22798824.016
  -2483728.331 6  -1910756.602 6  24101323.016
 -19067744.93247 -14038117.11046  21122379.8524                   21122379.0984
 -10361135.14047  -7345765.74644  22730278.1484                   22730277.9534
 -21812894.23948 -16951223.30746  20679597.6094                   20679595.1604
 -20415536.216 8 -15892581.644 7  20809043.281
 -18683132.946 8 -14530080.733 7  20984725.109
 11  7 25  2 44 30.0000000  0  7G25G17G10G04G02G12G05
  -9623448.575 7  -7484930.660 7  22784004.453
  -2414670.545 6  -1856945.352 6  24114465.070
 -19027465.62648 -14006730.61946  21130044.4924                   21130044.3094
 -10278435.66247  -7281324.58844  22746014.9694                   22746015.7074
 -21795042.68248 -16937312.98046  20682995.0634                   20682991.7584
 -20433448.284 8 -15906539.068 7  20805634.773
 -18746084.631 8 -14579133.958 7  20972745.883
 11  7 25  2 45  0.0000000  0  7G25G17G10G04G02G12G05
  -9700944.432 7  -7545317.001 7  22769257.734
  -2345435.390 6  -1802995.896 6  24127640.336
 -18986600.39247 -13974887.56146  21137821.1564                   21137820.5234
 -10195703.39447  -7216857.89144  22761758.5864                   22761758.9064
 -21776974.46548 -16923233.83446  20686432.7974                   20686430.1914
 -20450791.228 8 -15920053.047 7  20802334.148
 -18808554.935 8 -14627812.078 7  20960858.141
 11  7 25  2 45 30.0000000  0  7G25G17G10G04G02G12G05
  -9778055.756 7  -7605403.701 7  22754583.586
  -2276022.295 6  -1748907.771 6  24140848.273
 -18945150.58547 -13942588.98946  21145708.8524                   21145708.6134
 -10112939.42847  -7152366.49344  22777508.1724                   22777507.6804
 -21758690.28248 -16908986.39546  20689912.5234                   20689909.9224
 -20467563.893 8 -15933122.635 7  20799142.852
 -18870541.820 8 -14676113.505 7  20949062.375
 11  7 25  2 46  0.0000000  0  7G25G17G10G04G02G12G05
  -9854779.957 7  -7665188.762 7  22739983.578
  -2206430.997 6  -1694680.814 6  24154091.430
 -18903117.45147 -13909835.89646  21153707.3054                   21153707.1254
 -10030144.81947  -7087851.22044  22793263.6484                   22793264.2814
 -21740190.90448 -16894571.28546  20693432.7274                   20693429.9574
 -20483765.115 8 -15945746.953 7  20796059.820
 -18932042.795 8 -14724036.307 7  20937359.281
 11  7 25  2 46 30.0000000  0  7G25G17G10G04G02G12G05
  -9931115.549 7  -7724671.011 7  22725457.531
  -2136662.414 6  -1640315.700 6  24167368.156
 -18860504.04047 -13876630.63746  21161816.3674                   21161815.6254
  -9947321.66647  -7023313.71844  22809023.1804                   22809023.9774
 -21721479.04048 -16879990.59746  20696993.6724                   20696990.7704
 -20499395.127 8 -15957926.170 7  20793085.305
 -18993057.212 8 -14771579.980 7  20925748.656
 11  7 25  2 47  0.0000000  0  7G25G17G10G04G02G12G05
 -10007058.332 7  -7783847.171 7  22711005.688
  -2066715.118 6  -1585811.332 6  24180678.750
 -18817310.23947 -13842973.11345  21170035.7734                   21170035.2734
  -9864469.82847  -6958753.85144  22824790.4224                   22824790.2774
 -21702553.74048 -16865243.59746  20700594.3754                   20700592.0784
 -20514450.992 7 -15969657.985 7  20790220.125
 -19053581.300 8 -14818741.566 7  20914231.289
 11  7 25  2 47 30.0000000  0  7G25G17G10G04G02G12G05
 -10082606.962 7  -7842716.185 7  22696628.922
  -1996590.174 6  -1531168.494 6  24194024.117
 -18773539.05747 -13808865.68245  21178365.2114                   21178365.0634
  -9781591.68747  -6894173.48744  22840561.3754                   22840561.9884
 -21683417.50048 -16850332.22546  20704236.5314                   20704233.6644
 -20528933.580 8 -15980943.112 7  20787464.648
 -19113614.209 8 -14865520.417 7  20902807.070
 11  7 25  2 48  0.0000000  0  7G25G17G10G04G02G12G05
 -10157758.947 7  -7901276.123 7  22682328.336
  -1926287.482 6  -1476387.232 6  24207401.547
 -18729192.07048 -13774309.58546  21186804.4614                   21186804.1804
  -9698688.43347  -6829573.55244  22856337.4304                   22856337.9264
 -21664071.24048 -16835257.20046  20707917.8204                   20707914.5164
 -20542842.264 8 -15991781.025 7  20784817.656
 -19173154.066 8 -14911915.078 7  20891477.188
 11  7 25  2 48 30.0000000  0  7G25G17G10G04G02G12G05
 -10232511.991 7  -7959525.199 7  22668102.945
  -1855807.125 6  -1421467.465 6  24220812.984
 -18684271.08848 -13739306.20445  21195352.3204                   21195351.7034
  -9615761.47647  -6764955.13944  22872117.6334                   22872117.9414
 -21644516.18148 -16820019.47246  20711638.8204                   20711636.1764
 -20556176.317 8 -16002171.191 7  20782280.125
 -19232198.909 8 -14957924.012 7  20880240.914
 11  7 25  2 49  0.0000000  0  7G25G17G10G04G02G12G05
 -10306863.311 7  -8017461.226 7  22653954.352
  -1785148.872 6  -1366409.071 6  24234259.320
 -18638777.87248 -13703856.93746  21204009.4454                   21204008.8554
  -9532811.75147  -6700318.99844  22887903.0394                   22887903.3874
 -21624753.29548 -16804619.80746  20715399.8364                   20715396.6564
 -20568934.597 8 -16012112.686 7  20779852.250
 -19290746.612 8 -15003545.568 7  20869099.977
 11  7 25  2 49 30.0000000  0  7G25G17G10G04G02G12G05
 -10380810.172 7  -8075082.111 7  22639882.570
  -1714312.364 6  -1311211.755 5  24247738.359
 -18592713.69847 -13667962.75045  21212775.3364                   21212774.8364
  -9449840.14147  -6635665.78844  22903692.0234                   22903691.3524
 -21604783.26448 -16789058.72446  20719199.9304                   20719196.8954
 -20581116.034 7 -16021604.707 7  20777534.586
 -19348795.143 8 -15048778.157 7  20858053.695
 11  7 25  2 50  0.0000000  0  8G25G17G10G29G04G02G12G05
 -10454350.345 7  -8132386.087 7  22625888.508
  -1643298.214 6  -1255875.977 5  24261252.719
 -18546080.71947 -13631625.35846  21221649.2114                   21221648.4734
    702068.38516    558894.78015  24651831.781
  -9366848.11847  -6570996.68644  22919484.6804                   22919484.9414
 -21584607.50548 -16773337.33246  20723039.0474                   20723035.7974
 -20592720.378 8 -16030647.040 7  20775326.117
 -19406342.950 8 -15093620.558 7  20847102.531
 11  7 25  2 50 30.0000000  0  8G25G17G10G29G04G02G12G05
 -10527484.059 7  -8189373.310 7  22611972.016
  -1572108.607 6  -1200403.570 6  24274798.969
 -18498883.41147 -13594848.21845  21230630.4064                   21230629.8554
    621891.187 6    496419.115 6  24636573.906
  -9283839.69347  -6506314.80944  22935280.7504                   22935281.0514
 -21564229.73548 -16757458.53346  20726916.7584                   20726913.7274
 -20603749.421 8 -16039241.088 7  20773227.805
 -19463390.228 8 -15138072.944 7  20836247.172
 11  7 25  2 51  0.0000000  0  8G25G17G10G29G04G02G12G05
 -10600203.294 7  -8246037.609 7  22598133.664
  -1500738.153 6  -1144790.239 6  24288379.680
 -18451118.11547 -13557628.51445  21239719.8674                   21239719.6414
    541649.132 6    433892.887 5  24621304.234
  -9200810.22947  -6441616.50044  22951080.5004                   22951080.0044
 -21543645.48248 -16741418.84446  20730834.1804                   20730831.0164
 -20614197.049 8 -16047382.087 7  20771239.133
 -19519930.061 8 -15182129.920 7  20825487.844
 11  7 25  2 51 30.0000000  0  8G25G17G10G29G04G02G12G05
 -10672508.686 7  -8302379.421 7  22584374.094
  -1429189.960 5  -1089038.414 5  24301995.250
 -18402789.67947 -13519969.97445  21248916.4844                   21248915.7464
    461339.844 6    371314.381 6  24606021.609
  -9117764.03747  -6376905.17744  22966883.6804                   22966884.1414
 -21522858.71048 -16725221.35546  20734789.5004                   20734786.3634
 -20624065.798 8 -16055072.010 7  20769361.328
 -19575963.567 8 -15225792.351 7  20814824.773
 11  7 25  2 52  0.0000000  0  8G25G17G10G29G04G02G12G05
 -10744396.879 7  -8358396.108 7  22570694.539
  -1357463.176 5  -1033147.470 5  24315644.961
 -18353898.87747 -13481873.23745  21258219.5864                   21258219.2624
    380964.763 6    308684.552 5  24590726.578
  -9034701.46047  -6312181.08644  22982690.3914                   22982690.9384
 -21501869.69948 -16708866.26546  20738783.4144                   20738780.8444
 -20633354.213 8 -16062309.720 7  20767593.570
 -19631488.339 8 -15269058.376 7  20804258.539
 11  7 25  2 52 30.0000000  0  8G25G17G10G29G04G02G12G05
 -10815867.388 7  -8414087.355 7  22557094.133
  -1285559.722 6   -977118.819 5  24329326.836
 -18304449.83947 -13443341.51845  21267630.2274                   21267629.2544
    300522.529 6    246002.453 5  24575419.453
  -8951625.53247  -6247446.59544  22998498.4384                   22998498.8594
 -21480681.54448 -16692356.00746  20742815.7894                   20742812.7274
 -20642063.439 8 -16069096.110 7  20765936.398
 -19686504.285 8 -15311927.917 7  20793789.375
 11  7 25  2 53  0.0000000  0  8G25G17G10G29G04G02G12G05
 -10886916.550 7  -8469450.289 7  22543573.211
  -1213478.405 6   -920951.572 5  24343044.711
 -18254443.21947 -13404375.30045  21277145.9144                   21277145.0904
    220014.904 6    183269.327 5  24560098.719
  -8868535.84046  -6182701.41044  23014310.2424                   23014310.5314
 -21459293.79947 -16675690.21246  20746885.2424                   20746882.7034
 -20650191.865 8 -16075429.946 7  20764389.859
 -19741008.036 8 -15354398.338 7  20783417.742
 11  7 25  2 53 30.0000000  0  8G25G17G10G29G04G02G12G05
 -10957543.045 7  -8524483.857 7  22530133.617
  -1141220.014 6   -864646.272 5  24356795.305
 -18203881.91348 -13364976.87245  21286767.0944                   21286766.7584
    139441.510 6    120484.931 5  24544766.875
  -8785435.01146  -6117947.51244  23030123.2814                   23030124.0784
 -21437708.84548 -16658870.75346  20750992.9844                   20750990.1994
 -20657739.707 8 -16081311.365 7  20762953.242
 -19794999.419 8 -15396469.509 7  20773143.234
 11  7 25  2 54  0.0000000  0  8G25G17G10G29G04G02G12G05
 -11027742.977 7  -8579185.051 7  22516775.039
  -1068783.704 6   -808202.338 6  24370578.820
 -18152766.57147 -13325146.73245  21296494.5784                   21296493.7854
     58804.229 6     57650.864 5  24529421.516
  -8702322.34646  -6053184.40944  23045939.8674                   23045939.8164
 -21415926.22248 -16641897.25746  20755137.3914                   20755135.2624
 -20664705.334 8 -16086739.115 7  20761627.602
 -19848474.859 8 -15438138.666 7  20762967.633
 11  7 25  2 54 30.0000000  0  8G25G17G10G29G04G02G12G05
 -11097513.877 7  -8633551.925 7  22503498.086
   -996169.198 6   -751619.599 6  24384396.203
 -18101098.90047 -13284886.18845  21306326.2894                   21306325.5594
    -21896.391 6     -5232.553 6  24514064.219
  -8619199.10146  -5988413.05644  23061757.1644                   23061757.3094
 -21393946.99947 -16624770.57946  20759320.2974                   20759317.8834
 -20671088.220 7 -16091712.770 7  20760413.141
 -19901432.736 8 -15479404.510 7  20752889.781
 11  7 25  2 55  0.0000000  0  8G25G17G10G29G04G02G12G05
 -11166855.205 7  -8687584.081 7  22490303.133
   -923378.089 6   -694899.279 6  24398248.320
 -18048882.94347 -13244198.42145  21316262.5784                   21316261.9454
   -102661.519 6    -68166.330 6  24498696.344
  -8536068.00046  -5923635.58744  23077576.8984                   23077577.4414
 -21371773.57047 -16607492.56446  20763540.1954                   20763537.0164
 -20676889.344 7 -16096233.123 7  20759309.141
 -19953873.133 8 -15520267.119 8  20742910.813
 11  7 25  2 55 30.0000000  0  8G25G17G10G29G04G02G12G05
 -11235762.231 7  -8741277.805 7  22477190.109
   -850408.302 6   -638039.721 6  24412133.773
 -17996118.36147 -13203083.14445  21326303.1954                   21326302.7504
   -183488.023 6   -131147.824 6  24483314.805
  -8452927.77546  -5858851.03544  23093397.6414                   23093397.6884
 -21349404.65948 -16590062.24046  20767796.7424                   20767793.6374
 -20682106.230 8 -16100298.205 7  20758316.438
 -20005792.309 8 -15560723.587 8  20733030.664
 11  7 25  2 56  0.0000000  0  8G25G17G10G29G04G02G12G05
 -11304235.595 7  -8794633.642 7  22464160.078
   -777262.948 6   -581043.360 6  24426053.250
 -17942810.44547 -13161544.50146  21336447.2974                   21336446.9264
   -264378.282 6   -194179.142 6  24467921.789
  -8369782.47947  -5794062.50644  23109219.7664                   23109219.8134
 -21326844.68048 -16572483.03046  20772089.7584                   20772086.8634
 -20686741.712 8 -16103910.261 7  20757434.172
 -20057191.480 8 -15600774.859 7  20723249.813
 11  7 25  2 56 30.0000000  0  8G25G17G10G29G04G02G12G05
 -11372270.536 7  -8847647.831 7  22451213.844
   -703939.760 6   -523908.450 6  24440006.078
 -17888958.20247 -13119581.70045  21346695.1094                   21346694.6484
   -345329.638 6   -257258.067 6  24452516.820
  -8286630.88047  -5729269.06644  23125043.5314                   23125043.6174
 -21304092.22048 -16554753.82546  20776419.2894                   20776416.3284
 -20690792.658 8 -16107066.827 7  20756663.352
 -20108066.509 8 -15640417.708 8  20713568.914
 11  7 25  2 57  0.0000000  0  8G25G17G10G29G04G02G12G05
 -11439865.886 7  -8900319.472 7  22438350.539
   -630439.715 6   -466635.711 6  24453992.789
 -17834565.00747 -13077197.38345  21357045.9224                   21357045.5944
   -426342.359 6   -320384.794 6  24437100.914
  -8203475.06347  -5664472.34844  23140867.1024                   23140867.1254
 -21281149.34348 -16536876.23646  20780785.0394                   20780781.8284
 -20694260.005 8 -16109768.640 7  20756003.523
 -20158416.813 8 -15679651.684 8  20703987.102
 11  7 25  2 57 30.0000000  0  8G25G17G10G29G04G02G12G05
 -11507018.708 7  -8952646.296 7  22425571.852
   -556762.541 6   -409224.942 6  24468013.484
 -17779632.52047 -13034392.83645  21367499.1484                   21367498.3914
   -507415.185 7   -383558.352 6  24421673.719
  -8120315.47347  -5599672.68244  23156692.6414                   23156693.0124
 -21258016.36448 -16518850.51546  20785187.0554                   20785184.1254
 -20697142.765 8 -16112014.928 7  20755455.336
 -20208240.480 8 -15718475.284 7  20694506.313
 11  7 25  2 58  0.0000000  0  8G25G17G10G29G04G02G12G05
 -11573727.396 7  -9004627.034 7  22412877.445
   -482909.257 6   -351676.947 6  24482067.313
 -17724163.64647 -12991170.31845  21378054.6414                   21378053.6724
   -588548.076 6   -446778.803 6  24406233.445
  -8037153.85547  -5534871.44744  23172516.7664                   23172517.2584
 -21234695.06948 -16500678.04246  20789624.9224                   20789622.4264
 -20699441.168 8 -16113805.898 7  20755017.289
 -20257536.413 8 -15756887.666 8  20685125.328
 11  7 25  2 58 30.0000000  0  8G25G17G10G29G04G02G12G05
 -11639988.469 7  -9056258.975 7  22400268.445
   -408878.557 6   -293990.683 6  24496154.180
 -17668159.10547 -12947530.39945  21388711.7034                   21388711.3914
   -669739.508 6   -510044.873 6  24390783.641
  -7953990.07047  -5470068.51244  23188342.9064                   23188343.3954
 -21211185.37048 -16482358.77146  20794098.9844                   20794095.9304
 -20701154.078 8 -16115140.609 7  20754691.625
 -20306302.063 8 -15794886.839 8  20675845.445
 11  7 25  2 59  0.0000000  0  8G25G17G10G29G04G02G12G05
 -11705800.832 7  -9107541.275 7  22387744.531
   -334671.566 6   -236167.036 6  24510275.828
 -17611622.38547 -12903475.80845  21399470.5704                   21399470.1174
   -750989.802 6   -573356.780 6  24375322.781
  -7870826.23247  -5405265.54144  23204168.6484                   23204168.6724
 -21187489.39648 -16463894.34446  20798607.8674                   20798605.0784
 -20702281.790 8 -16116019.344 8  20754477.016
 -20354536.895 8 -15832472.405 8  20666666.781
 11  7 25  2 59 30.0000000  0  7G25G10G29G04G02G12G05
 -11771161.412 7  -9158471.513 7  22375307.023
 -17554554.58947 -12859007.39545  21410330.2664                   21410329.7034
   -832297.323 6   -636713.296 6  24359849.984
  -7787662.53047  -5340462.66344  23219993.6804                   23219994.3164
 -21163607.13948 -16445284.77946  20803152.7274                   20803149.4844
 -20702824.076 8 -16116441.893 7  20754374.203
 -20402238.678 8 -15869642.592 8  20657589.531
 11  7 25  3  0  0.0000000  0  7G25G10G29G04G02G12G05
 -11836069.953 7  -9209049.549 7  22362954.641
 -17496960.23347 -12814128.67045  21421289.9384                   21421289.0864
   -913663.663 7   -700115.625 6  24344366.891
  -7704502.09247  -5275662.34744  23235818.7974                   23235819.1764
 -21139542.03048 -16426532.71946  20807731.8364                   20807728.9144
 -20702782.580 8 -16116409.552 7  20754382.141
 -20449407.865 8 -15906397.779 7  20648613.359
 11  7 25  3  0 30.0000000  0  7G25G10G29G04G02G12G05
 -11900521.555 7  -9259271.473 7  22350690.344
 -17438839.02747 -12768839.40945  21432349.9534                   21432349.3554
   -995085.569 6   -763561.228 6  24328872.734
  -7621342.85647  -5210862.94944  23251644.0314                   23251643.8594
 -21115291.99148 -16407636.57746  20812346.5234                   20812343.9844
 -20702154.532 8 -16115920.152 7  20754501.180
 -20496040.521 8 -15942734.896 8  20639739.805
 11  7 25  3  1  0.0000000  0  7G25G10G29G04G02G12G05
 -11964515.511 7  -9309136.839 7  22338512.336
 -17380194.22047 -12723142.15945  21443509.8054                   21443508.8714
  -1076563.492 6   -827050.459 6  24313367.711
  -7538187.67247  -5146066.70444  23267466.8364                   23267467.6684
 -21090859.83048 -16388598.51146  20816995.8524                   20816992.9184
 -20700940.996 8 -16114974.535 8  20754732.391
 -20542136.854 8 -15978654.083 8  20630967.750
 11  7 25  3  1 30.0000000  0  7G25G10G29G04G02G12G05
 -12028050.120 7  -9358644.246 7  22326422.391
 -17321028.58947 -12677039.06345  21454768.3444                   21454767.9224
  -1158097.134 7   -890583.111 6  24297852.375
  -7455037.87046  -5081274.66544  23283290.0784                   23283290.1334
 -21066246.87748 -16369419.56346  20821679.5164                   20821676.1454
 -20699142.407 8 -16113573.026 7  20755074.266
 -20587695.780 8 -16014154.520 8  20622298.289
 11  7 25  3  2  0.0000000  0  7G25G10G29G04G02G12G05
 -12091121.307 7  -9407790.585 7  22314420.102
 -17261342.79247 -12630530.66145  21466126.3054                   21466125.7234
  -1239684.211 6   -954157.337 6  24282326.875
  -7371892.39846  -5016485.99343  23299111.4454                   23299112.5164
 -21041452.32548 -16350099.11246  20826397.8134                   20826395.0084
 -20696756.662 8 -16111714.012 7  20755528.508
 -20632714.021 7 -16049233.645 8  20613731.359
 11  7 25  3  2 30.0000000  0  7G25G10G29G04G02G12G05
 -12153728.236 7  -9456575.139 7  22302506.461
 -17201140.32347 -12583619.64245  21477582.3284                   21477581.6884
  -1321325.283 6  -1017773.667 6  24266790.422
  -7288753.95146  -4951702.79144  23314932.6884                   23314933.3244
 -21016478.50248 -16330638.97646  20831150.3444                   20831147.3014
 -20693785.523 8 -16109398.829 7  20756093.633
 -20677191.645 8 -16083891.500 8  20605267.773
 11  7 25  3  3  0.0000000  0  7G25G10G29G04G02G12G05
 -12215867.941 7  -9504995.640 7  22290682.281
 -17140422.42447 -12536306.99645  21489136.4614                   21489135.8674
  -1403019.016 6  -1081430.964 6  24251244.445
  -7205622.39046  -4886924.97543  23330752.3984                   23330752.7424
 -20991325.62548 -16311039.31646  20835936.7664                   20835933.7074
 -20690227.978 8 -16106626.711 7  20756770.758
 -20721126.246 8 -16118126.238 8  20596907.367
 11  7 25  3  3 30.0000000  0  7G25G10G29G04G02G12G05
 -12277539.596 7  -9553051.405 7  22278945.586
 -17079192.91147 -12488595.68045  21500788.4774                   21500787.6054
  -1484765.863 6  -1145129.663 5  24235688.414
  -7122499.91546  -4822154.18243  23346570.1414                   23346570.0904
 -20965995.99848 -16291301.94846  20840756.8364                   20840753.7934
 -20686085.332 8 -16103398.674 7  20757559.367
 -20764518.295 8 -16151938.195 8  20588649.859
 11  7 25  3  4  0.0000000  0  7G25G10G29G04G02G12G05
 -12338739.603 8  -9600739.684 7  22267299.945
 -17017452.87047 -12440486.54845  21512536.5394                   21512536.6804
  -1566563.493 6  -1208867.950 5  24220121.789
  -7039386.27546  -4757390.31043  23362385.0394                   23362386.1094
 -20940489.10948 -16271426.44646  20845610.2664                   20845607.6294
 -20681356.151 8 -16099713.595 7  20758459.063
 -20807364.869 8 -16185325.112 8  20580496.547
 11  7 25  3  4 30.0000000  0  7G25G10G29G04G02G12G05
 -12399467.001 7  -9648059.697 7  22255743.891
 -16955205.51347 -12391982.10245  21524382.0944                   21524381.6954
  -1648412.225 6  -1272646.038 5  24204547.773
  -6956283.14147  -4692634.64443  23378200.2584                   23378200.3874
 -20914807.23548 -16251414.58946  20850497.3914                   20850494.3954
 -20676041.548 8 -16095572.338 7  20759470.281
 -20849665.576 8 -16218286.672 8  20572446.961
 11  7 25  3  5  0.0000000  0  7G25G10G29G04G02G12G05
 -12459719.713 8  -9695009.826 7  22244278.109
 -16892453.51647 -12343084.44045  21536323.9614                   21536322.9304
  -1730311.885 6  -1336463.888 6  24188962.875
  -6873191.71446  -4627888.08643  23394011.4454                   23394012.2074
 -20888951.04548 -16231266.90646  20855417.5704                   20855414.9884
 -20670141.416 8 -16090974.830 7  20760592.992
 -20891419.302 8 -16250822.021 8  20564501.313
 11  7 25  3  5 30.0000000  0  7G25G10G29G04G02G12G05
 -12519495.585 8  -9741588.386 7  22232903.164
 -16829199.19747 -12293795.34345  21548360.4454                   21548359.6454
  -1812261.318 6  -1400320.498 6  24173368.383
  -6790112.77046  -4563151.24344  23409821.7194                   23409821.8054
 -20862921.46948 -16210984.11246  20860371.0084                   20860367.9614
 -20663656.293 8 -16085921.470 7  20761827.102
 -20932625.119 8 -16282930.428 8  20556659.953
 11  7 25  3  6  0.0000000  0  7G25G10G29G04G02G12G05
 -12578791.624 8  -9787793.046 7  22221619.719
 -16765443.79247 -12244115.78945  21560492.7894                   21560492.1134
  -1894258.815 6  -1464214.573 6  24157764.414
  -6707046.14347  -4498423.99144  23425628.6174                   23425627.7734
 -20836718.54648 -16190566.23246  20865357.3754                   20865354.3914
 -20656585.187 8 -16080411.518 7  20763172.563
 -20973280.723 8 -16314610.083 8  20548923.547
 11  7 25  3  6 30.0000000  0  7G25G10G29G04G02G12G05
 -12637606.393 8  -9833622.730 7  22210427.242
 -16701190.60947 -12194048.37345  21572719.7194                   21572719.3404
  -1976304.064 7  -1528145.833 6  24142152.359
  -6623993.38146  -4433707.53944  23441432.8364                   23441432.8754
 -20810344.25348 -16170014.82246  20870375.9844                   20870372.9104
 -20648928.849 8 -16074445.516 7  20764629.438
 -21013385.485 8 -16345860.525 8  20541291.742
 11  7 25  3  7  0.0000000  0  7G25G10G29G04G02G12G05
 -12695938.743 8  -9879076.466 7  22199326.938
 -16636442.87047 -12143595.57345  21585040.7974                   21585039.8364
  -2058397.303 7  -1592114.476 6  24126530.023
  -6540956.31646  -4369003.32644  23457234.3054                   23457234.5824
 -20783800.27948 -16149331.20446  20875427.2194                   20875424.1054
 -20640688.464 8 -16068024.427 7  20766197.891
 -21052939.138 8 -16376681.532 8  20533764.945
 11  7 25  3  7 30.0000000  0  7G25G10G29G04G02G12G05
 -12753784.931 8  -9924151.410 7  22188319.031
 -16571201.42147 -12092758.07745  21597455.4144                   21597455.1174
  -2140535.875 7  -1656118.463 6  24110899.047
  -6457933.96346  -4304310.57244  23473032.8134                   23473032.8444
 -20757085.62648 -16128514.56946  20880510.9844                   20880508.2034
 -20631862.554 8 -16061147.086 7  20767877.398
 -21091939.006 8 -16407071.008 8  20526343.477
 11  7 25  3  8  0.0000000  0  7G25G10G29G04G02G12G05
 -12811143.156 8  -9968846.115 7  22177404.359
 -16505468.80747 -12041537.85045  21609964.7114                   21609963.6844
  -2222719.352 6  -1720157.383 6  24095260.320
  -6374927.56047  -4239630.27244  23488829.1954                   23488828.7234
 -20730201.52048 -16107565.91146  20885626.8594                   20885623.5204
 -20622451.375 8 -16053813.698 7  20769668.414
 -21130384.292 8 -16437028.344 8  20519027.414
 11  7 25  3  8 30.0000000  0  7G25G10G29G04G02G12G05
 -12868011.568 8 -10013159.149 7  22166582.836
 -16439247.62647 -11989936.91845  21622566.0234                   21622564.9384
  -2304947.233 6  -1784230.900 6  24079612.844
  -6291938.04747  -4174963.12644  23504620.5234                   23504621.6954
 -20703149.13548 -16086486.12346  20890774.5554                   20890771.4614
 -20612455.601 8 -16046024.758 7  20771570.352
 -21168273.779 8 -16466552.593 8  20511817.672
 11  7 25  3  9  0.0000000  0  7G25G10G29G04G02G12G05
 -12924389.397 8 -10057089.891 7  22155854.125
 -16372541.50047 -11937958.09545  21635259.4844                   21635258.7544
  -2387219.406 6  -1848338.934 6  24063957.594
  -6208967.36847  -4110310.69143  23520409.7734                   23520410.4804
 -20675930.63948 -16065276.89846  20895953.9224                   20895950.8594
 -20601876.768 8 -16037781.516 7  20773583.070
 -21205608.147 8 -16495644.272 8  20504713.141
 11  7 25  3  9 30.0000000  0  7G25G10G29G04G02G12G05
 -12980273.595 8 -10100635.987 7  22145219.352
 -16305351.69347 -11885602.37645  21648045.1884                   21648044.7424
  -2469534.401 6  -1912480.326 6  24048293.297
  -6126015.49047  -4045672.85244  23536194.8444                   23536195.2704
 -20648545.77348 -16043938.03346  20901165.7274                   20901162.4104
 -20590713.506 8 -16029082.865 7  20775707.688
 -21242384.565 8 -16524301.194 8  20497714.719
 11  7 25  3 10  0.0000000  0  7G25G10G29G04G02G12G05
 -13035663.018 7 -10143796.552 7  22134679.633
 -16237681.69947 -11832872.50245  21660922.6724                   21660921.8594
  -2551891.984 6  -1976654.887 6  24032620.469
  -6043083.57446  -3981050.58144  23551976.6804                   23551976.6764
 -20620996.43548 -16022471.00046  20906408.1884                   20906404.5594
 -20578967.722 8 -16019930.299 7  20777942.930
 -21278603.247 8 -16552523.521 8  20490822.578
 11  7 25  3 10 30.0000000  0  7G25G10G29G04G02G12G05
 -13090555.151 7 -10186569.623 7  22124233.797
 -16169533.62847 -11779770.09345  21673890.4454                   21673889.9654
  -2634290.664 6  -2040861.499 6  24016939.383
  -5960172.13946  -3916444.26243  23567754.2664                   23567754.2194
 -20593283.05148 -16000876.13246  20911681.4924                   20911678.4774
 -20566639.028 8 -16010323.512 7  20780288.984
 -21314262.518 8 -16580309.932 8  20484036.938
 11  7 25  3 11  0.0000000  0  7G25G10G29G04G02G12G05
 -13144947.655 8 -10228953.344 7  22113883.297
 -16100909.38947 -11726296.64145  21686949.2424                   21686948.8524
  -2716729.348 6  -2105099.264 6  24001252.555
  -5877281.68046  -3851854.29143  23583527.3984                   23583527.5594
 -20565405.89848 -15979153.65746  20916986.1024                   20916983.1334
 -20553727.314 8 -16000262.434 7  20782745.844
 -21349361.271 8 -16607659.589 8  20477357.734
 11  7 25  3 11 30.0000000  0  7G25G10G29G04G02G12G05
 -13198838.726 8 -10270946.337 7  22103627.867
 -16031811.60047 -11672454.20245  21700098.5084                   21700097.4614
  -2799207.271 6  -2169367.623 6  23985556.828
  -5794412.87746  -3787281.22343  23599296.5234                   23599297.2074
 -20537365.83148 -15957304.23746  20922322.3754                   20922319.3204
 -20540232.660 8 -15989747.121 7  20785313.969
 -21383898.888 8 -16634571.984 8  20470785.508
 11  7 25  3 12  0.0000000  0  7G25G10G29G04G02G12G05
 -13252226.588 8 -10312547.244 7  22093468.922
 -15962242.99147 -11618244.88745  21713336.6414                   21713336.2344
  -2881723.616 6  -2233665.850 6  23969854.906
  -5711566.74246  -3722725.81943  23615061.4304                   23615062.0274
 -20509164.18848 -15935328.92846  20927688.9774                   20927685.5474
 -20526156.197 8 -15978778.445 7  20787992.406
 -21417873.838 8 -16661045.946 8  20464320.211
 11  7 25  3 12 30.0000000  0  7G25G10G29G04G02G12G05
 -13305110.711 8 -10353755.595 7  22083405.289
 -15892207.18547 -11563671.51445  21726663.7344                   21726663.4734
  -2964278.451 6  -2297994.180 6  23954144.797
  -5628745.26746  -3658189.61243  23630822.0784                   23630823.0474
 -20480802.89048 -15913229.20846  20933085.4384                   20933082.5394
 -20511499.777 8 -15967357.854 7  20790781.539
 -21451286.681 8 -16687081.903 8  20457962.000
 11  7 25  3 13  0.0000000  0  7G25G10G29G04G02G12G05
 -13357488.327 8 -10394569.267 7  22073438.352
 -15821706.06447 -11508735.57745  21740079.8594                   21740079.2854
  -3046870.248 6  -2362351.283 6  23938428.148
  -5545948.05446  -3593672.29143  23646577.4614                   23646578.3134
 -20452282.07948 -15891005.18546  20938513.1724                   20938510.0864
 -20496262.657 8 -15955484.769 7  20793681.023
 -21484135.960 8 -16712678.717 8  20451710.664
 11  7 25  3 13 30.0000000  0  7G25G10G29G04G02G12G05
 -13409357.366 8 -10434986.662 7  22063567.984
 -15750742.25347 -11453439.07745  21753583.5784                   21753583.2814
  -3129497.895 7  -2426736.355 6  23922705.164
  -5463175.99246  -3529174.57743  23662329.2114                   23662328.8484
 -20423602.50248 -15868657.44646  20943970.6174                   20943967.3134
 -20480445.314 8 -15943159.570 7  20796691.086
 -21516420.602 8 -16737835.561 8  20445567.203
 11  7 25  3 14  0.0000000  0  7G25G10G29G04G02G12G05
 -13460716.006 8 -10475006.327 7  22053794.039
 -15679317.94147 -11397783.76545  21767175.5704                   21767174.6174
  -3212160.206 7  -2491148.372 6  23906973.883
  -5380429.45147  -3464696.72843  23678074.8444                   23678075.0314
 -20394764.73748 -15846186.45046  20949458.2194                   20949455.3674
 -20464047.933 8 -15930382.381 7  20799811.516
 -21548139.801 8 -16762551.792 8  20439531.234
 11  7 25  3 14 30.0000000  0  7G25G10G29G04G02G12G05
 -13511562.778 8 -10514627.132 7  22044118.477
 -15607436.18247 -11341771.99445  21780854.2034                   21780853.7584
  -3294856.976 7  -2555587.344 6  23891237.734
  -5297709.57647  -3400239.68143  23693816.2114                   23693816.3754
 -20365770.19448 -15823593.28746  20954975.4924                   20954972.0864
 -20447071.915 8 -15917154.313 7  20803041.883
 -21579293.066 8 -16786827.031 8  20433602.953
 11  7 25  3 15  0.0000000  0  7G25G10G29G04G02G12G05
 -13561896.651 8 -10553848.300 7  22034540.039
 -15535100.61747 -11285406.61745  21794619.2734                   21794617.9924
  -3377587.903 7  -2620052.952 6  23875494.773
  -5215018.06446  -3335804.74043  23709551.9224                   23709552.2074
 -20336620.50648 -15800879.23646  20960522.5784                   20960519.6414
 -20429518.462 8 -15903476.295 7  20806382.102
 -21609879.982 8 -16810660.960 8  20427782.641
 11  7 25  3 15 30.0000000  0  7G25G10G29G04G02G12G05
 -13611713.759 8 -10592666.776 7  22025060.867
 -15462311.47847 -11228687.79245  21808470.1804                   21808469.7154
  -3460349.526 7  -2684542.453 5  23859745.445
  -5132353.33147  -3271390.65943  23725282.3914                   23725281.9224
 -20307314.11348 -15778043.07746  20966099.6414                   20966096.4184
 -20411385.490 8 -15889346.698 7  20809832.727
 -21639898.048 8 -16834051.632 8  20422070.234
 11  7 25  3 16  0.0000000  0  7G25G10G29G04G02G12G05
 -13661015.105 8 -10631083.383 7  22015678.703
 -15389074.10847 -11171619.70545  21822407.2194                   21822406.6644
  -3543143.665 7  -2749057.310 6  23843990.359
  -5049718.84046  -3207000.15343  23741006.9844                   23741007.1684
 -20277855.02248 -15755087.92946  20971705.1644                   20971702.2304
 -20392677.315 8 -15874768.879 7  20813392.570
 -21669349.246 8 -16857000.589 8  20416465.641
 11  7 25  3 16 30.0000000  0  7G25G10G29G04G02G12G05
 -13709796.963 8 -10669095.190 7  22006395.789
 -15315388.99847 -11114202.73545  21836428.4384                   21836428.0744
  -3625967.374 7  -2813595.174 6  23828229.648
  -4967113.18546  -3142632.12843  23756727.0554                   23756726.8014
 -20248241.94348 -15732012.79746  20977340.2504                   20977337.2894
 -20373392.304 8 -15859741.590 7  20817062.469
 -21698231.232 8 -16879506.004 8  20410969.695
 11  7 25  3 17  0.0000000  0  7G25G10G29G04G02G12G05
 -13758057.050 8 -10706700.439 7  21997212.156
 -15241258.31247 -11056438.56245  21850535.5394                   21850535.1214
  -3708819.442 7  -2878155.171 6  23812462.633
  -4884536.44646  -3078286.63143  23772440.7344                   23772440.5514
 -20218475.10048 -15708817.84446  20983005.1024                   20983001.9454
 -20353530.641 8 -15844264.963 7  20820842.250
 -21726542.434 8 -16901566.656 8  20405582.086
 11  7 25  3 17 30.0000000  0  7G25G10G29G04G02G12G05
 -13805794.730 8 -10743898.608 7  21988127.773
 -15166686.12647 -10998330.37245  21864725.9614                   21864725.0084
  -3791699.821 7  -2942737.190 6  23796690.695
  -4801990.49546  -3013965.06843  23788148.6334                   23788148.2704
 -20188556.22448 -15685504.43146  20988698.5164                   20988695.4224
 -20333093.462 8 -15828339.878 7  20824731.070
 -21754283.268 7 -16923182.864 8  20400303.148
 11  7 25  3 18  0.0000000  0  7G25G10G29G04G02G12G05
 -13853009.695 8 -10780689.474 7  21979143.422
 -15091676.31147 -10939881.16245  21878999.6254                   21878999.4924
  -3874608.220 7  -3007341.053 6  23780914.055
  -4719477.25246  -2949669.03943  23803850.5164                   23803850.8094
 -20158487.74348 -15662074.43346  20994420.2274                   20994417.0124
 -20312083.257 8 -15811968.288 7  20828729.328
 -21781454.325 8 -16944355.093 8  20395132.664
 11  7 25  3 18 30.0000000  0  7G25G10G29G04G02G12G05
 -13899697.254 8 -10817069.383 7  21970258.602
 -15016228.66547 -10881090.80145  21893357.1094                   21893356.3444
  -3957541.197 6  -3071964.066 6  23765131.375
  -4636994.10146  -2885396.44943  23819545.3834                   23819546.7384
 -20128267.29948 -15638526.03246  21000170.7274                   21000167.9964
 -20290498.022 8 -15795148.606 7  20832836.938
 -21808052.370 8 -16965080.816 8  20390071.383
 11  7 25  3 19  0.0000000  0  7G25G10G29G04G02G12G05
 -13945857.610 8 -10853038.477 7  21961474.641
 -14940347.64547 -10821962.72045  21907796.6644                   21907796.3984
  -4040499.529 6  -3136606.803 6  23749345.906
  -4554543.96546  -2821149.61543  23835235.7734                   23835236.5824
 -20097897.73148 -15614861.43946  21005949.9454                   21005947.0594
 -20268340.464 8 -15777882.980 7  20837053.141
 -21834078.278 8 -16985360.722 8  20385118.609
 11  7 25  3 19 30.0000000  0  7G25G10G29G04G02G12G05
 -13991490.522 8 -10888596.583 7  21952791.180
 -14864037.07447 -10762499.95945  21922318.2424                   21922317.6414
  -4123483.659 6  -3201269.685 6  23733554.461
  -4472128.65346  -2756929.90743  23850919.1724                   23850918.9534
 -20067381.09748 -15591082.23946  21011757.0084                   21011753.8794
 -20245612.656 8 -15760172.984 7  20841378.430
 -21859533.091 8 -17005195.616 8  20380274.867
 11  7 25  3 20  0.0000000  0  7G25G10G29G04G02G12G05
 -14036592.588 8 -10923741.052 7  21944208.688
 -14787297.86147 -10702703.17545  21936921.3284                   21936920.6294
  -4206490.422 6  -3265950.196 6  23717759.031
  -4389746.85846  -2692736.30643  23866595.4224                   23866596.4384
 -20036716.36648 -15567187.64046  21017592.3134                   21017589.3094
 -20222313.342 8 -15742017.664 7  20845811.656
 -21884414.633 8 -17024583.801 8  20375539.797
 11  7 25  3 20 30.0000000  0  7G25G10G29G04G02G12G05
 -14081162.242 8 -10958470.635 7  21935727.398
 -14710133.09047 -10642574.78445  21951605.0704                   21951604.4884
  -4289518.755 7  -3330647.497 6  23701959.156
  -4307399.23046  -2628569.35943  23882266.3594                   23882266.5394
 -20005904.49548 -15543178.38546  21023455.7034                   21023452.9144
 -20198443.845 8 -15723418.052 7  20850354.273
 -21908722.416 8 -17043524.913 8  20370914.453
 11  7 25  3 21  0.0000000  0  7G25G10G29G04G02G12G05
 -14125199.150 8 -10992785.092 7  21927347.352
 -14632546.42447 -10582117.66045  21966369.9064                   21966368.9024
  -4372568.914 6  -3395361.787 6  23686155.023
  -4225087.76146  -2564430.54743  23897928.8754                   23897930.0434
 -19974947.07948 -15519055.72746  21029346.7894                   21029343.8594
 -20174006.119 8 -15704375.663 7  20855004.234
 -21932456.740 8 -17062019.157 8  20366397.711
 11  7 25  3 21 30.0000000  0  7G25G10G29G04G02G12G05
 -14168700.633 8 -11026682.346 7  21919068.984
 -14554539.34047 -10521332.91645  21981213.5634                   21981213.1914
  -4455638.832 7  -3460091.495 6  23670347.422
  -4142811.64246  -2500319.26943  23913586.1024                   23913586.4384
 -19943843.99148 -15494819.55546  21035265.5554                   21035262.2114
 -20148999.767 8 -15684890.199 7  20859763.117
 -21955616.504 8 -17080065.715 8  20361990.391
 11  7 25  3 22  0.0000000  0  7G25G10G29G04G02G12G05
 -14211665.397 8 -11060161.355 7  21910893.398
 -14476114.91247 -10460222.96745  21996137.0314                   21996136.6374
  -4538727.441 7  -3524835.751 6  23654536.039
  -4060571.74246  -2436236.24943  23929235.8834                   23929235.8954
 -19912596.39048 -15470470.77946  21041211.7034                   21041208.4064
 -20123426.163 8 -15664962.711 7  20864629.563
 -21978201.395 8 -17097664.309 8  20357692.961
 11  7 25  3 22 30.0000000  0  7G25G10G29G04G02G12G05
 -14254092.457 8 -11093221.386 7  21902819.438
 -14397276.52247 -10398790.46645  22011139.6254                   22011139.5164
  -4621834.210 7  -3589594.200 6  23638721.500
  -3978369.21746  -2372182.28143  23944878.4924                   23944878.5044
 -19881205.48948 -15446010.33446  21047185.1024                   21047181.9804
 -20097287.014 8 -15644594.538 7  20869603.258
 -22000211.420 8 -17114814.947 8  20353504.547
 11  7 25  3 23  0.0000000  0  7G25G10G29G04G02G12G05
 -14295980.300 8 -11125861.227 7  21894848.398
 -14318026.61647 -10337037.29845  22026220.5784                   22026219.5274
  -4704957.663 7  -3654365.613 6  23622903.539
  -3896204.55346  -2308157.86543  23960514.1024                   23960513.9144
 -19849671.97948 -15421438.76046  21053185.6884                   21053182.7194
 -20070583.050 8 -15623786.257 7  20874685.086
 -22021646.079 8 -17131517.257 8  20349425.727
 11  7 25  3 23 30.0000000  0  7G25G10G29G04G02G12G05
 -14337326.100 8 -11158078.680 7  21886981.047
 -14238367.07047 -10274964.93245  22041379.4304                   22041378.6214
  -4788095.503 7  -3719148.200 6  23607082.820
  -3814076.88546  -2244162.29643  23976142.4224                   23976142.7464
 -19817995.13148 -15396755.50046  21059213.5864                   21059210.6954
 -20043313.678 8 -15602537.399 7  20879874.555
 -22042503.960 8 -17147770.126 8  20345456.375
 11  7 25  3 24  0.0000000  0  7G25G10G29G04G02G12G05
 -14378130.831 8 -11189874.550 7  21879215.914
 -14158302.49547 -10212576.95245  22056615.2664                   22056614.6684
  -4871249.129 7  -3783943.125 6  23591259.195
  -3731989.13946  -2180197.78743  23991763.2114                   23991763.1174
 -19786178.17147 -15371963.05346  21065268.2114                   21065265.2664
 -20015482.360 7 -15580850.643 7  20885170.500
 -22062786.922 8 -17163575.014 8  20341596.633
 11  7 25  3 24 30.0000000  0  7G25G10G29G04G02G12G05
 -14418390.919 8 -11221246.005 7  21871554.742
 -14077833.70547 -10149874.00545  22071927.8914                   22071927.2974
  -4954415.249 7  -3848747.793 6  23575433.000
  -3649939.70246  -2116263.13343  24007376.6024                   24007376.3444
 -19754219.49648 -15347060.18746  21071349.7664                   21071346.8364
 -19987088.406 8 -15558725.494 7  20890574.141
 -22082492.604 8 -17178930.066 8  20337847.078
 11  7 25  3 25  0.0000000  0  7G25G10G29G04G02G12G05
 -14458104.991 8 -11252191.973 7  21863997.195
 -13996963.53547 -10086858.27245  22087316.4224                   22087316.2734
  -5037592.527 7  -3913561.123 6  23559604.484
  -3567929.09946  -2052358.72743  24022981.9454                   24022981.9144
 -19722120.18748 -15322047.72746  21077458.1564                   21077455.0354
 -19958132.803 8 -15536162.673 7  20896083.633
 -22101620.650 8 -17193835.010 8  20334206.625
 11  7 25  3 25 30.0000000  0  7G25G10G29G04G02G12G05
 -14497273.398 8 -11282712.777 7  21856543.633
 -13915696.48247 -10023533.29845  22102781.7344                   22102780.6804
  -5120781.751 7  -3978383.792 6  23543774.188
  -3485959.59947  -1988486.34643  24038581.1804                   24038580.7974
 -19689882.59847 -15296927.52346  21083592.5634                   21083589.1484
 -19928618.187 8 -15513164.270 7  20901699.953
 -22120172.793 8 -17208291.198 8  20330676.102
 11  7 25  3 26  0.0000000  0  7G25G10G29G04G02G12G05
 -14535894.221 8 -11312806.884 7  21849194.141
 -13834034.78647  -9959900.80545  22118321.2194                   22118320.9734
  -5203980.988 7  -4043214.237 6  23527941.891
  -3404031.15547  -1924645.94743  24054170.8754                   24054171.4804
 -19657506.85848 -15271699.66546  21089753.3134                   21089750.4264
 -19898545.327 8 -15489730.879 7  20907423.008
 -22138148.060 8 -17222297.878 8  20327255.734
 11  7 25  3 26 30.0000000  0  7G25G10G29G04G02G12G05
 -14573965.460 8 -11342472.739 7  21841949.383
 -13751980.44647  -9895962.35145  22133935.6884                   22133934.9494
  -5287188.280 7  -4108050.990 6  23512107.977
  -3322143.59646  -1860837.44443  24069753.8984                   24069754.0234
 -19624992.93048 -15246364.13746  21095940.6804                   21095937.8714
 -19867914.908 8 -15465863.004 7  20913251.609
 -22155545.456 8 -17235854.270 8  20323945.328
 11  7 25  3 27  0.0000000  0  7G25G10G29G04G02G12G05
 -14611487.637 8 -11371710.775 7  21834809.453
 -13669538.20447  -9831721.63545  22149623.6334                   22149623.3794
  -5370404.354 7  -4172894.563 6  23496272.695
  -3240299.30046  -1797062.69743  24085328.6724                   24085329.1334
 -19592343.18848 -15220922.76746  21102153.7504                   21102151.2894
 -19836729.538 7 -15441562.718 7  20919185.961
 -22172366.784 8 -17248961.776 8  20320744.344
 11  7 25  3 27 30.0000000  0  7G25G10G29G04G02G12G05
 -14648454.820 8 -11400516.332 7  21827774.688
 -13586705.84447  -9767176.92245  22165386.1884                   22165386.3094
  -5453623.481 7  -4237740.484 6  23480436.172
  -3158493.83246  -1733318.15443  24100895.5234                   24100895.5784
 -19559554.00248 -15195372.74446  21108393.4384                   21108390.2304
 -19804985.978 8 -15416827.471 7  20925226.648
 -22188607.288 8 -17261616.688 8  20317653.680
 11  7 25  3 28  0.0000000  0  7G25G10G29G04G02G12G05
 -14684871.178 8 -11428892.684 7  21820844.930
 -13503491.99447  -9702334.96145  22181221.3054                   22181221.3914
  -5536849.633 7  -4302591.886 6  23464598.367
  -3076733.25346  -1669608.60643  24116452.9454                   24116454.0234
 -19526631.23548 -15169718.62546  21114658.1334                   21114655.5274
 -19772690.781 8 -15391662.375 7  20931371.945
 -22204272.319 8 -17273823.181 8  20314672.867
 11  7 25  3 28 30.0000000  0  7G25G10G29G04G02G12G05
 -14720730.827 8 -11456835.224 7  21814021.164
 -13419895.12847  -9637194.54244  22197129.4534                   22197128.1174
  -5620077.170 6  -4367444.423 6  23448761.148
  -2995013.42446  -1605930.79843  24132003.5394                   24132005.0234
 -19493571.13048 -15143957.49546  21120949.7114                   21120946.6564
 -19739840.569 8 -15366064.800 7  20937623.227
 -22219356.930 8 -17285577.401 8  20311802.203
 11  7 25  3 29  0.0000000  0  7G25G10G29G04G02G12G05
 -14756039.008 8 -11484348.074 7  21807301.836
 -13335924.06847  -9571762.53445  22213108.3594                   22213107.4924
  -5703311.144 7  -4432301.945 6  23432922.000
  -2913341.09346  -1542290.01043  24147546.5004                   24147546.5314
 -19460380.92448 -15118094.98946  21127264.9224                   21127262.6374
 -19706442.961 8 -15340040.676 7  20943978.773
 -22233867.700 8 -17296884.476 8  20309041.023
 11  7 25  3 29 30.0000000  0  7G25G10G29G04G02G12G05
 -14790787.700 8 -11511424.934 7  21800689.609
 -13251574.96447  -9506035.95945  22229159.5554                   22229158.8834
  -5786543.569 6  -4497158.282 6  23417082.969
  -2831710.24046  -1478681.53643  24163080.0084                   24163080.5314
 -19427054.16648 -15092126.07746  21133607.1414                   21133604.0704
 -19672492.934 8 -15313586.112 7  20950439.180
 -22247797.558 8 -17307738.892 8  20306390.281
 11  7 25  3 30  0.0000000  0  7G25G10G29G04G02G12G05
 -14824981.507 8 -11538069.434 7  21794182.945
 -13166856.28947  -9440021.38045  22245280.8134                   22245280.4224
  -5869778.932 7  -4562016.938 6  23401244.195
  -2750126.54746  -1415109.83543  24178604.9534                   24178605.3284
 -19393597.74548 -15066056.13246  21139973.8444                   21139970.3244
 -19637997.571 8 -15286706.596 7  20957003.344
 -22261152.452 8 -17318145.276 8  20303848.789
 11  7 25  3 30 30.0000000  0  7G25G10G29G04G02G12G05
 -14858616.163 8 -11564278.244 7  21787781.938
 -13081767.90547  -9373718.75845  22261472.8364                   22261472.2464
  -5953012.809 7  -4626874.374 6  23385405.180
  -2668587.58246  -1351572.94643  24194121.8204                   24194121.8364
 -19360008.77148 -15039882.89846  21146365.3674                   21146362.6804
 -19602954.740 8 -15259400.488 7  20963671.961
 -22273929.137 8 -17328101.115 8  20301417.266
 11  7 25  3 31  0.0000000  0  7G25G10G29G04G02G12G05
 -14891688.421 8 -11590048.809 7  21781488.383
 -12996310.52947  -9307128.58745  22277734.5004                   22277734.2464
  -6036241.964 6  -4691728.210 6  23369567.023
  -2587091.61246  -1288069.61343  24209629.7114                   24209630.0314
 -19326285.73048 -15013605.19646  21152783.0004                   21152779.9064
 -19567363.635 8 -15231667.147 7  20970444.508
 -22286125.819 8 -17337604.995 8  20299096.461
 11  7 25  3 31 30.0000000  0  7G25G10G29G04G02G12G05
 -14924202.469 8 -11615384.398 7  21775301.445
 -12910491.90147  -9240256.92045  22294065.5554                   22294064.3524
  -6119470.138 7  -4756581.265 6  23353729.383
  -2505644.41046  -1224604.27943  24225127.8364                   24225128.6994
 -19292434.66948 -14987227.73546  21159224.3594                   21159221.2774
 -19531231.177 8 -15203511.982 7  20977320.109
 -22297747.526 8 -17346660.850 8  20296884.977
 11  7 25  3 32  0.0000000  0  7G25G10G29G04G02G12G05
 -14956154.039 8 -11640281.709 7  21769221.117
 -12824312.22347  -9173103.91245  22310464.6884                   22310464.2344
  -6202693.207 7  -4821430.356 6  23337891.805
  -2424243.27046  -1161174.81643  24240618.2664                   24240619.1644
 -19258453.18148 -14960748.64046  21165690.6804                   21165687.6644
 -19494555.759 8 -15174933.735 7  20984299.188
 -22308791.405 8 -17355266.452 8  20294783.500
 11  7 25  3 32 30.0000000  0  7G25G10G29G04G02G12G05
 -14987540.843 8 -11664738.941 7  21763248.328
 -12737772.98747  -9105670.73545  22326932.7814                   22326931.9304
  -6285908.283 7  -4886273.207 6  23322057.039
  -2342887.37846  -1097780.64143  24256099.4774                   24256100.1954
 -19224340.73848 -14934167.50346  21172182.1564                   21172178.9654
 -19457337.343 8 -15145932.364 7  20991381.820
 -22319256.312 8 -17363420.905 8  20292791.680
 11  7 25  3 33  0.0000000  0  7G25G10G29G04G02G12G05
 -15018364.140 8 -11688757.062 7  21757382.953
 -12650879.10747  -9037961.21944  22343468.6024                   22343467.3594
  -6369116.413 7  -4951110.661 6  23306222.750
  -2261579.15446  -1034423.58343  24271572.1884                   24271573.1024
 -19190100.16747 -14907486.52846  21178698.0164                   21178694.9534
 -19419579.653 7 -15116510.789 7  20998566.797
 -22329144.305 8 -17371125.809 8  20290910.508
 11  7 25  3 33 30.0000000  0  7G25G10G29G04G02G12G05
 -15048622.036 8 -11712334.618 7  21751625.188
 -12563632.59847  -8969976.92344  22360070.2974                   22360070.4224
  -6452315.202 7  -5015940.823 6  23290390.438
  -2180318.02546   -971103.24743  24287036.6024                   24287036.5354
 -19155731.06848 -14880705.40746  21185237.9614                   21185234.8244
 -19381283.521 8 -15086669.646 7  21005854.273
 -22338454.776 8 -17378380.707 8  20289138.625
 11  7 25  3 34  0.0000000  0  7G25G10G29G04G02G12G05
 -15078313.798 8 -11735471.046 7  21745974.648
 -12476036.60247  -8901720.30944  22376739.6724                   22376739.0554
  -6535503.662 7  -5080762.959 6  23274560.531
  -2099105.05146   -907820.40443  24302489.7814                   24302490.8204
 -19121234.25448 -14853824.76246  21191802.7974                   21191799.6024
 -19342450.399 8 -15056410.067 7  21013244.172
 -22347188.322 8 -17385186.055 8  20287476.109
 11  7 25  3 34 30.0000000  0  7G25G10G29G04G02G12G05
 -15107439.726 8 -11758166.551 7  21740432.328
 -12388095.38347  -8833194.67445  22393474.1024                   22393473.5164
  -6618681.846 7  -5145577.092 6  23258732.227
  -2017941.28346   -844575.86543  24317934.6804                   24317935.4454
 -19086611.86348 -14826846.27746  21198391.4064                   21198388.2934
 -19303083.395 8 -15025734.486 7  21020735.508
 -22355346.323 8 -17391542.916 8  20285924.461
 11  7 25  3 35  0.0000000  0  7G25G10G29G04G02G12G05
 -15135996.558 8 -11780418.601 7  21734998.195
 -12299809.20847  -8764400.25144  22410274.4774                   22410274.2624
  -6701845.912 7  -5210380.196 6  23242906.336
  -1936825.22546   -781368.59143  24333371.3054                   24333371.1054
 -19051861.96948 -14799768.43146  21205004.0704                   21205000.7974
 -19263181.828 8 -14994642.359 7  21028328.063
 -22362926.888 8 -17397449.838 8  20284481.875
 11  7 25  3 35 30.0000000  0  8G26G25G10G29G04G02G12G05
   -262170.42716                  24805461.641
 -15163985.758 8 -11802228.358 7  21729671.805
 -12211183.40247  -8695341.19444  22427139.5314                   22427139.0084
  -6784997.143 6  -5275173.318 6  23227083.641
  -1855759.36246   -718200.37543  24348797.5084                   24348796.7274
 -19016987.62848 -14772593.61246  21211639.7504                   21211637.1174
 -19222749.303 8 -14963136.498 7  21036022.297
 -22369932.590 8 -17402908.811 8  20283148.352
 11  7 25  3 36  0.0000000  0  8G26G25G10G29G04G02G12G05
   -357403.207 6                  24787339.891
 -15191407.332 8 -11823595.802 7  21724453.781
 -12122221.68647  -8626020.37545  22444068.7274                   22444067.8444
  -6868134.744 7  -5339955.820 6  23211263.164
  -1774745.05946   -655072.30343  24364213.6954                   24364214.1334
 -18981990.25648 -14745322.92946  21218300.0944                   21218296.5904
 -19181788.651 8 -14931219.108 7  21043816.883
 -22376364.322 8 -17407920.531 8  20281924.563
 11  7 25  3 36 30.0000000  0  8G26G25G10G29G04G02G12G05
   -452749.539 6                  24769196.680
 -15218253.702 8 -11844515.042 7  21719345.211
 -12032920.32847  -8556434.92545  22461062.0704                   22461061.1684
  -6951250.810 7  -5404721.528 6  23195446.281
  -1693775.87845   -591979.47943  24379621.1954                   24379623.0164
 -18946863.77348 -14717951.63046  21224984.1884                   21224981.2734
 -19140294.666 8 -14898886.145 7  21051713.078
 -22382216.064 8 -17412480.318 8  20280810.773
 11  7 25  3 37  0.0000000  0  8G26G25G10G29G04G02G12G05
   -548213.02446     22884.21753  24751030.1254                   24751031.0824
 -15244530.770 8 -11864990.658 7  21714344.984
 -11943288.83047  -8486592.21544  22478118.4454                   22478117.6884
  -7034350.553 7  -5469474.540 6  23179632.766
  -1612858.62646   -528927.11543  24395019.5004                   24395020.5824
 -18911615.33848 -14690485.30846  21231691.8444                   21231688.7114
 -19098275.729 8 -14866144.124 7  21059709.039
 -22387494.448 8 -17416593.325 8  20279806.586
 11  7 25  3 37 30.0000000  0  8G26G25G10G29G04G02G12G05
   -643789.08546    -51590.55143  24732842.6254                   24732844.2344
 -15270235.728 8 -11885020.490 7  21709453.258
 -11853328.21847  -8416493.04044  22495236.8054                   22495236.1564
  -7117430.486 7  -5534212.094 6  23163823.016
  -1531992.12446   -465914.26442  24410408.4064                   24410408.6024
 -18876243.70748 -14662923.00146  21238422.9534                   21238419.8204
 -19055731.511 8 -14832992.778 7  21067804.969
 -22392198.211 8 -17420258.584 8  20278911.500
 11  7 25  3 38  0.0000000  0  8G26G25G10G29G04G02G12G05
   -739474.47646   -126150.56743  24714634.3284                   24714635.3484
 -15295367.993 8 -11904604.053 7  21704670.922
 -11763041.46247  -8346139.75344  22512418.0554                   22512417.9264
  -7200489.551 7  -5598933.381 6  23148017.742
  -1451176.60146   -402941.10542  24425786.3524                   24425787.4304
 -18840749.71648 -14635265.33646  21245176.8674                   21245174.1844
 -19012663.869 8 -14799433.605 7  21076000.320
 -22396327.730 8 -17423476.377 8  20278125.469
 11  7 25  3 38 30.0000000  0  8G26G25G10G29G04G02G12G05
   -835264.90146   -200792.35043  24696405.8914                   24696406.6764
 -15319925.064 8 -11923739.416 7  21699998.086
 -11672429.72047  -8275533.19444  22529660.1804                   22529660.0084
  -7283524.563 7  -5663635.922 6  23132216.578
  -1370410.65546   -340006.56742  24441155.3134                   24441156.7194
 -18805132.10548 -14607511.34546  21251954.4064                   21251952.1374
 -18969072.760 8 -14765466.503 7  21084295.141
 -22399881.755 8 -17426245.735 8  20277449.305
 11  7 25  3 39  0.0000000  0  8G26G25G10G29G04G02G12G05
   -931160.26046   -275515.93243  24678158.4774                   24678158.6844
 -15343909.312 8 -11942428.416 7  21695433.555
 -11581499.29947  -8204678.34944  22546964.3444                   22546963.8524
  -7366537.167 7  -5728320.994 6  23116419.563
  -1289697.63446   -277113.31742  24456515.1954                   24456515.5784
 -18769394.52248 -14579663.86846  21258755.3754                   21258752.4344
 -18924963.028 8 -14731095.283 7  21092689.492
 -22402864.064 8 -17428569.593 8  20276881.563
 11  7 25  3 39 30.0000000  0  8G26G25G10G29G04G02G12G05
  -1027155.06946   -350317.01243  24659890.2974                   24659891.1804
 -15367317.461 8 -11960668.526 7  21690979.227
 -11490250.23047  -8133575.18544  22564328.4144                   22564327.8054
  -7449523.303 7  -5792985.487 6  23100628.023
  -1209035.36146   -214259.60642  24471864.5314                   24471864.9534
 -18733534.93848 -14551721.33746  21265579.4924                   21265576.3594
 -18880334.225 8 -14696319.590 7  21101181.609
 -22405272.225 8 -17430446.068 8  20276423.461
 11  7 25  3 40  0.0000000  0  8G26G25G10G29G04G02G12G05
  -1123248.05746   -425194.59843  24641604.5394                   24641605.3914
 -15390150.449 8 -11978460.445 7  21686634.258
 -11398686.93247  -8062227.18544  22581752.6954                   22581751.9884
  -7532483.167 7  -5857629.478 6  23084841.445
  -1128425.58246   -151446.84542  24487204.7584                   24487205.0274
 -18697555.53448 -14523685.42646  21272426.1724                   21272423.0824
 -18835189.217 8 -14661141.675 7  21109772.852
 -22407108.402 8 -17431876.843 8  20276074.359
 11  7 25  3 40 30.0000000  0  8G26G25G10G29G04G02G12G05
  -1219434.50347   -500145.00943  24623300.8524                   24623301.5634
 -15412406.041 8 -11995802.463 7  21682398.859
 -11306810.92747  -7990635.48244  22599236.0784                   22599234.7624
  -7615413.927 7  -5922250.799 6  23069060.203
  -1047867.19246    -88673.98943  24502534.9304                   24502534.1954
 -18661455.17448 -14495555.26246  21279295.8364                   21279292.4534
 -18789528.850 8 -14625562.173 7  21118461.570
 -22408371.670 8 -17432861.182 8  20275833.797
 11  7 25  3 41  0.0000000  0  8G26G25G10G29G04G02G12G05
  -1315712.05147   -575166.43643  24604980.5864                   24604980.9774
 -15434084.124 8 -12012694.462 7  21678273.789
 -11214625.46647  -7918802.66544  22616778.4454                   22616777.5664
  -7698314.357 7  -5986848.482 6  23053284.367
   -967360.79946    -25941.76443  24517854.4614                   24517854.0704
 -18625234.81148 -14467331.59946  21286188.1254                   21286185.3014
 -18743355.129 8 -14589582.648 7  21127248.305
 -22409062.836 8 -17433399.739 8  20275702.102
 11  7 25  3 41 30.0000000  0  8G26G25G10G29G04G02G12G05
  -1412079.16347   -650257.68643  24586641.8444                   24586642.7114
 -15455185.558 8 -12029137.122 7  21674258.422
 -11122134.72747  -7846731.98444  22634378.8444                   22634378.1954
  -7781184.426 7  -6051422.483 6  23037514.758
   -886908.21446     36748.56243  24533163.8204                   24533163.7974
 -18588896.46048 -14439015.99346  21293103.2114                   21293100.0944
 -18696671.132 8 -14553205.518 7  21136131.813
 -22409183.955 8 -17433494.101 8  20275679.070
 11  7 25  3 42  0.0000000  0  8G26G25G10G29G04G02G12G05
  -1508531.85947   -725415.63943  24568287.5394                   24568287.8094
 -15475708.955 8 -12045129.365 7  21670352.633
 -11029340.89447  -7774425.09144  22652037.2114                   22652035.7894
  -7864021.761 7  -6115970.994 6  23021751.586
   -806508.99746     99397.30443  24548463.1254                   24548463.5474
 -18552439.76248 -14410608.17246  21300040.4844                   21300037.5004
 -18649477.871 8 -14516431.551 7  21145112.352
 -22408735.207 8 -17433144.411 8  20275764.594
 11  7 25  3 42 30.0000000  0  8G26G25G10G29G04G02G12G05
  -1605066.55146   -800637.41943  24549916.8204                   24549917.6454
 -15495653.188 8 -12060670.321 7  21666557.344
 -10936246.31247  -7701883.85644  22669751.7504                   22669751.1604
  -7946824.645 7  -6180492.659 6  23005994.547
   -726162.65346    162004.84243  24563752.5704                   24563752.8484
 -18515865.03648 -14382108.37746  21307000.7504                   21306997.5744
 -18601777.501 8 -14479262.447 7  21154189.672
 -22407716.707 8 -17432350.754 8  20275957.906
 11  7 25  3 43  0.0000000  0  8G26G25G10G29G04G02G12G05
  -1701681.58346   -875921.83743  24531532.2034                   24531533.2814
 -15515019.098 8 -12075760.603 7  21662872.664
 -10842855.52447  -7629111.82244  22687524.0944                   22687523.4574
  -8029592.667 7  -6244987.147 6  22990243.805
   -645870.91546    224569.80243  24579032.1254                   24579031.8484
 -18479174.15048 -14353518.07646  21313982.7344                   21313979.6484
 -18553572.714 8 -14441700.265 7  21163362.508
 -22406129.633 8 -17431114.060 8  20276260.102
 11  7 25  3 43 30.0000000  0  8G26G25G10G29G04G02G12G05
  -1798370.41346   -951263.78243  24513133.0634                   24513133.6954
 -15533802.649 8 -12090397.123 7  21659298.242
 -10749167.60347  -7556108.24244  22705352.3204                   22705351.6134
  -8112320.954 7  -6309450.693 6  22974501.508
   -565630.41046    287094.91743  24594300.7894                   24594301.1764
 -18442363.77648 -14324834.66646  21320987.3834                   21320984.1644
 -18504861.844 8 -14403743.751 7  21172632.172
 -22403971.415 8 -17429432.320 8  20276671.117
 11  7 25  3 44  0.0000000  0  8G26G25G10G29G04G02G12G05
  -1895134.08546  -1026663.98443  24494719.5704                   24494720.1914
 -15552007.611 8 -12104582.785 7  21655833.547
 -10655189.63547  -7482878.66644  22723235.1644                   22723234.8874
  -8195012.099 7  -6373885.295 6  22958765.602
   -485445.61846    349576.58043  24609559.7894                   24609559.7934
 -18405438.65748 -14296061.84646  21328014.1564                   21328011.1294
 -18455651.184 8 -14365397.795 7  21181996.461
 -22401246.890 8 -17427309.297 8  20277189.664
 11  7 25  3 44 30.0000000  0  8G26G25G10G29G04G02G12G05
  -1991967.94346  -1102118.89443  24476292.2344                   24476293.6374
 -15569631.850 8 -12118315.959 7  21652479.852
 -10560922.85347  -7409424.04044  22741173.1724                   22741172.8204
  -8277662.889 7  -6438288.453 6  22943037.953
   -405315.10746    412015.92543  24624807.8754                   24624808.3914
 -18368397.65648 -14267198.72546  21335062.3054                   21335059.6484
 -18405940.941 8 -14326662.535 7  21191456.250
 -22397955.726 8 -17424744.740 8  20277815.508
 11  7 25  3 45  0.0000000  0  8G26G25G10G29G04G02G12G05
  -2088868.47946  -1177625.77843  24457852.5314                   24457853.2624
 -15586674.424 8 -12131595.866 7  21649236.836
 -10466369.72647  -7335746.32444  22759166.4224                   22759166.0594
  -8360271.161 7  -6502658.464 6  22927317.656
   -325238.59946    474413.21343  24640045.8914                   24640046.3164
 -18331240.91948 -14238245.42046  21342133.1094                   21342130.4614
 -18355732.686 8 -14287539.227 7  21201010.289
 -22394097.817 8 -17421738.560 8  20278550.016
 11  7 25  3 45 30.0000000  0  8G26G25G10G29G04G02G12G05
  -2185833.53146  -1253182.90942  24439401.3984                   24439401.8754
 -15603136.074 8 -12144423.112 7  21646104.422
 -10371534.36747  -7261848.64944  22777213.3984                   22777212.7544
  -8442836.899 7  -6566995.350 6  22911605.789
   -245217.40946    536767.40843  24655273.8444                   24655273.7814
 -18293970.06048 -14209203.19146  21349225.3984                   21349222.4774
 -18305029.869 8 -14248030.548 7  21210658.852
 -22389674.805 8 -17418292.029 8  20279391.609
 11  7 25  3 46  0.0000000  0  8G26G25G10G29G04G02G12G05
  -2282858.92246  -1328787.12542  24420937.3524                   24420938.4534
 -15619015.232 8 -12156796.462 7  21643082.859
 -10276418.16847  -7187732.16444  22795313.6254                   22795312.3404
  -8525356.846 7  -6631296.546 6  22895903.180
   -165250.61346    599079.20143  24670490.9384                   24670490.8754
 -18256583.93148 -14180071.15046  21356339.9224                   21356336.9734
 -18253832.548 8 -14208136.545 7  21220401.336
 -22384686.434 8 -17414404.972 8  20280340.547
 11  7 25  3 46 30.0000000  0  8G26G25G10G29G04G02G12G05
  -2379940.13946  -1404434.76742  24402463.3674                   24402464.3484
 -15634310.249 8 -12168714.636 7  21640172.117
 -10181022.77547  -7113398.06944  22813466.3284                   22813465.3794
  -8607828.273 7  -6695559.929 6  22880209.219
    -85336.87946    661349.62843  24685697.4534                   24685697.8094
 -18219081.90248 -14150848.79346  21363476.7344                   21363473.4654
 -18202142.389 8 -14167858.493 7  21230237.516
 -22379132.387 8 -17410077.138 8  20281397.805
 11  7 25  3 47  0.0000000  0  7G26G25G10G29G02G12G05
  -2477077.02746  -1480125.79343  24383979.2034                   24383979.5164
 -15649023.778 8 -12180179.710 7  21637371.688
 -10085354.23647  -7038851.17644  22831671.8674                   22831670.7774
  -8690252.530 7  -6759786.572 6  22864524.188
 -18181467.27948 -14121538.70146  21370634.0944                   21370631.2854
 -18149964.134 8 -14127200.110 7  21240166.891
 -22373016.247 8 -17405311.291 8  20282561.242
 11  7 25  3 47 30.0000000  0  7G26G25G10G29G02G12G05
  -2574267.60346  -1555858.68543  24365484.5704                   24365485.3834
 -15663156.785 8 -12191192.420 7  21634682.742
  -9989416.46047  -6964094.47944  22849928.1094                   22849926.9494
  -8772629.458 7  -6823976.323 6  22848848.234
 -18143742.07048 -14092142.43146  21377813.3284                   21377810.1604
 -18097301.090 8 -14086163.986 7  21250188.313
 -22366339.982 8 -17400108.992 8  20283831.672
 11  7 25  3 48  0.0000000  0  7G26G25G10G29G02G12G05
  -2671504.13346  -1631627.36643  24346980.4064                   24346982.1024
 -15676704.406 8 -12201748.983 7  21632104.641
  -9893207.86147  -6889126.75844  22868236.2344                   22868235.1524
  -8854952.914 7  -6888124.418 6  22833182.602
 -18105901.81548 -14062656.52546  21385013.8984                   21385010.8284
 -18044150.291 8 -14044747.780 7  21260302.578
 -22359100.016 8 -17394467.449 8  20285209.398
 11  7 25  3 48 30.0000000  0  7G26G25G10G29G02G12G05
  -2768787.29746  -1707432.36043  24328468.6334                   24328469.0204
 -15689670.198 8 -12211852.188 7  21629637.594
  -9796735.02647  -6813953.13144  22886594.5554                   22886593.6484
  -8937224.741 7  -6952232.245 7  22817526.813
 -18067951.05448 -14033084.50046  21392235.4694                   21392232.6524
 -17990518.086 8 -14002956.463 7  21270508.797
 -22351301.100 8 -17388390.360 8  20286693.680
 11  7 25  3 49  0.0000000  0  7G26G25G10G29G02G12G05
  -2866112.28146  -1783269.92143  24309947.5554                   24309948.3134
 -15702052.170 8 -12221500.458 7  21627280.969
  -9699999.19147  -6738574.55244  22905002.6954                   22905000.9304
  -9019441.752 7  -7016297.415 7  22801881.609
 -18029888.10648 -14003425.05946  21399479.2504                   21399475.8014
 -17936405.017 8 -13960790.437 7  21280805.891
 -22342942.642 8 -17381877.256 8  20288284.156
 11  7 25  3 49 30.0000000  0  7G26G25G10G29G02G12G05
  -2963475.47346  -1859137.29043  24291419.8054                   24291420.8404
 -15713849.874 8 -12230693.462 7  21625036.281
  -9603002.84047  -6662992.98544  22923460.0554                   22923459.2464
  -9101602.026 7  -7080318.358 6  22786246.641
 -17991713.19448 -13973678.38346  21406743.1414                   21406740.3164
 -17881812.468 8 -13918250.791 7  21291194.352
 -22334024.549 8 -17374928.090 8  20289981.078
 11  7 25  3 50  0.0000000  0  7G26G25G10G29G02G12G05
  -3060874.48846  -1935032.53943  24272886.2034                   24272886.8404
 -15725063.875 8 -12239431.636 7  21622902.367
  -9505749.39747  -6587211.09744  22941966.9774                   22941966.7624
  -9183704.478 7  -7144294.234 7  22770623.148
 -17953427.40448 -13943845.30446  21414028.8984                   21414025.7624
 -17826743.823 8 -13875340.161 7  21301673.672
 -22324549.024 8 -17367544.549 8  20291784.219
 11  7 25  3 50 30.0000000  0  7G26G25G10G29G02G12G05
  -3158305.76646  -2010952.95144  24254345.8524                   24254346.0474
 -15735693.705 8 -12247714.604 7  21620879.328
  -9408241.91547  -6511231.24944  22960521.6484                   22960520.5984
  -9265747.723 7  -7208223.969 7  22755010.898
 -17915030.94448 -13913925.98446  21421335.6644                   21421332.5944
 -17771200.853 7 -13832059.922 7  21312243.273
 -22314516.608 8 -17359727.074 8  20293693.547
 11  7 25  3 51  0.0000000  0  7G26G25G10G29G02G12G05
  -3255767.00246  -2086896.72744  24235798.6804                   24235800.1334
 -15745740.141 8 -12255542.985 7  21618967.586
  -9310483.71947  -6435056.02344  22979124.6174                   22979123.8834
  -9347730.276 7  -7272106.431 7  22739410.156
 -17876525.05548 -13883921.39646  21428662.8754                   21428659.7934
 -17715186.672 8 -13788412.517 7  21322902.523
 -22303929.226 8 -17351477.155 8  20295708.102
 11  7 25  3 51 30.0000000  0  7G26G25G10G29G02G12G05
  -3353253.31746  -2162859.99944  24217248.5164                   24217249.3054
 -15755201.443 8 -12262915.428 7  21617166.906
  -9212475.99547  -6358686.40044  22997774.6414                   22997774.0274
  -9429649.117 7  -7335939.246 7  22723821.492
 -17837908.41147 -13853830.51246  21436011.3204                   21436008.2624
 -17658701.656 8 -13744398.226 7  21333651.008
 -22292786.475 8 -17342794.482 8  20297828.578
 11  7 25  3 52  0.0000000  0  7G26G25G10G29G02G12G05
  -3450762.79246  -2238841.32143  24198691.4304                   24198693.1294
 -15764079.071 8 -12269833.036 7  21615477.703
  -9114223.30247  -6282125.88044  23016471.7424                   23016471.3324
  -9511503.794 7  -7399722.053 6  22708244.867
 -17799182.92648 -13823654.80746  21443381.0004                   21443377.3754
 -17601749.726 8 -13700020.099 7  21344488.492
 -22281090.505 8 -17333680.731 8  20300053.898
 11  7 25  3 52 30.0000000  0  7G26G25G10G29G02G12G05
  -3548291.31246  -2314837.47643  24180133.3364                   24180134.2154
 -15772371.748 8 -12276294.864 7  21613899.875
  -9015727.57447  -6205375.95244  23035214.9534                   23035214.0704
  -9593291.689 7  -7463452.826 7  22692681.313
 -17760347.74648 -13793393.63346  21450770.8204                   21450767.7584
 -17544331.912 8 -13655278.955 7  21355415.039
 -22268841.322 8 -17324135.902 8  20302385.070
 11  7 25  3 53  0.0000000  0  7G26G25G10G29G02G12G05
  -3645836.07346  -2390846.33543  24161570.4384                   24161571.7034
 -15780080.296 8 -12282301.525 7  21612432.664
  -8916992.25547  -6128439.35644  23054003.3054                   23054002.9104
  -9675011.884 7  -7527130.839 7  22677129.938
 -17721404.03648 -13763047.89246  21458181.4694                   21458178.3204
 -17486450.989 7 -13610176.954 7  21366429.406
 -22256040.956 8 -17314161.580 8  20304821.273
 11  7 25  3 53 30.0000000  0  7G26G25G10G29G02G12G05
  -3743393.63846  -2466865.12143  24143006.5554                   24143006.9654
 -15787204.245 8 -12287852.652 7  21611077.102
  -8818019.38147  -6051317.64244  23072837.2034                   23072837.0044
  -9756662.366 7  -7590754.523 6  22661592.805
 -17682351.76948 -13732617.55546  21465612.9064                   21465609.4144
 -17428109.262 8 -13564715.865 7  21377531.242
 -22242689.738 8 -17303758.025 8  20307361.148
 11  7 25  3 54  0.0000000  0  7G26G25G10G29G02G12G05
  -3840961.04146  -2542891.56143  24124439.9304                   24124440.9384
 -15793744.330 8 -12292948.823 7  21609832.258
  -8718812.34147  -5974013.46744  23091716.3054                   23091715.6024
  -9838241.868 7  -7654322.923 7  22646068.305
 -17643191.80248 -13702103.28946  21473064.6024                   21473061.5204
 -17369309.597 8 -13518897.961 7  21388720.555
 -22228789.828 8 -17292926.918 8  20310006.508
 11  7 25  3 54 30.0000000  0  7G26G25G10G29G02G12G05
  -3938535.01046  -2618923.14843  24105872.2584                   24105872.7974
 -15799700.247 8 -12297589.802 7  21608699.508
  -8619373.92547  -5896528.99744  23110638.2734                   23110638.2274
  -9919748.154 7  -7717834.249 7  22630558.539
 -17603924.37748 -13671505.30646  21480536.9384                   21480534.0744
 -17310053.804 8 -13472724.627 7  21399996.469
 -22214341.775 8 -17281668.677 8  20312756.078
 11  7 25  3 55  0.0000000  0  7G26G25G10G29G02G12G05
  -4036111.85446  -2694956.97143  24087303.9614                   24087304.7074
 -15805071.858 8 -12301775.447 7  21607677.180
  -8519706.56447  -5818866.14044  23129604.5554                   23129604.1724
 -10001179.454 7  -7781287.166 6  22615062.688
 -17564549.57248 -13640823.64246  21488030.3054                   21488026.8754
 -17250344.179 8 -13426197.655 7  21411358.883
 -22199346.430 8 -17269983.990 8  20315609.422
 11  7 25  3 55 30.0000000  0  7G26G25G10G29G02G12G05
  -4133688.74546  -2770990.83543  24068736.4534                   24068735.9574
 -15809859.708 8 -12305506.250 7  21606766.047
  -8419813.93847  -5741027.72544  23148613.8754                   23148613.2304
 -10082534.471 7  -7844680.620 6  22599581.211
 -17525067.77248 -13610058.59946  21495543.1644                   21495539.6804
 -17190183.397 8 -13379319.131 7  21422807.141
 -22183805.724 8 -17257874.334 8  20318567.039
 11  7 25  3 56  0.0000000  0  7G26G25G10G29G02G12G05
  -4231261.70446  -2847021.63343  24050167.9144                   24050168.0514
 -15814063.468 8 -12308781.902 7  21605965.898
  -8319698.06047  -5663015.37044  23167664.4924                   23167664.5204
 -10163810.924 7  -7908012.871 6  22584114.477
 -17485478.86448 -13579210.10446  21503076.7974                   21503073.7114
 -17129573.294 8 -13332090.497 7  21434340.883
 -22167720.163 8 -17245340.122 8  20321627.711
 11  7 25  3 56 30.0000000  0  7G26G25G10G29G02G12G05
  -4328828.09747  -2923047.35443  24031601.6564                   24031601.5824
 -15817684.037 8 -12311603.125 7  21605277.164
  -8219362.52247  -5584831.85844  23186758.0004                   23186757.8444
 -10245007.767 7  -7971283.081 6  22568663.539
 -17445784.13648 -13548279.14246  21510630.2504                   21510627.1334
 -17068517.097 8 -13284514.239 7  21445959.594
 -22151091.630 8 -17232382.819 8  20324791.898
 11  7 25  3 57  0.0000000  0  7G26G25G10G29G02G12G05
  -4426384.20147  -2999065.02143  24013037.0634                   24013037.2774
 -15820720.978 8 -12313969.561 7  21604698.797
  -8118809.37447  -5506478.75244  23205893.3284                   23205892.6174
 -10326122.462 7  -8034489.278 6  22553227.719
 -17405982.67848 -13517265.01546  21518204.1414                   21518201.1524
 -17007016.466 8 -13236591.690 7  21457662.633
 -22133920.925 8 -17219003.042 8  20328059.297
 11  7 25  3 57 30.0000000  0  7G26G25G10G29G02G12G05
  -4523926.66447  -3075072.10443  23994475.5164                   23994476.0204
 -15823174.562 7 -12315881.432 7  21604232.133
  -8018041.46447  -5427958.30844  23225068.1954                   23225067.5744
 -10407153.270 7  -8097630.110 6  22537808.289
 -17366075.74048 -13486168.68946  21525798.2584                   21525795.0634
 -16945073.790 8 -13188324.662 7  21469450.023
 -22116209.398 8 -17205201.847 8  20331430.031
 11  7 25  3 58  0.0000000  0  7G26G25G10G29G02G12G05
  -4621452.62946  -3151066.29343  23975917.0164                   23975917.6024
 -15825045.678 8 -12317339.448 7  21603876.227
  -7917062.27546  -5349273.22543  23244283.6254                   23244283.3524
 -10488099.149 7  -8160704.782 6  22522404.695
 -17326063.91047 -13454990.63846  21533412.2274                   21533408.7504
 -16882692.288 8 -13139715.720 7  21481320.852
 -22097958.636 8 -17190980.457 8  20334902.984
 11  7 25  3 58 30.0000000  0  7G26G25G10G29G02G12G05
  -4718958.19946  -3227044.62543  23957362.4844                   23957362.3594
 -15826334.029 8 -12318343.349 7  21603631.031
  -7815874.11846  -5270425.34044  23263539.3984                   23263538.9574
 -10568957.460 7  -8223711.223 7  22507017.820
 -17285946.70948 -13423730.47146  21541046.5164                   21541043.4804
 -16819873.815 8 -13090766.263 7  21493274.406
 -22079169.677 8 -17176339.700 8  20338478.406
 11  7 25  3 59  0.0000000  0  7G26G25G10G29G02G12G05
  -4816440.31946  -3303004.66643  23938811.7114                   23938811.8134
 -15827040.242 7 -12318893.639 7  21603496.344
  -7714480.19647  -5191417.09143  23282834.2344                   23282833.5984
 -10649727.066 7  -8286648.533 7  22491647.469
 -17245724.56148 -13392388.54046  21548700.2034                   21548696.9224
 -16756620.767 8 -13041478.182 7  21505311.172
 -22059844.136 8 -17161280.835 8  20342156.102
 11  7 25  3 59 30.0000000  0  7G26G25G10G29G02G12G05
  -4913895.45046  -3378943.66743  23920267.0084                   23920266.6254
 -15827164.578 8 -12318990.529 7  21603472.961
  -7612883.10346  -5112250.53043  23302167.6254                   23302167.1294
 -10730405.796 7  -8349515.022 7  22476294.836
 -17205398.06648 -13360965.27446  21556373.8594                   21556370.7034
 -16692936.103 8 -12991853.778 7  21517430.219
 -22039983.370 8 -17145804.904 8  20345935.227
 11  7 25  4  0  0.0000000  0  7G26G25G10G29G02G12G05
  -5011320.27946  -3454859.06743  23901727.8984                   23901727.2934
 -15826707.397 8 -12318634.280 7  21603559.672
  -7511085.58147  -5032927.78243  23321538.8364                   23321538.3244
 -10810992.099 7  -8412309.515 7  22460960.172
 -17164967.33048 -13329460.81246  21564067.8984                   21564064.2584
 -16628822.133 8 -12941894.846 7  21529630.727
 -22019588.677 8 -17129912.927 8  20349816.305
 11  7 25  4  0 30.0000000  0  7G26G25G10G29G02G12G05
  -5108711.26346  -3530748.08743  23883195.1254                   23883194.8524
 -15825669.002 8 -12317825.137 7  21603757.594
  -7409090.17347  -4953450.84344  23340947.7584                   23340947.2274
 -10891483.791 7  -8475030.268 7  22445642.773
 -17124432.33148 -13297875.09446  21571781.3984                   21571778.1644
 -16564281.215 8 -12891603.222 7  21541912.234
 -21998661.365 8 -17113605.916 8  20353798.328
 11  7 25  4  1  0.0000000  0  7G26G25G10G29G02G12G05
  -5206064.76746  -3606607.89943  23864668.6484                   23864669.1134
 -15824049.449 8 -12316563.138 7  21604065.656
  -7306899.57347  -4873821.83044  23360394.4224                   23360393.7734
 -10971878.920 7  -8537675.788 7  22430344.047
 -17083793.40348 -13266208.39646  21579514.6024                   21579511.4304
 -16499315.779 8 -12840980.802 7  21554274.961
 -21977202.203 8 -17096884.491 8  20357882.047
 11  7 25  4  1 30.0000000  0  7G26G25G10G29G02G12G05
  -5303377.82746  -3682436.18443  23846150.2424                   23846150.6484
 -15821849.553 7 -12314848.947 7  21604484.172
  -7204516.81447  -4794043.07944  23379876.8524                   23379876.8714
 -11052175.745 7  -8600244.714 7  22415064.227
 -17043050.76248 -13234460.87646  21587267.7734                   21587264.6254
 -16433928.467 7 -12790029.678 7  21566717.742
 -21955213.183 8 -17079750.178 8  20362066.445
 11  7 25  4  2  0.0000000  0  7G26G25G10G29G02G12G05
  -5400647.22846  -3758230.48243  23827640.9454                   23827640.7424
 -15819070.399 8 -12312683.350 7  21605013.086
  -7101945.14446  -4714117.09044  23399395.6724                   23399395.0084
 -11132372.681 7  -8662735.800 7  22399803.281
 -17002205.30548 -13202633.23146  21595040.2034                   21595037.4774
 -16368122.586 8 -12738752.356 7  21579239.844
 -21932696.613 8 -17062204.795 8  20366351.180
 11  7 25  4  2 30.0000000  0  7G26G25G10G29G02G12G05
  -5497868.47146  -3833987.22443  23809139.8444                   23809140.7114
 -15815711.051 8 -12310065.673 7  21605652.406
  -6999186.01546  -4634045.04944  23418949.4774                   23418949.4414
 -11212467.372 7  -8725147.209 7  22384561.414
 -16961255.88548 -13170724.58946  21602832.9454                   21602829.8954
 -16301899.072 8 -12687149.624 7  21591842.305
 -21909652.361 8 -17044248.222 8  20370736.156
 11  7 25  4  3  0.0000000  0  7G26G25G10G29G02G12G05
  -5595039.16546  -3909704.59343  23790648.8524                   23790648.7194
 -15811773.249 8 -12306997.257 7  21606401.828
  -6896243.52546  -4553830.13743  23438539.2274                   23438538.5634
 -11292458.444 7  -8787477.886 7  22369339.805
 -16920203.96248 -13138736.07646  21610644.8984                   21610641.5084
 -16235261.383 8 -12635224.157 7  21604522.695
 -21886083.069 8 -17025882.537 8  20375221.242
 11  7 25  4  3 30.0000000  0  7G26G25G10G29G02G12G05
  -5692156.02146  -3985380.01344  23772168.7734                   23772168.6994
 -15807257.474 8 -12303478.469 7  21607261.141
  -6793120.17146  -4473474.28843  23458162.6644                   23458162.2274
 -11372344.017 7  -8849726.346 7  22354137.734
 -16879049.86548 -13106667.95346  21618475.9844                   21618472.9694
 -16168212.675 8 -12582978.406 7  21617281.484
 -21861990.356 8 -17007108.984 8  20379806.156
 11  7 25  4  4  0.0000000  0  7G26G25G10G29G02G12G05
  -5789216.10746  -4061011.19843  23753698.2114                   23753698.6804
 -15802165.174 8 -12299510.447 7  21608229.945
  -6689819.32347  -4392980.11143  23477820.6174                   23477819.8094
 -11452123.354 7  -8911892.042 7  22338955.938
 -16837794.36148 -13074520.80846  21626326.7584                   21626323.6884
 -16100756.434 8 -12530415.116 7  21630118.000
 -21837376.335 8 -16987929.219 8  20384489.844
 11  7 25  4  4 30.0000000  0  7G26G25G10G29G02G12G05
  -5886213.88246  -4136593.83743  23735239.9924                   23735240.0944
 -15796494.764 8 -12295091.927 7  21609309.102
  -6586342.03446  -4312348.50744  23497511.4614                   23497511.1524
 -11531792.097 7  -8973971.535 7  22323796.547
 -16796435.68848 -13042293.25746  21634197.3054                   21634193.8874
 -16032892.880 8 -12477534.425 7  21643032.578
 -21812240.550 8 -16968342.881 8  20389272.961
 11  7 25  4  5  0.0000000  0  7G26G25G10G29G02G12G05
  -5983147.70546  -4212126.62543  23716794.2424                   23716794.7464
 -15790248.594 8 -12290224.785 7  21610497.891
  -6482692.56246  -4231582.71143  23517235.2894                   23517235.0514
 -11611349.969 7  -9035964.647 7  22308656.422
 -16754975.64848 -13009986.74346  21642086.9144                   21642083.7624
 -15964626.294 7 -12424339.695 7  21656023.102
 -21786586.440 8 -16948352.660 8  20394154.727
 11  7 25  4  5 30.0000000  0  7G26G25G10G29G02G12G05
  -6080012.21446  -4287605.43843  23698361.4304                   23698361.4024
 -15783425.381 8 -12284907.989 7  21611795.977
  -6378871.88146  -4150683.47343  23536991.3524                   23536991.4024
 -11690793.360 7  -9097868.543 7  22293538.734
 -16713412.67548 -12977599.99646  21649996.0474                   21649992.9734
 -15895957.389 7 -12370831.445 7  21669090.344
 -21760413.285 8 -16927957.983 8  20399135.484
 11  7 25  4  6  0.0000000  0  7G26G25G10G29G02G12G05
  -6176805.44346  -4363028.69043  23679942.6644                   23679942.1604
 -15776027.353 8 -12279143.296 7  21613204.234
  -6274883.92447  -4069653.87243  23556779.8364                   23556778.8164
 -11770121.610 7  -9159682.731 7  22278443.172
 -16671748.19447 -12945134.17346  21657924.0474                   21657921.3164
 -15826890.509 8 -12317013.112 7  21682233.102
 -21733724.187 8 -16907161.272 8  20404214.242
 11  7 25  4  6 30.0000000  0  7G26G25G10G29G02G12G05
  -6273524.39947  -4438394.07043  23661537.1954                   23661536.8794
 -15768055.983 8 -12272931.825 7  21614721.031
  -6170732.18446  -3988496.69143  23576599.4384                   23576598.8244
 -11849333.879 7  -9221406.540 7  22263369.250
 -16629983.29947 -12912590.09746  21665872.0784                   21665869.1804
 -15757428.993 7 -12262887.253 7  21695451.273
 -21706521.832 8 -16885964.621 8  20409390.813
 11  7 25  4  7  0.0000000  0  8G26G25G10G15G29G02G12G05
  -6370164.84947  -4513698.31243  23643147.5234                   23643147.0514
 -15759511.003 8 -12266273.398 7  21616346.813
  -6066418.31546  -3907213.15043  23596449.4844                   23596448.9494
   -768086.22617                  24628074.352
 -11928426.988 7  -9283037.478 7  22248318.359
 -16588117.28347 -12879967.21545  21673838.9694                   21673835.6564
 -15687574.435 8 -12208455.148 7  21708744.063
 -21678807.054 8 -16864368.679 8  20414664.484
 11  7 25  4  7 30.0000000  0  8G26G25G10G15G29G02G12G05
  -6466723.48247  -4588938.76343  23624773.0864                   23624773.0554
 -15750393.379 8 -12259168.757 7  21618081.977
  -5961945.42246  -3825805.70444  23616330.6094                   23616329.3634
   -863393.215 6   -655550.53715  24609937.688
 -12007399.266 7  -9344574.271 7  22233290.406
 -16546150.21947 -12847265.60646  21681824.5784                   21681821.8794
 -15617329.972 8 -12153719.194 7  21722110.891
 -21650581.114 8 -16842374.428 8  20420035.539
 11  7 25  4  8  0.0000000  0  8G26G25G10G15G29G02G12G05
  -6563196.16347  -4664112.26043  23606414.7344                   23606413.9654
 -15740703.377 8 -12251618.105 7  21619925.859
  -5857315.51846  -3744275.92444  23636240.9144                   23636240.2234
   -958817.200 6   -729906.802 4  24591779.133
 -12086248.292 7  -9406015.036 7  22218286.133
 -16504081.66847 -12814484.90945  21689830.1484                   21689826.8594
 -15546697.533 8 -12098680.941 7  21735552.203
 -21621845.397 8 -16819982.949 8  20425504.031
 11  7 25  4  8 30.0000000  0  8G26G25G10G15G29G02G12G05
  -6659578.78246  -4739215.55143  23588073.3524                   23588073.1054
 -15730441.299 8 -12243621.684 7  21621879.063
  -5752530.80046  -3662625.51343  23656180.6024                   23656180.1684
  -1054355.082 6   -804351.876 4  24573598.477
 -12164971.516 7  -9467357.765 7  22203305.250
 -16461912.11847 -12781625.52046  21697854.5944                   21697851.7894
 -15475679.319 8 -12043342.079 7  21749066.078
 -21592601.291 8 -16797195.318 8  20431068.930
 11  7 25  4  9  0.0000000  0  8G26G25G10G15G29G02G12G05
  -6755868.67846  -4814246.57743  23569749.7034                   23569750.0394
 -15719608.492 8 -12235180.541 7  21623940.000
  -5647594.57246  -3580857.03243  23676148.6954                   23676149.0514
  -1150004.912 5   -878883.979 5  24555394.570
 -12243567.414 7  -9528601.273 7  22188349.688
 -16419641.47148 -12748687.36346  21705898.7114                   21705895.5164
 -15404278.653 8 -11987705.202 7  21762653.430
 -21562850.816 8 -16774013.119 8  20436730.117
 11  7 25  4  9 30.0000000  0  8G26G25G10G15G29G02G12G05
  -6852062.92846  -4889203.06843  23551444.9534                   23551444.9844
 -15708206.916 8 -12226296.197 7  21626109.836
  -5542510.41346  -3498973.28343  23696146.0784                   23696145.6844
  -1245765.031 6   -953502.017 5  24537173.781
 -12322035.215 7  -9589744.978 7  22173417.539
 -16377270.95748 -12715671.36646  21713961.8754                   21713958.2034
 -15332499.311 8 -11931773.260 7  21776312.703
 -21532596.716 8 -16750438.491 8  20442487.703
 11  7 25  4 10  0.0000000  0  8G26G25G10G15G29G02G12G05
  -6948157.03346  -4964081.54443  23533158.5084                   23533158.9654
 -15696236.439 8 -12216968.558 7  21628387.359
  -5437280.37846  -3416975.89043  23716170.8444                   23716170.2234
  -1341632.057 6  -1028203.390 6  24518931.227
 -12400371.691 7  -9650786.347 7  22158510.352
 -16334799.55548 -12682576.77445  21722043.6484                   21722040.3594
 -15260343.206 8 -11875547.722 7  21790043.594
 -21501839.817 8 -16726472.064 8  20448340.594
 11  7 25  4 10 30.0000000  0  8G26G25G10G15G29G02G12G05
  -7044148.10046  -5038879.73044  23514892.2504                   23514892.1294
 -15683698.237 8 -12207198.543 7  21630773.656
  -5331906.92346  -3334866.73043  23736222.7274                   23736222.3984
  -1437603.576 6  -1102986.243 6  24500667.844
 -12478575.157 7  -9711724.057 7  22143628.773
 -16292228.16148 -12649404.26245  21730144.4614                   21730141.5634
 -15187813.161 8 -11819030.822 7  21803845.406
 -21470582.058 8 -16702115.360 8  20454288.602
